Wetterdaten: Donnerstag, 25.10.2018
Datum Zeit Temp. A. Feuchte A. Luftdruck Regen Wind Richtung Richtung Sonnenschein ET UV Solar Taupunkt Windchill Windböen
25.10.2018 00:00 9,3 °C 93 % 1023,1 hPa 0,0 mm 12,1 km/h (2 Bft) W 269 ° 0 min 0,000 mm 0,0 UV-I 0 W/m² 8,2 °C 7,5 °C 16,1 km/h (3 Bft)
25.10.2018 00:01 9,3 °C 93 % 1023,1 hPa 0,0 mm 9,5 km/h (2 Bft) W 266 ° 0 min 0,000 mm 0,0 UV-I 0 W/m² 8,2 °C 7,9 °C 14,5 km/h (3 Bft)
25.10.2018 00:02 9,3 °C 93 % 1023,1 hPa 0,0 mm 5,6 km/h (1 Bft) W-NW 292 ° 0 min 0,000 mm 0,0 UV-I 0 W/m² 8,2 °C 8,8 °C 11,3 km/h (2 Bft)
25.10.2018 00:03 9,3 °C 93 % 1023,1 hPa 0,0 mm 6,3 km/h (2 Bft) W-NW 298 ° 0 min 0,000 mm 0,0 UV-I 0 W/m² 8,2 °C 8,6 °C 11,3 km/h (2 Bft)
25.10.2018 00:04 9,3 °C 93 % 1023,1 hPa 0,0 mm 10,9 km/h (2 Bft) W-SW 254 ° 0 min 0,000 mm 0,0 UV-I 0 W/m² 8,2 °C 7,6 °C 14,5 km/h (3 Bft)
25.10.2018 00:05 9,3 °C 93 % 1023,2 hPa 0,0 mm 4,0 km/h (1 Bft) W 269 ° 0 min 0,000 mm 0,0 UV-I 0 W/m² 8,2 °C 9,3 °C 4,8 km/h (1 Bft)
25.10.2018 00:06 9,3 °C 93 % 1023,1 hPa 0,0 mm 3,6 km/h (1 Bft) W 269 ° 0 min 0,000 mm 0,0 UV-I 0 W/m² 8,2 °C 9,3 °C 6,4 km/h (2 Bft)
25.10.2018 00:07 9,3 °C 93 % 1023,1 hPa 0,0 mm 3,2 km/h (1 Bft) W-SW 244 ° 0 min 0,000 mm 0,0 UV-I 0 W/m² 8,2 °C 9,3 °C 4,8 km/h (1 Bft)
25.10.2018 00:08 9,3 °C 93 % 1023,1 hPa 0,0 mm 8,0 km/h (2 Bft) W 276 ° 0 min 0,000 mm 0,0 UV-I 0 W/m² 8,2 °C 8,2 °C 16,1 km/h (3 Bft)
25.10.2018 00:09 9,3 °C 93 % 1023,1 hPa 0,0 mm 11,3 km/h (2 Bft) W 266 ° 0 min 0,000 mm 0,0 UV-I 0 W/m² 8,2 °C 7,6 °C 14,5 km/h (3 Bft)
25.10.2018 00:10 9,3 °C 93 % 1023,2 hPa 0,0 mm 6,8 km/h (2 Bft) W 263 ° 0 min 0,000 mm 0,0 UV-I 0 W/m² 8,2 °C 8,5 °C 9,7 km/h (2 Bft)
25.10.2018 00:11 9,3 °C 94 % 1023,0 hPa 0,0 mm 1,5 km/h (1 Bft) W 263 ° 0 min 0,000 mm 0,0 UV-I 0 W/m² 8,4 °C 9,3 °C 6,4 km/h (2 Bft)
25.10.2018 00:12 9,3 °C 94 % 1023,1 hPa 0,0 mm 6,2 km/h (2 Bft) W 264 ° 0 min 0,000 mm 0,0 UV-I 0 W/m² 8,4 °C 8,6 °C 12,9 km/h (3 Bft)
25.10.2018 00:13 9,3 °C 94 % 1023,1 hPa 0,0 mm 5,4 km/h (1 Bft) NW 317 ° 0 min 0,000 mm 0,0 UV-I 0 W/m² 8,4 °C 8,8 °C 9,7 km/h (2 Bft)
25.10.2018 00:14 9,3 °C 94 % 1023,1 hPa 0,0 mm 8,9 km/h (2 Bft) W-SW 252 ° 0 min 0,000 mm 0,0 UV-I 0 W/m² 8,4 °C 8,0 °C 12,9 km/h (3 Bft)
25.10.2018 00:15 9,3 °C 94 % 1023,1 hPa 0,0 mm 7,8 km/h (2 Bft) W-SW 250 ° 0 min 0,000 mm 0,0 UV-I 0 W/m² 8,4 °C 8,2 °C 16,1 km/h (3 Bft)
25.10.2018 00:16 9,3 °C 94 % 1023,0 hPa 0,0 mm 10,8 km/h (2 Bft) W 260 ° 0 min 0,000 mm 0,0 UV-I 0 W/m² 8,4 °C 7,7 °C 14,5 km/h (3 Bft)
25.10.2018 00:17 9,3 °C 94 % 1023,1 hPa 0,0 mm 6,8 km/h (2 Bft) W-SW 253 ° 0 min 0,000 mm 0,0 UV-I 0 W/m² 8,4 °C 8,5 °C 11,3 km/h (2 Bft)
25.10.2018 00:18 9,3 °C 94 % 1023,1 hPa 0,2 mm 11,4 km/h (2 Bft) W-NW 296 ° 0 min 0,000 mm 0,0 UV-I 0 W/m² 8,4 °C 7,6 °C 17,7 km/h (3 Bft)
25.10.2018 00:19 9,3 °C 94 % 1023,0 hPa 0,0 mm 8,4 km/h (2 Bft) W-SW 247 ° 0 min 0,000 mm 0,0 UV-I 0 W/m² 8,4 °C 8,1 °C 12,9 km/h (3 Bft)
25.10.2018 00:20 9,3 °C 94 % 1023,1 hPa 0,0 mm 7,0 km/h (2 Bft) W 274 ° 0 min 0,000 mm 0,0 UV-I 0 W/m² 8,4 °C 8,4 °C 11,3 km/h (2 Bft)
25.10.2018 00:21 9,3 °C 94 % 1023,1 hPa 0,0 mm 11,3 km/h (2 Bft) W 267 ° 0 min 0,000 mm 0,0 UV-I 0 W/m² 8,4 °C 7,6 °C 17,7 km/h (3 Bft)
25.10.2018 00:22 9,3 °C 94 % 1023,1 hPa 0,0 mm 14,4 km/h (3 Bft) W-NW 285 ° 0 min 0,000 mm 0,0 UV-I 0 W/m² 8,4 °C 7,1 °C 20,9 km/h (4 Bft)
25.10.2018 00:23 9,3 °C 94 % 1023,1 hPa 0,0 mm 9,9 km/h (2 Bft) W-SW 258 ° 0 min 0,000 mm 0,0 UV-I 0 W/m² 8,4 °C 7,8 °C 17,7 km/h (3 Bft)
25.10.2018 00:24 9,3 °C 94 % 1023,0 hPa 0,0 mm 11,9 km/h (2 Bft) W 267 ° 0 min 0,000 mm 0,0 UV-I 0 W/m² 8,4 °C 7,5 °C 17,7 km/h (3 Bft)
25.10.2018 00:25 9,3 °C 94 % 1023,0 hPa 0,0 mm 15,5 km/h (3 Bft) W 270 ° 0 min 0,000 mm 0,0 UV-I 0 W/m² 8,4 °C 7,0 °C 20,9 km/h (4 Bft)
25.10.2018 00:26 9,3 °C 94 % 1023,0 hPa 0,0 mm 6,8 km/h (2 Bft) W-NW 298 ° 0 min 0,000 mm 0,0 UV-I 0 W/m² 8,4 °C 8,5 °C 12,9 km/h (3 Bft)
25.10.2018 00:27 9,3 °C 94 % 1023,0 hPa 0,0 mm 9,3 km/h (2 Bft) W 281 ° 0 min 0,000 mm 0,0 UV-I 0 W/m² 8,4 °C 7,9 °C 11,3 km/h (2 Bft)
25.10.2018 00:28 9,3 °C 94 % 1023,0 hPa 0,0 mm 10,3 km/h (2 Bft) W-SW 254 ° 0 min 0,000 mm 0,0 UV-I 0 W/m² 8,4 °C 7,7 °C 19,3 km/h (3 Bft)
25.10.2018 00:29 9,3 °C 94 % 1023,0 hPa 0,0 mm 10,6 km/h (2 Bft) W 263 ° 0 min 0,000 mm 0,0 UV-I 0 W/m² 8,4 °C 7,7 °C 12,9 km/h (3 Bft)
25.10.2018 00:30 9,3 °C 94 % 1023,0 hPa 0,0 mm 6,6 km/h (2 Bft) SW 236 ° 0 min 0,000 mm 0,0 UV-I 0 W/m² 8,4 °C 8,5 °C 11,3 km/h (2 Bft)
25.10.2018 00:31 9,3 °C 94 % 1023,0 hPa 0,0 mm 7,2 km/h (2 Bft) W-SW 254 ° 0 min 0,000 mm 0,0 UV-I 0 W/m² 8,4 °C 8,4 °C 12,9 km/h (3 Bft)
25.10.2018 00:32 9,3 °C 94 % 1023,0 hPa 0,0 mm 7,6 km/h (2 Bft) W-SW 250 ° 0 min 0,000 mm 0,0 UV-I 0 W/m² 8,4 °C 8,3 °C 12,9 km/h (3 Bft)
25.10.2018 00:33 9,3 °C 94 % 1023,0 hPa 0,0 mm 9,7 km/h (2 Bft) W-NW 289 ° 0 min 0,000 mm 0,0 UV-I 0 W/m² 8,4 °C 7,8 °C 12,9 km/h (3 Bft)
25.10.2018 00:34 9,3 °C 94 % 1023,0 hPa 0,0 mm 6,1 km/h (2 Bft) W-NW 287 ° 0 min 0,000 mm 0,0 UV-I 0 W/m² 8,4 °C 8,6 °C 8,0 km/h (2 Bft)
25.10.2018 00:35 9,3 °C 94 % 1023,0 hPa 0,0 mm 9,8 km/h (2 Bft) W-SW 241 ° 0 min 0,000 mm 0,0 UV-I 0 W/m² 8,4 °C 7,8 °C 14,5 km/h (3 Bft)
25.10.2018 00:36 9,3 °C 94 % 1023,0 hPa 0,0 mm 11,7 km/h (2 Bft) W-SW 250 ° 0 min 0,000 mm 0,0 UV-I 0 W/m² 8,4 °C 7,5 °C 19,3 km/h (3 Bft)
25.10.2018 00:37 9,3 °C 94 % 1023,0 hPa 0,0 mm 14,3 km/h (3 Bft) NW 305 ° 0 min 0,000 mm 0,0 UV-I 0 W/m² 8,4 °C 7,1 °C 17,7 km/h (3 Bft)
25.10.2018 00:38 9,3 °C 94 % 1023,0 hPa 0,0 mm 12,1 km/h (2 Bft) W-NW 296 ° 0 min 0,000 mm 0,0 UV-I 0 W/m² 8,4 °C 7,5 °C 16,1 km/h (3 Bft)
25.10.2018 00:39 9,3 °C 94 % 1023,0 hPa 0,0 mm 11,3 km/h (2 Bft) W-NW 285 ° 0 min 0,000 mm 0,0 UV-I 0 W/m² 8,4 °C 7,6 °C 16,1 km/h (3 Bft)
25.10.2018 00:40 9,3 °C 94 % 1023,0 hPa 0,0 mm 9,9 km/h (2 Bft) W-SW 254 ° 0 min 0,000 mm 0,0 UV-I 0 W/m² 8,4 °C 7,8 °C 17,7 km/h (3 Bft)
25.10.2018 00:41 9,3 °C 94 % 1023,0 hPa 0,0 mm 14,5 km/h (3 Bft) W-NW 284 ° 0 min 0,000 mm 0,0 UV-I 0 W/m² 8,4 °C 7,1 °C 20,9 km/h (4 Bft)
25.10.2018 00:42 9,3 °C 94 % 1023,0 hPa 0,0 mm 8,0 km/h (2 Bft) W 263 ° 0 min 0,000 mm 0,0 UV-I 0 W/m² 8,4 °C 8,2 °C 17,7 km/h (3 Bft)
25.10.2018 00:43 9,3 °C 94 % 1023,0 hPa 0,0 mm 4,5 km/h (1 Bft) W 267 ° 0 min 0,000 mm 0,0 UV-I 0 W/m² 8,4 °C 9,3 °C 6,4 km/h (2 Bft)
25.10.2018 00:44 9,3 °C 94 % 1023,0 hPa 0,0 mm 10,8 km/h (2 Bft) W 275 ° 0 min 0,000 mm 0,0 UV-I 0 W/m² 8,4 °C 7,7 °C 14,5 km/h (3 Bft)
25.10.2018 00:45 9,3 °C 94 % 1023,0 hPa 0,0 mm 9,3 km/h (2 Bft) W-NW 299 ° 0 min 0,000 mm 0,0 UV-I 0 W/m² 8,4 °C 7,9 °C 14,5 km/h (3 Bft)
25.10.2018 00:46 9,3 °C 94 % 1023,0 hPa 0,0 mm 10,8 km/h (2 Bft) SW 232 ° 0 min 0,000 mm 0,0 UV-I 0 W/m² 8,4 °C 7,7 °C 14,5 km/h (3 Bft)
25.10.2018 00:47 9,3 °C 94 % 1023,0 hPa 0,0 mm 10,8 km/h (2 Bft) W 266 ° 0 min 0,000 mm 0,0 UV-I 0 W/m² 8,4 °C 7,7 °C 17,7 km/h (3 Bft)
25.10.2018 00:48 9,3 °C 94 % 1023,0 hPa 0,0 mm 12,6 km/h (3 Bft) W-NW 286 ° 0 min 0,000 mm 0,0 UV-I 0 W/m² 8,4 °C 7,4 °C 27,4 km/h (4 Bft)
25.10.2018 00:49 9,3 °C 94 % 1022,9 hPa 0,0 mm 9,3 km/h (2 Bft) W-SW 252 ° 0 min 0,000 mm 0,0 UV-I 0 W/m² 8,4 °C 7,9 °C 17,7 km/h (3 Bft)
25.10.2018 00:50 9,3 °C 94 % 1022,9 hPa 0,2 mm 12,5 km/h (3 Bft) W 265 ° 0 min 0,000 mm 0,0 UV-I 0 W/m² 8,4 °C 7,4 °C 17,7 km/h (3 Bft)
25.10.2018 00:51 9,3 °C 94 % 1023,0 hPa 0,0 mm 16,2 km/h (3 Bft) SW 226 ° 0 min 0,000 mm 0,0 UV-I 0 W/m² 8,4 °C 6,9 °C 24,1 km/h (4 Bft)
25.10.2018 00:52 9,3 °C 94 % 1023,0 hPa 0,0 mm 13,9 km/h (3 Bft) W 262 ° 0 min 0,000 mm 0,0 UV-I 0 W/m² 8,4 °C 7,2 °C 17,7 km/h (3 Bft)
25.10.2018 00:53 9,3 °C 94 % 1023,0 hPa 0,0 mm 9,1 km/h (2 Bft) W 263 ° 0 min 0,000 mm 0,0 UV-I 0 W/m² 8,4 °C 8,0 °C 16,1 km/h (3 Bft)
25.10.2018 00:54 9,3 °C 94 % 1023,0 hPa 0,0 mm 5,5 km/h (1 Bft) W 271 ° 0 min 0,000 mm 0,0 UV-I 0 W/m² 8,4 °C 8,8 °C 12,9 km/h (3 Bft)
25.10.2018 00:55 9,3 °C 94 % 1023,0 hPa 0,0 mm 10,6 km/h (2 Bft) W-NW 288 ° 0 min 0,000 mm 0,0 UV-I 0 W/m² 8,4 °C 7,7 °C 14,5 km/h (3 Bft)
25.10.2018 00:56 9,3 °C 94 % 1023,0 hPa 0,0 mm 11,3 km/h (2 Bft) W 268 ° 0 min 0,000 mm 0,0 UV-I 0 W/m² 8,4 °C 7,6 °C 17,7 km/h (3 Bft)
25.10.2018 00:57 9,3 °C 94 % 1023,0 hPa 0,0 mm 6,6 km/h (2 Bft) W 267 ° 0 min 0,000 mm 0,0 UV-I 0 W/m² 8,4 °C 8,5 °C 14,5 km/h (3 Bft)
25.10.2018 00:58 9,3 °C 94 % 1023,0 hPa 0,0 mm 9,0 km/h (2 Bft) W 281 ° 0 min 0,000 mm 0,0 UV-I 0 W/m² 8,4 °C 8,0 °C 12,9 km/h (3 Bft)
25.10.2018 00:59 9,3 °C 94 % 1023,0 hPa 0,0 mm 7,3 km/h (2 Bft) W 279 ° 0 min 0,000 mm 0,0 UV-I 0 W/m² 8,4 °C 8,3 °C 17,7 km/h (3 Bft)
25.10.2018 01:00 9,3 °C 94 % 1023,0 hPa 0,0 mm 7,2 km/h (2 Bft) W 269 ° 0 min 0,000 mm 0,0 UV-I 0 W/m² 8,4 °C 8,4 °C 12,9 km/h (3 Bft)
25.10.2018 01:01 9,3 °C 94 % 1023,0 hPa 0,0 mm 12,5 km/h (3 Bft) W-SW 248 ° 0 min 0,000 mm 0,0 UV-I 0 W/m² 8,4 °C 7,4 °C 19,3 km/h (3 Bft)
25.10.2018 01:02 9,3 °C 94 % 1023,0 hPa 0,0 mm 3,6 km/h (1 Bft) W-SW 254 ° 0 min 0,000 mm 0,0 UV-I 0 W/m² 8,4 °C 9,3 °C 4,8 km/h (1 Bft)
25.10.2018 01:03 9,3 °C 94 % 1023,0 hPa 0,0 mm 4,8 km/h (1 Bft) W-SW 250 ° 0 min 0,000 mm 0,0 UV-I 0 W/m² 8,4 °C 9,0 °C 8,0 km/h (2 Bft)
25.10.2018 01:04 9,3 °C 94 % 1023,0 hPa 0,0 mm 6,4 km/h (2 Bft) SW 236 ° 0 min 0,000 mm 0,0 UV-I 0 W/m² 8,4 °C 8,6 °C 9,7 km/h (2 Bft)
25.10.2018 01:05 9,3 °C 94 % 1023,0 hPa 0,0 mm 8,0 km/h (2 Bft) W-SW 252 ° 0 min 0,000 mm 0,0 UV-I 0 W/m² 8,4 °C 8,2 °C 14,5 km/h (3 Bft)
25.10.2018 01:06 9,3 °C 94 % 1023,0 hPa 0,0 mm 4,8 km/h (1 Bft) W 267 ° 0 min 0,000 mm 0,0 UV-I 0 W/m² 8,4 °C 9,0 °C 9,7 km/h (2 Bft)
25.10.2018 01:07 9,3 °C 94 % 1022,9 hPa 0,0 mm 9,8 km/h (2 Bft) W 275 ° 0 min 0,000 mm 0,0 UV-I 0 W/m² 8,4 °C 7,8 °C 12,9 km/h (3 Bft)
25.10.2018 01:08 9,3 °C 94 % 1022,9 hPa 0,0 mm 5,8 km/h (2 Bft) W-SW 251 ° 0 min 0,000 mm 0,0 UV-I 0 W/m² 8,4 °C 8,7 °C 9,7 km/h (2 Bft)
25.10.2018 01:09 9,3 °C 94 % 1022,9 hPa 0,0 mm 6,6 km/h (2 Bft) W-SW 257 ° 0 min 0,000 mm 0,0 UV-I 0 W/m² 8,4 °C 8,5 °C 9,7 km/h (2 Bft)
25.10.2018 01:10 9,3 °C 94 % 1022,9 hPa 0,0 mm 10,7 km/h (2 Bft) W 265 ° 0 min 0,000 mm 0,0 UV-I 0 W/m² 8,4 °C 7,7 °C 16,1 km/h (3 Bft)
25.10.2018 01:11 9,3 °C 94 % 1022,9 hPa 0,0 mm 11,4 km/h (2 Bft) W 268 ° 0 min 0,000 mm 0,0 UV-I 0 W/m² 8,4 °C 7,6 °C 16,1 km/h (3 Bft)
25.10.2018 01:12 9,3 °C 94 % 1022,9 hPa 0,0 mm 9,0 km/h (2 Bft) W-SW 245 ° 0 min 0,000 mm 0,0 UV-I 0 W/m² 8,4 °C 8,0 °C 14,5 km/h (3 Bft)
25.10.2018 01:13 9,3 °C 94 % 1022,9 hPa 0,0 mm 4,8 km/h (1 Bft) SW 234 ° 0 min 0,000 mm 0,0 UV-I 0 W/m² 8,4 °C 9,0 °C 8,0 km/h (2 Bft)
25.10.2018 01:14 9,3 °C 94 % 1023,0 hPa 0,0 mm 10,0 km/h (2 Bft) W-SW 256 ° 0 min 0,000 mm 0,0 UV-I 0 W/m² 8,4 °C 7,8 °C 19,3 km/h (3 Bft)
25.10.2018 01:15 9,3 °C 94 % 1023,0 hPa 0,0 mm 12,6 km/h (3 Bft) W-SW 253 ° 0 min 0,000 mm 0,0 UV-I 0 W/m² 8,4 °C 7,4 °C 20,9 km/h (4 Bft)
25.10.2018 01:16 9,3 °C 94 % 1023,0 hPa 0,0 mm 6,3 km/h (2 Bft) W 260 ° 0 min 0,000 mm 0,0 UV-I 0 W/m² 8,4 °C 8,6 °C 11,3 km/h (2 Bft)
25.10.2018 01:17 9,3 °C 94 % 1022,9 hPa 0,0 mm 6,0 km/h (2 Bft) W 278 ° 0 min 0,000 mm 0,0 UV-I 0 W/m² 8,4 °C 8,7 °C 11,3 km/h (2 Bft)
25.10.2018 01:18 9,3 °C 94 % 1022,9 hPa 0,0 mm 11,4 km/h (2 Bft) NW 309 ° 0 min 0,000 mm 0,0 UV-I 0 W/m² 8,4 °C 7,6 °C 16,1 km/h (3 Bft)
25.10.2018 01:19 9,3 °C 94 % 1022,9 hPa 0,0 mm 8,7 km/h (2 Bft) SW 217 ° 0 min 0,000 mm 0,0 UV-I 0 W/m² 8,4 °C 8,0 °C 16,1 km/h (3 Bft)
25.10.2018 01:20 9,3 °C 94 % 1022,9 hPa 0,0 mm 6,4 km/h (2 Bft) W 268 ° 0 min 0,000 mm 0,0 UV-I 0 W/m² 8,4 °C 8,6 °C 16,1 km/h (3 Bft)
25.10.2018 01:21 9,2 °C 94 % 1022,9 hPa 0,0 mm 16,1 km/h (3 Bft) W 267 ° 0 min 0,000 mm 0,0 UV-I 0 W/m² 8,3 °C 6,8 °C 20,9 km/h (4 Bft)
25.10.2018 01:22 9,2 °C 94 % 1022,9 hPa 0,0 mm 6,8 km/h (2 Bft) SW 236 ° 0 min 0,000 mm 0,0 UV-I 0 W/m² 8,3 °C 8,3 °C 14,5 km/h (3 Bft)
25.10.2018 01:23 9,2 °C 94 % 1022,9 hPa 0,0 mm 6,4 km/h (2 Bft) SW 225 ° 0 min 0,000 mm 0,0 UV-I 0 W/m² 8,3 °C 8,4 °C 12,9 km/h (3 Bft)
25.10.2018 01:24 9,3 °C 94 % 1022,9 hPa 0,0 mm 8,0 km/h (2 Bft) W-SW 257 ° 0 min 0,000 mm 0,0 UV-I 0 W/m² 8,4 °C 8,2 °C 20,9 km/h (4 Bft)
25.10.2018 01:25 9,3 °C 94 % 1022,9 hPa 0,0 mm 10,7 km/h (2 Bft) W-SW 238 ° 0 min 0,000 mm 0,0 UV-I 0 W/m² 8,4 °C 7,7 °C 14,5 km/h (3 Bft)
25.10.2018 01:26 9,3 °C 94 % 1022,9 hPa 0,0 mm 11,5 km/h (2 Bft) W 263 ° 0 min 0,000 mm 0,0 UV-I 0 W/m² 8,4 °C 7,5 °C 16,1 km/h (3 Bft)
25.10.2018 01:27 9,2 °C 94 % 1022,9 hPa 0,0 mm 9,9 km/h (2 Bft) W-NW 285 ° 0 min 0,000 mm 0,0 UV-I 0 W/m² 8,3 °C 7,7 °C 16,1 km/h (3 Bft)
25.10.2018 01:28 9,2 °C 94 % 1022,8 hPa 0,0 mm 8,9 km/h (2 Bft) W 266 ° 0 min 0,000 mm 0,0 UV-I 0 W/m² 8,3 °C 7,9 °C 16,1 km/h (3 Bft)
25.10.2018 01:29 9,2 °C 94 % 1022,8 hPa 0,0 mm 8,2 km/h (2 Bft) W 269 ° 0 min 0,000 mm 0,0 UV-I 0 W/m² 8,3 °C 8,0 °C 11,3 km/h (2 Bft)
25.10.2018 01:30 9,2 °C 94 % 1022,8 hPa 0,0 mm 5,6 km/h (1 Bft) W-SW 253 ° 0 min 0,000 mm 0,0 UV-I 0 W/m² 8,3 °C 8,7 °C 11,3 km/h (2 Bft)
25.10.2018 01:31 9,2 °C 94 % 1022,8 hPa 0,0 mm 4,9 km/h (1 Bft) W-NW 300 ° 0 min 0,000 mm 0,0 UV-I 0 W/m² 8,3 °C 8,9 °C 11,3 km/h (2 Bft)
25.10.2018 01:32 9,2 °C 94 % 1022,8 hPa 0,0 mm 5,6 km/h (1 Bft) W 263 ° 0 min 0,000 mm 0,0 UV-I 0 W/m² 8,3 °C 8,7 °C 14,5 km/h (3 Bft)
25.10.2018 01:33 9,2 °C 94 % 1022,7 hPa 0,0 mm 4,9 km/h (1 Bft) W 262 ° 0 min 0,000 mm 0,0 UV-I 0 W/m² 8,3 °C 8,9 °C 12,9 km/h (3 Bft)
25.10.2018 01:34 9,2 °C 94 % 1022,8 hPa 0,0 mm 6,7 km/h (2 Bft) W-SW 250 ° 0 min 0,000 mm 0,0 UV-I 0 W/m² 8,3 °C 8,4 °C 12,9 km/h (3 Bft)
25.10.2018 01:35 9,2 °C 94 % 1022,8 hPa 0,0 mm 11,1 km/h (2 Bft) SW 234 ° 0 min 0,000 mm 0,0 UV-I 0 W/m² 8,3 °C 7,5 °C 16,1 km/h (3 Bft)
25.10.2018 01:36 9,2 °C 94 % 1022,8 hPa 0,0 mm 9,2 km/h (2 Bft) W-SW 254 ° 0 min 0,000 mm 0,0 UV-I 0 W/m² 8,3 °C 7,8 °C 14,5 km/h (3 Bft)
25.10.2018 01:37 9,2 °C 94 % 1022,7 hPa 0,0 mm 10,6 km/h (2 Bft) W-SW 256 ° 0 min 0,000 mm 0,0 UV-I 0 W/m² 8,3 °C 7,6 °C 14,5 km/h (3 Bft)
25.10.2018 01:38 9,2 °C 94 % 1022,7 hPa 0,0 mm 9,8 km/h (2 Bft) W-SW 242 ° 0 min 0,000 mm 0,0 UV-I 0 W/m² 8,3 °C 7,7 °C 12,9 km/h (3 Bft)
25.10.2018 01:39 9,2 °C 94 % 1022,7 hPa 0,0 mm 12,2 km/h (2 Bft) W-NW 283 ° 0 min 0,000 mm 0,0 UV-I 0 W/m² 8,3 °C 7,3 °C 20,9 km/h (4 Bft)
25.10.2018 01:40 9,2 °C 94 % 1022,7 hPa 0,0 mm 8,9 km/h (2 Bft) W 264 ° 0 min 0,000 mm 0,0 UV-I 0 W/m² 8,3 °C 7,9 °C 19,3 km/h (3 Bft)
25.10.2018 01:41 9,2 °C 94 % 1022,7 hPa 0,0 mm 12,7 km/h (3 Bft) W 263 ° 0 min 0,000 mm 0,0 UV-I 0 W/m² 8,3 °C 7,2 °C 16,1 km/h (3 Bft)
25.10.2018 01:42 9,2 °C 94 % 1022,7 hPa 0,0 mm 11,9 km/h (2 Bft) W 261 ° 0 min 0,000 mm 0,0 UV-I 0 W/m² 8,3 °C 7,4 °C 17,7 km/h (3 Bft)
25.10.2018 01:43 9,2 °C 94 % 1022,7 hPa 0,0 mm 9,7 km/h (2 Bft) W-SW 252 ° 0 min 0,000 mm 0,0 UV-I 0 W/m² 8,3 °C 7,7 °C 14,5 km/h (3 Bft)
25.10.2018 01:44 9,2 °C 94 % 1022,7 hPa 0,0 mm 6,4 km/h (2 Bft) W-NW 298 ° 0 min 0,000 mm 0,0 UV-I 0 W/m² 8,3 °C 8,4 °C 11,3 km/h (2 Bft)
25.10.2018 01:45 9,2 °C 94 % 1022,7 hPa 0,0 mm 6,5 km/h (2 Bft) W 264 ° 0 min 0,000 mm 0,0 UV-I 0 W/m² 8,3 °C 8,4 °C 11,3 km/h (2 Bft)
25.10.2018 01:46 9,2 °C 94 % 1022,7 hPa 0,0 mm 13,3 km/h (3 Bft) W-NW 288 ° 0 min 0,000 mm 0,0 UV-I 0 W/m² 8,3 °C 7,2 °C 16,1 km/h (3 Bft)
25.10.2018 01:47 9,2 °C 94 % 1022,7 hPa 0,0 mm 13,5 km/h (3 Bft) W 264 ° 0 min 0,000 mm 0,0 UV-I 0 W/m² 8,3 °C 7,1 °C 22,5 km/h (4 Bft)
25.10.2018 01:48 9,2 °C 94 % 1022,7 hPa 0,0 mm 7,8 km/h (2 Bft) W-SW 250 ° 0 min 0,000 mm 0,0 UV-I 0 W/m² 8,3 °C 8,1 °C 11,3 km/h (2 Bft)
25.10.2018 01:49 9,2 °C 94 % 1022,7 hPa 0,0 mm 10,5 km/h (2 Bft) W-SW 258 ° 0 min 0,000 mm 0,0 UV-I 0 W/m² 8,3 °C 7,6 °C 14,5 km/h (3 Bft)
25.10.2018 01:50 9,3 °C 94 % 1022,7 hPa 0,0 mm 10,7 km/h (2 Bft) SW 222 ° 0 min 0,000 mm 0,0 UV-I 0 W/m² 8,4 °C 7,7 °C 19,3 km/h (3 Bft)
25.10.2018 01:51 9,2 °C 94 % 1022,7 hPa 0,0 mm 6,0 km/h (2 Bft) W 273 ° 0 min 0,000 mm 0,0 UV-I 0 W/m² 8,3 °C 8,6 °C 9,7 km/h (2 Bft)
25.10.2018 01:52 9,2 °C 94 % 1022,7 hPa 0,0 mm 6,9 km/h (2 Bft) SW 231 ° 0 min 0,000 mm 0,0 UV-I 0 W/m² 8,3 °C 8,3 °C 11,3 km/h (2 Bft)
25.10.2018 01:53 9,2 °C 94 % 1022,6 hPa 0,0 mm 8,4 km/h (2 Bft) W-NW 299 ° 0 min 0,000 mm 0,0 UV-I 0 W/m² 8,3 °C 8,0 °C 11,3 km/h (2 Bft)
25.10.2018 01:54 9,2 °C 94 % 1022,6 hPa 0,0 mm 6,2 km/h (2 Bft) W 271 ° 0 min 0,000 mm 0,0 UV-I 0 W/m² 8,3 °C 8,5 °C 9,7 km/h (2 Bft)
25.10.2018 01:55 9,2 °C 94 % 1022,6 hPa 0,0 mm 4,6 km/h (1 Bft) W 270 ° 0 min 0,000 mm 0,0 UV-I 0 W/m² 8,3 °C 9,0 °C 11,3 km/h (2 Bft)
25.10.2018 01:56 9,2 °C 94 % 1022,6 hPa 0,0 mm 9,2 km/h (2 Bft) W-SW 246 ° 0 min 0,000 mm 0,0 UV-I 0 W/m² 8,3 °C 7,8 °C 14,5 km/h (3 Bft)
25.10.2018 01:57 9,2 °C 94 % 1022,7 hPa 0,0 mm 5,2 km/h (1 Bft) W 267 ° 0 min 0,000 mm 0,0 UV-I 0 W/m² 8,3 °C 8,8 °C 9,7 km/h (2 Bft)
25.10.2018 01:58 9,2 °C 94 % 1022,6 hPa 0,0 mm 6,0 km/h (2 Bft) W 261 ° 0 min 0,000 mm 0,0 UV-I 0 W/m² 8,3 °C 8,6 °C 9,7 km/h (2 Bft)
25.10.2018 01:59 9,2 °C 94 % 1022,6 hPa 0,0 mm 6,0 km/h (2 Bft) W 281 ° 0 min 0,000 mm 0,0 UV-I 0 W/m² 8,3 °C 8,6 °C 11,3 km/h (2 Bft)
25.10.2018 02:00 9,2 °C 94 % 1022,6 hPa 0,0 mm 5,0 km/h (1 Bft) W 271 ° 0 min 0,000 mm 0,0 UV-I 0 W/m² 8,3 °C 8,8 °C 6,4 km/h (2 Bft)
25.10.2018 02:01 9,2 °C 94 % 1022,6 hPa 0,0 mm 3,8 km/h (1 Bft) W 273 ° 0 min 0,000 mm 0,0 UV-I 0 W/m² 8,3 °C 9,2 °C 6,4 km/h (2 Bft)
25.10.2018 02:02 9,2 °C 94 % 1022,5 hPa 0,0 mm 4,5 km/h (1 Bft) W-SW 252 ° 0 min 0,000 mm 0,0 UV-I 0 W/m² 8,3 °C 9,2 °C 12,9 km/h (3 Bft)
25.10.2018 02:03 9,2 °C 94 % 1022,5 hPa 0,0 mm 6,9 km/h (2 Bft) W-SW 249 ° 0 min 0,000 mm 0,0 UV-I 0 W/m² 8,3 °C 8,3 °C 9,7 km/h (2 Bft)
25.10.2018 02:04 9,2 °C 94 % 1022,5 hPa 0,0 mm 5,2 km/h (1 Bft) W 277 ° 0 min 0,000 mm 0,0 UV-I 0 W/m² 8,3 °C 8,8 °C 9,7 km/h (2 Bft)
25.10.2018 02:05 9,2 °C 94 % 1022,5 hPa 0,0 mm 2,1 km/h (1 Bft) W-SW 255 ° 0 min 0,000 mm 0,0 UV-I 0 W/m² 8,3 °C 9,2 °C 4,8 km/h (1 Bft)
25.10.2018 02:06 9,2 °C 94 % 1022,5 hPa 0,0 mm 3,7 km/h (1 Bft) W-SW 257 ° 0 min 0,000 mm 0,0 UV-I 0 W/m² 8,3 °C 9,2 °C 9,7 km/h (2 Bft)
25.10.2018 02:07 9,2 °C 94 % 1022,5 hPa 0,0 mm 4,0 km/h (1 Bft) W-SW 256 ° 0 min 0,000 mm 0,0 UV-I 0 W/m² 8,3 °C 9,2 °C 12,9 km/h (3 Bft)
25.10.2018 02:08 9,2 °C 94 % 1022,4 hPa 0,0 mm 7,3 km/h (2 Bft) W 277 ° 0 min 0,000 mm 0,0 UV-I 0 W/m² 8,3 °C 8,2 °C 12,9 km/h (3 Bft)
25.10.2018 02:09 9,2 °C 94 % 1022,4 hPa 0,0 mm 6,8 km/h (2 Bft) W-NW 300 ° 0 min 0,000 mm 0,0 UV-I 0 W/m² 8,3 °C 8,3 °C 11,3 km/h (2 Bft)
25.10.2018 02:10 9,2 °C 94 % 1022,4 hPa 0,0 mm 4,5 km/h (1 Bft) W 278 ° 0 min 0,000 mm 0,0 UV-I 0 W/m² 8,3 °C 9,2 °C 6,4 km/h (2 Bft)
25.10.2018 02:11 9,2 °C 94 % 1022,4 hPa 0,0 mm 6,2 km/h (2 Bft) W-SW 254 ° 0 min 0,000 mm 0,0 UV-I 0 W/m² 8,3 °C 8,5 °C 9,7 km/h (2 Bft)
25.10.2018 02:12 9,2 °C 94 % 1022,4 hPa 0,0 mm 9,5 km/h (2 Bft) W-SW 257 ° 0 min 0,000 mm 0,0 UV-I 0 W/m² 8,3 °C 7,8 °C 16,1 km/h (3 Bft)
25.10.2018 02:13 9,2 °C 94 % 1022,4 hPa 0,0 mm 8,7 km/h (2 Bft) SW 225 ° 0 min 0,000 mm 0,0 UV-I 0 W/m² 8,3 °C 7,9 °C 12,9 km/h (3 Bft)
25.10.2018 02:14 9,2 °C 94 % 1022,4 hPa 0,0 mm 3,8 km/h (1 Bft) W-SW 250 ° 0 min 0,000 mm 0,0 UV-I 0 W/m² 8,3 °C 9,2 °C 9,7 km/h (2 Bft)
25.10.2018 02:15 9,2 °C 94 % 1022,4 hPa 0,0 mm 1,9 km/h (1 Bft) W-SW 253 ° 0 min 0,000 mm 0,0 UV-I 0 W/m² 8,3 °C 9,2 °C 3,2 km/h (1 Bft)
25.10.2018 02:16 9,2 °C 94 % 1022,4 hPa 0,0 mm 5,7 km/h (1 Bft) W-NW 283 ° 0 min 0,000 mm 0,0 UV-I 0 W/m² 8,3 °C 8,6 °C 11,3 km/h (2 Bft)
25.10.2018 02:17 9,2 °C 94 % 1022,4 hPa 0,0 mm 4,7 km/h (1 Bft) W 261 ° 0 min 0,000 mm 0,0 UV-I 0 W/m² 8,3 °C 8,9 °C 6,4 km/h (2 Bft)
25.10.2018 02:18 9,2 °C 94 % 1022,4 hPa 0,0 mm 6,7 km/h (2 Bft) W-SW 248 ° 0 min 0,000 mm 0,0 UV-I 0 W/m² 8,3 °C 8,4 °C 11,3 km/h (2 Bft)
25.10.2018 02:19 9,2 °C 94 % 1022,3 hPa 0,0 mm 3,9 km/h (1 Bft) W-SW 257 ° 0 min 0,000 mm 0,0 UV-I 0 W/m² 8,3 °C 9,2 °C 6,4 km/h (2 Bft)
25.10.2018 02:20 9,2 °C 94 % 1022,3 hPa 0,0 mm 6,8 km/h (2 Bft) W-SW 248 ° 0 min 0,000 mm 0,0 UV-I 0 W/m² 8,3 °C 8,3 °C 11,3 km/h (2 Bft)
25.10.2018 02:21 9,2 °C 94 % 1022,2 hPa 0,0 mm 9,7 km/h (2 Bft) SW 216 ° 0 min 0,000 mm 0,0 UV-I 0 W/m² 8,3 °C 7,7 °C 12,9 km/h (3 Bft)
25.10.2018 02:22 9,2 °C 94 % 1022,3 hPa 0,0 mm 3,7 km/h (1 Bft) W 263 ° 0 min 0,000 mm 0,0 UV-I 0 W/m² 8,3 °C 9,2 °C 9,7 km/h (2 Bft)
25.10.2018 02:23 9,2 °C 94 % 1022,3 hPa 0,0 mm 9,5 km/h (2 Bft) W 278 ° 0 min 0,000 mm 0,0 UV-I 0 W/m² 8,3 °C 7,8 °C 14,5 km/h (3 Bft)
25.10.2018 02:24 9,2 °C 94 % 1022,3 hPa 0,0 mm 11,1 km/h (2 Bft) W 259 ° 0 min 0,000 mm 0,0 UV-I 0 W/m² 8,3 °C 7,5 °C 20,9 km/h (4 Bft)
25.10.2018 02:25 9,2 °C 94 % 1022,2 hPa 0,0 mm 9,1 km/h (2 Bft) W 259 ° 0 min 0,000 mm 0,0 UV-I 0 W/m² 8,3 °C 7,8 °C 16,1 km/h (3 Bft)
25.10.2018 02:26 9,2 °C 94 % 1022,3 hPa 0,0 mm 10,2 km/h (2 Bft) W-SW 258 ° 0 min 0,000 mm 0,0 UV-I 0 W/m² 8,3 °C 7,6 °C 14,5 km/h (3 Bft)
25.10.2018 02:27 9,2 °C 94 % 1022,3 hPa 0,0 mm 5,4 km/h (1 Bft) SW 235 ° 0 min 0,000 mm 0,0 UV-I 0 W/m² 8,3 °C 8,7 °C 11,3 km/h (2 Bft)
25.10.2018 02:28 9,2 °C 94 % 1022,2 hPa 0,0 mm 8,0 km/h (2 Bft) W-NW 285 ° 0 min 0,000 mm 0,0 UV-I 0 W/m² 8,3 °C 8,1 °C 11,3 km/h (2 Bft)
25.10.2018 02:29 9,2 °C 94 % 1022,3 hPa 0,0 mm 9,4 km/h (2 Bft) W-SW 255 ° 0 min 0,000 mm 0,0 UV-I 0 W/m² 8,3 °C 7,8 °C 14,5 km/h (3 Bft)
25.10.2018 02:30 9,2 °C 94 % 1022,2 hPa 0,0 mm 5,8 km/h (2 Bft) W-SW 248 ° 0 min 0,000 mm 0,0 UV-I 0 W/m² 8,3 °C 8,6 °C 11,3 km/h (2 Bft)
25.10.2018 02:31 9,2 °C 94 % 1022,2 hPa 0,0 mm 3,8 km/h (1 Bft) W 264 ° 0 min 0,000 mm 0,0 UV-I 0 W/m² 8,3 °C 9,2 °C 4,8 km/h (1 Bft)
25.10.2018 02:32 9,2 °C 94 % 1022,2 hPa 0,0 mm 6,2 km/h (2 Bft) W 259 ° 0 min 0,000 mm 0,0 UV-I 0 W/m² 8,3 °C 8,5 °C 11,3 km/h (2 Bft)
25.10.2018 02:33 9,2 °C 94 % 1022,2 hPa 0,0 mm 4,4 km/h (1 Bft) W 261 ° 0 min 0,000 mm 0,0 UV-I 0 W/m² 8,3 °C 9,2 °C 9,7 km/h (2 Bft)
25.10.2018 02:34 9,2 °C 94 % 1022,2 hPa 0,0 mm 4,3 km/h (1 Bft) W 263 ° 0 min 0,000 mm 0,0 UV-I 0 W/m² 8,3 °C 9,2 °C 6,4 km/h (2 Bft)
25.10.2018 02:35 9,2 °C 94 % 1022,2 hPa 0,0 mm 4,6 km/h (1 Bft) W 261 ° 0 min 0,000 mm 0,0 UV-I 0 W/m² 8,3 °C 9,0 °C 9,7 km/h (2 Bft)
25.10.2018 02:36 9,2 °C 94 % 1022,2 hPa 0,0 mm 2,1 km/h (1 Bft) W 263 ° 0 min 0,000 mm 0,0 UV-I 0 W/m² 8,3 °C 9,2 °C 6,4 km/h (2 Bft)
25.10.2018 02:37 9,2 °C 94 % 1022,1 hPa 0,0 mm 2,9 km/h (1 Bft) W-SW 257 ° 0 min 0,000 mm 0,0 UV-I 0 W/m² 8,3 °C 9,2 °C 6,4 km/h (2 Bft)
25.10.2018 02:38 9,2 °C 94 % 1022,1 hPa 0,0 mm 1,5 km/h (1 Bft) W-SW 246 ° 0 min 0,000 mm 0,0 UV-I 0 W/m² 8,3 °C 9,2 °C 3,2 km/h (1 Bft)
25.10.2018 02:39 9,2 °C 94 % 1022,1 hPa 0,0 mm 5,3 km/h (1 Bft) SW 228 ° 0 min 0,000 mm 0,0 UV-I 0 W/m² 8,3 °C 8,8 °C 9,7 km/h (2 Bft)
25.10.2018 02:40 9,2 °C 94 % 1022,1 hPa 0,0 mm 3,0 km/h (1 Bft) SW 230 ° 0 min 0,000 mm 0,0 UV-I 0 W/m² 8,3 °C 9,2 °C 6,4 km/h (2 Bft)
25.10.2018 02:41 9,2 °C 94 % 1022,2 hPa 0,0 mm 1,9 km/h (1 Bft) W 269 ° 0 min 0,000 mm 0,0 UV-I 0 W/m² 8,3 °C 9,2 °C 4,8 km/h (1 Bft)
25.10.2018 02:42 9,2 °C 94 % 1022,2 hPa 0,0 mm 2,4 km/h (1 Bft) W 265 ° 0 min 0,000 mm 0,0 UV-I 0 W/m² 8,3 °C 9,2 °C 4,8 km/h (1 Bft)
25.10.2018 02:43 9,2 °C 94 % 1022,1 hPa 0,0 mm 0,1 km/h (0 Bft) W 265 ° 0 min 0,000 mm 0,0 UV-I 0 W/m² 8,3 °C 9,2 °C 1,6 km/h (1 Bft)
25.10.2018 02:44 9,2 °C 94 % 1022,1 hPa 0,0 mm 2,5 km/h (1 Bft) SW 221 ° 0 min 0,000 mm 0,0 UV-I 0 W/m² 8,3 °C 9,2 °C 8,0 km/h (2 Bft)
25.10.2018 02:45 9,2 °C 94 % 1022,1 hPa 0,0 mm 2,7 km/h (1 Bft) S-SW 213 ° 0 min 0,000 mm 0,0 UV-I 0 W/m² 8,3 °C 9,2 °C 4,8 km/h (1 Bft)
25.10.2018 02:46 9,2 °C 94 % 1022,1 hPa 0,0 mm 3,7 km/h (1 Bft) W-SW 246 ° 0 min 0,000 mm 0,0 UV-I 0 W/m² 8,3 °C 9,2 °C 6,4 km/h (2 Bft)
25.10.2018 02:47 9,2 °C 94 % 1022,1 hPa 0,0 mm 4,8 km/h (1 Bft) W-SW 258 ° 0 min 0,000 mm 0,0 UV-I 0 W/m² 8,3 °C 8,9 °C 9,7 km/h (2 Bft)
25.10.2018 02:48 9,2 °C 94 % 1022,1 hPa 0,0 mm 3,8 km/h (1 Bft) W-SW 240 ° 0 min 0,000 mm 0,0 UV-I 0 W/m² 8,3 °C 9,2 °C 6,4 km/h (2 Bft)
25.10.2018 02:49 9,2 °C 94 % 1022,1 hPa 0,0 mm 4,2 km/h (1 Bft) S 185 ° 0 min 0,000 mm 0,0 UV-I 0 W/m² 8,3 °C 9,2 °C 6,4 km/h (2 Bft)
25.10.2018 02:50 9,2 °C 94 % 1022,1 hPa 0,0 mm 4,8 km/h (1 Bft) W-SW 250 ° 0 min 0,000 mm 0,0 UV-I 0 W/m² 8,3 °C 8,9 °C 9,7 km/h (2 Bft)
25.10.2018 02:51 9,2 °C 94 % 1022,1 hPa 0,0 mm 3,5 km/h (1 Bft) S-SW 198 ° 0 min 0,000 mm 0,0 UV-I 0 W/m² 8,3 °C 9,2 °C 6,4 km/h (2 Bft)
25.10.2018 02:52 9,2 °C 94 % 1022,0 hPa 0,0 mm 3,0 km/h (1 Bft) W 269 ° 0 min 0,000 mm 0,0 UV-I 0 W/m² 8,3 °C 9,2 °C 4,8 km/h (1 Bft)
25.10.2018 02:53 9,2 °C 94 % 1022,0 hPa 0,0 mm 4,6 km/h (1 Bft) W-SW 245 ° 0 min 0,000 mm 0,0 UV-I 0 W/m² 8,3 °C 9,0 °C 8,0 km/h (2 Bft)
25.10.2018 02:54 9,2 °C 93 % 1022,0 hPa 0,2 mm 0,9 km/h (0 Bft) W-SW 245 ° 0 min 0,000 mm 0,0 UV-I 0 W/m² 8,1 °C 9,2 °C 3,2 km/h (1 Bft)
25.10.2018 02:55 9,3 °C 93 % 1022,0 hPa 0,0 mm 2,6 km/h (1 Bft) W-SW 246 ° 0 min 0,000 mm 0,0 UV-I 0 W/m² 8,2 °C 9,3 °C 6,4 km/h (2 Bft)
25.10.2018 02:56 9,2 °C 93 % 1022,0 hPa 0,0 mm 1,7 km/h (1 Bft) SW 221 ° 0 min 0,000 mm 0,0 UV-I 0 W/m² 8,1 °C 9,2 °C 3,2 km/h (1 Bft)
25.10.2018 02:57 9,3 °C 93 % 1022,0 hPa 0,0 mm 3,6 km/h (1 Bft) W 270 ° 0 min 0,000 mm 0,0 UV-I 0 W/m² 8,2 °C 9,3 °C 6,4 km/h (2 Bft)
25.10.2018 02:58 9,2 °C 93 % 1022,0 hPa 0,0 mm 1,9 km/h (1 Bft) W 269 ° 0 min 0,000 mm 0,0 UV-I 0 W/m² 8,1 °C 9,2 °C 4,8 km/h (1 Bft)
25.10.2018 02:59 9,3 °C 93 % 1022,0 hPa 0,0 mm 1,8 km/h (1 Bft) W 266 ° 0 min 0,000 mm 0,0 UV-I 0 W/m² 8,2 °C 9,3 °C 6,4 km/h (2 Bft)
25.10.2018 03:00 9,2 °C 93 % 1022,0 hPa 0,0 mm 5,1 km/h (1 Bft) W 260 ° 0 min 0,000 mm 0,0 UV-I 0 W/m² 8,1 °C 8,8 °C 12,9 km/h (3 Bft)
25.10.2018 03:01 9,3 °C 93 % 1022,0 hPa 0,0 mm 1,8 km/h (1 Bft) W 260 ° 0 min 0,000 mm 0,0 UV-I 0 W/m² 8,2 °C 9,3 °C 3,2 km/h (1 Bft)
25.10.2018 03:02 9,3 °C 93 % 1021,9 hPa 0,0 mm 1,5 km/h (1 Bft) W 260 ° 0 min 0,000 mm 0,0 UV-I 0 W/m² 8,2 °C 9,3 °C 3,2 km/h (1 Bft)
25.10.2018 03:03 9,3 °C 93 % 1022,0 hPa 0,0 mm 0,1 km/h (0 Bft) W 260 ° 0 min 0,000 mm 0,0 UV-I 0 W/m² 8,2 °C 9,3 °C 1,6 km/h (1 Bft)
25.10.2018 03:04 9,2 °C 93 % 1022,0 hPa 0,0 mm 0,5 km/h (0 Bft) W 260 ° 0 min 0,000 mm 0,0 UV-I 0 W/m² 8,1 °C 9,2 °C 3,2 km/h (1 Bft)
25.10.2018 03:05 9,2 °C 93 % 1021,9 hPa 0,0 mm 0,0 km/h (0 Bft) W 260 ° 0 min 0,000 mm 0,0 UV-I 0 W/m² 8,1 °C 9,2 °C 0,0 km/h (0 Bft)
25.10.2018 03:06 9,2 °C 93 % 1021,9 hPa 0,0 mm 0,0 km/h (0 Bft) W 260 ° 0 min 0,000 mm 0,0 UV-I 0 W/m² 8,1 °C 9,2 °C 0,0 km/h (0 Bft)
25.10.2018 03:07 9,2 °C 93 % 1021,9 hPa 0,0 mm 0,2 km/h (0 Bft) W 260 ° 0 min 0,000 mm 0,0 UV-I 0 W/m² 8,1 °C 9,2 °C 1,6 km/h (1 Bft)
25.10.2018 03:08 9,2 °C 93 % 1021,9 hPa 0,0 mm 0,2 km/h (0 Bft) W 260 ° 0 min 0,000 mm 0,0 UV-I 0 W/m² 8,1 °C 9,2 °C 1,6 km/h (1 Bft)
25.10.2018 03:09 9,2 °C 93 % 1021,9 hPa 0,0 mm 0,0 km/h (0 Bft) W 260 ° 0 min 0,000 mm 0,0 UV-I 0 W/m² 8,1 °C 9,2 °C 0,0 km/h (0 Bft)
25.10.2018 03:10 9,2 °C 93 % 1021,9 hPa 0,0 mm 0,0 km/h (0 Bft) W 260 ° 0 min 0,000 mm 0,0 UV-I 0 W/m² 8,1 °C 9,2 °C 0,0 km/h (0 Bft)
25.10.2018 03:11 9,2 °C 93 % 1021,8 hPa 0,0 mm 0,2 km/h (0 Bft) W 259 ° 0 min 0,000 mm 0,0 UV-I 0 W/m² 8,1 °C 9,2 °C 1,6 km/h (1 Bft)
25.10.2018 03:12 9,2 °C 94 % 1021,8 hPa 0,0 mm 0,2 km/h (0 Bft) W 259 ° 0 min 0,000 mm 0,0 UV-I 0 W/m² 8,3 °C 9,2 °C 1,6 km/h (1 Bft)
25.10.2018 03:13 9,2 °C 94 % 1021,8 hPa 0,0 mm 0,8 km/h (0 Bft) W 259 ° 0 min 0,000 mm 0,0 UV-I 0 W/m² 8,3 °C 9,2 °C 3,2 km/h (1 Bft)
25.10.2018 03:14 9,2 °C 94 % 1021,8 hPa 0,0 mm 0,0 km/h (0 Bft) W 259 ° 0 min 0,000 mm 0,0 UV-I 0 W/m² 8,3 °C 9,2 °C 0,0 km/h (0 Bft)
25.10.2018 03:15 9,2 °C 94 % 1021,7 hPa 0,0 mm 0,0 km/h (0 Bft) W 259 ° 0 min 0,000 mm 0,0 UV-I 0 W/m² 8,3 °C 9,2 °C 0,0 km/h (0 Bft)
25.10.2018 03:16 9,1 °C 94 % 1021,7 hPa 0,0 mm 0,1 km/h (0 Bft) W 259 ° 0 min 0,000 mm 0,0 UV-I 0 W/m² 8,2 °C 9,1 °C 1,6 km/h (1 Bft)
25.10.2018 03:17 9,1 °C 94 % 1021,6 hPa 0,0 mm 0,0 km/h (0 Bft) W 259 ° 0 min 0,000 mm 0,0 UV-I 0 W/m² 8,2 °C 9,1 °C 0,0 km/h (0 Bft)
25.10.2018 03:18 9,1 °C 94 % 1021,6 hPa 0,0 mm 0,0 km/h (0 Bft) W 259 ° 0 min 0,000 mm 0,0 UV-I 0 W/m² 8,2 °C 9,1 °C 0,0 km/h (0 Bft)
25.10.2018 03:19 9,1 °C 94 % 1021,6 hPa 0,0 mm 0,0 km/h (0 Bft) W 259 ° 0 min 0,000 mm 0,0 UV-I 0 W/m² 8,2 °C 9,1 °C 0,0 km/h (0 Bft)
25.10.2018 03:20 9,1 °C 94 % 1021,6 hPa 0,0 mm 0,0 km/h (0 Bft) W 259 ° 0 min 0,000 mm 0,0 UV-I 0 W/m² 8,2 °C 9,1 °C 0,0 km/h (0 Bft)
25.10.2018 03:21 9,1 °C 94 % 1021,6 hPa 0,0 mm 0,0 km/h (0 Bft) W 259 ° 0 min 0,000 mm 0,0 UV-I 0 W/m² 8,2 °C 9,1 °C 0,0 km/h (0 Bft)
25.10.2018 03:22 9,1 °C 94 % 1021,6 hPa 0,0 mm 0,0 km/h (0 Bft) W 259 ° 0 min 0,000 mm 0,0 UV-I 0 W/m² 8,2 °C 9,1 °C 0,0 km/h (0 Bft)
25.10.2018 03:23 9,1 °C 94 % 1021,6 hPa 0,0 mm 0,0 km/h (0 Bft) W 259 ° 0 min 0,000 mm 0,0 UV-I 0 W/m² 8,2 °C 9,1 °C 0,0 km/h (0 Bft)
25.10.2018 03:24 9,1 °C 94 % 1021,6 hPa 0,0 mm 0,0 km/h (0 Bft) W 259 ° 0 min 0,000 mm 0,0 UV-I 0 W/m² 8,2 °C 9,1 °C 0,0 km/h (0 Bft)
25.10.2018 03:25 9,1 °C 94 % 1021,5 hPa 0,0 mm 0,0 km/h (0 Bft) W 259 ° 0 min 0,000 mm 0,0 UV-I 0 W/m² 8,2 °C 9,1 °C 0,0 km/h (0 Bft)
25.10.2018 03:26 9,1 °C 94 % 1021,5 hPa 0,0 mm 0,6 km/h (0 Bft) W 259 ° 0 min 0,000 mm 0,0 UV-I 0 W/m² 8,2 °C 9,1 °C 3,2 km/h (1 Bft)
25.10.2018 03:27 9,1 °C 94 % 1021,6 hPa 0,0 mm 0,4 km/h (0 Bft) W 259 ° 0 min 0,000 mm 0,0 UV-I 0 W/m² 8,2 °C 9,1 °C 3,2 km/h (1 Bft)
25.10.2018 03:28 9,1 °C 94 % 1021,5 hPa 0,0 mm 0,0 km/h (0 Bft) W 259 ° 0 min 0,000 mm 0,0 UV-I 0 W/m² 8,2 °C 9,1 °C 0,0 km/h (0 Bft)
25.10.2018 03:29 9,0 °C 94 % 1021,5 hPa 0,0 mm 0,0 km/h (0 Bft) W 259 ° 0 min 0,000 mm 0,0 UV-I 0 W/m² 8,1 °C 9,0 °C 0,0 km/h (0 Bft)
25.10.2018 03:30 9,0 °C 94 % 1021,5 hPa 0,0 mm 0,0 km/h (0 Bft) W 259 ° 0 min 0,000 mm 0,0 UV-I 0 W/m² 8,1 °C 9,0 °C 0,0 km/h (0 Bft)
25.10.2018 03:31 8,9 °C 94 % 1021,5 hPa 0,0 mm 0,0 km/h (0 Bft) W 259 ° 0 min 0,000 mm 0,0 UV-I 0 W/m² 8,0 °C 8,9 °C 0,0 km/h (0 Bft)
25.10.2018 03:32 8,9 °C 94 % 1021,5 hPa 0,0 mm 0,0 km/h (0 Bft) W 259 ° 0 min 0,000 mm 0,0 UV-I 0 W/m² 8,0 °C 8,9 °C 0,0 km/h (0 Bft)
25.10.2018 03:33 8,9 °C 94 % 1021,5 hPa 0,0 mm 0,0 km/h (0 Bft) W 259 ° 0 min 0,000 mm 0,0 UV-I 0 W/m² 8,0 °C 8,9 °C 0,0 km/h (0 Bft)
25.10.2018 03:34 8,9 °C 94 % 1021,5 hPa 0,0 mm 0,0 km/h (0 Bft) W 259 ° 0 min 0,000 mm 0,0 UV-I 0 W/m² 8,0 °C 8,9 °C 0,0 km/h (0 Bft)
25.10.2018 03:35 8,9 °C 94 % 1021,5 hPa 0,0 mm 0,0 km/h (0 Bft) W 259 ° 0 min 0,000 mm 0,0 UV-I 0 W/m² 8,0 °C 8,9 °C 0,0 km/h (0 Bft)
25.10.2018 03:36 8,9 °C 94 % 1021,6 hPa 0,0 mm 0,0 km/h (0 Bft) W 259 ° 0 min 0,000 mm 0,0 UV-I 0 W/m² 8,0 °C 8,9 °C 0,0 km/h (0 Bft)
25.10.2018 03:37 8,9 °C 94 % 1021,6 hPa 0,0 mm 0,0 km/h (0 Bft) W 259 ° 0 min 0,000 mm 0,0 UV-I 0 W/m² 8,0 °C 8,9 °C 0,0 km/h (0 Bft)
25.10.2018 03:38 8,9 °C 94 % 1021,6 hPa 0,0 mm 0,0 km/h (0 Bft) W 259 ° 0 min 0,000 mm 0,0 UV-I 0 W/m² 8,0 °C 8,9 °C 0,0 km/h (0 Bft)
25.10.2018 03:39 8,8 °C 94 % 1021,5 hPa 0,0 mm 0,0 km/h (0 Bft) W 259 ° 0 min 0,000 mm 0,0 UV-I 0 W/m² 7,9 °C 8,8 °C 0,0 km/h (0 Bft)
25.10.2018 03:40 8,9 °C 94 % 1021,5 hPa 0,0 mm 0,0 km/h (0 Bft) W 259 ° 0 min 0,000 mm 0,0 UV-I 0 W/m² 8,0 °C 8,9 °C 0,0 km/h (0 Bft)
25.10.2018 03:41 8,9 °C 94 % 1021,5 hPa 0,0 mm 0,0 km/h (0 Bft) W 259 ° 0 min 0,000 mm 0,0 UV-I 0 W/m² 8,0 °C 8,9 °C 0,0 km/h (0 Bft)
25.10.2018 03:42 8,8 °C 94 % 1021,5 hPa 0,0 mm 0,0 km/h (0 Bft) W 259 ° 0 min 0,000 mm 0,0 UV-I 0 W/m² 7,9 °C 8,8 °C 0,0 km/h (0 Bft)
25.10.2018 03:43 8,9 °C 94 % 1021,5 hPa 0,0 mm 0,0 km/h (0 Bft) W 259 ° 0 min 0,000 mm 0,0 UV-I 0 W/m² 8,0 °C 8,9 °C 0,0 km/h (0 Bft)
25.10.2018 03:44 8,9 °C 94 % 1021,5 hPa 0,0 mm 0,0 km/h (0 Bft) W 259 ° 0 min 0,000 mm 0,0 UV-I 0 W/m² 8,0 °C 8,9 °C 0,0 km/h (0 Bft)
25.10.2018 03:45 8,8 °C 94 % 1021,5 hPa 0,0 mm 0,0 km/h (0 Bft) W 259 ° 0 min 0,000 mm 0,0 UV-I 0 W/m² 7,9 °C 8,8 °C 0,0 km/h (0 Bft)
25.10.2018 03:46 8,8 °C 94 % 1021,5 hPa 0,0 mm 0,0 km/h (0 Bft) W 259 ° 0 min 0,000 mm 0,0 UV-I 0 W/m² 7,9 °C 8,8 °C 0,0 km/h (0 Bft)
25.10.2018 03:47 8,8 °C 94 % 1021,5 hPa 0,0 mm 0,0 km/h (0 Bft) W 259 ° 0 min 0,000 mm 0,0 UV-I 0 W/m² 7,9 °C 8,8 °C 0,0 km/h (0 Bft)
25.10.2018 03:48 8,8 °C 94 % 1021,4 hPa 0,0 mm 0,0 km/h (0 Bft) W 259 ° 0 min 0,000 mm 0,0 UV-I 0 W/m² 7,9 °C 8,8 °C 0,0 km/h (0 Bft)
25.10.2018 03:49 8,9 °C 94 % 1021,5 hPa 0,0 mm 0,0 km/h (0 Bft) W 259 ° 0 min 0,000 mm 0,0 UV-I 0 W/m² 8,0 °C 8,9 °C 0,0 km/h (0 Bft)
25.10.2018 03:50 8,8 °C 94 % 1021,4 hPa 0,0 mm 0,0 km/h (0 Bft) W 259 ° 0 min 0,000 mm 0,0 UV-I 0 W/m² 7,9 °C 8,8 °C 0,0 km/h (0 Bft)
25.10.2018 03:51 8,8 °C 94 % 1021,4 hPa 0,0 mm 0,0 km/h (0 Bft) W 259 ° 0 min 0,000 mm 0,0 UV-I 0 W/m² 7,9 °C 8,8 °C 0,0 km/h (0 Bft)
25.10.2018 03:52 8,8 °C 94 % 1021,4 hPa 0,0 mm 0,1 km/h (0 Bft) W 259 ° 0 min 0,000 mm 0,0 UV-I 0 W/m² 7,9 °C 8,8 °C 1,6 km/h (1 Bft)
25.10.2018 03:53 8,8 °C 94 % 1021,4 hPa 0,0 mm 2,2 km/h (1 Bft) W 259 ° 0 min 0,000 mm 0,0 UV-I 0 W/m² 7,9 °C 8,8 °C 4,8 km/h (1 Bft)
25.10.2018 03:54 8,8 °C 94 % 1021,4 hPa 0,0 mm 0,1 km/h (0 Bft) W 259 ° 0 min 0,000 mm 0,0 UV-I 0 W/m² 7,9 °C 8,8 °C 1,6 km/h (1 Bft)
25.10.2018 03:55 8,8 °C 94 % 1021,4 hPa 0,0 mm 0,4 km/h (0 Bft) W 259 ° 0 min 0,000 mm 0,0 UV-I 0 W/m² 7,9 °C 8,8 °C 1,6 km/h (1 Bft)
25.10.2018 03:56 8,9 °C 94 % 1021,4 hPa 0,0 mm 0,0 km/h (0 Bft) W 259 ° 0 min 0,000 mm 0,0 UV-I 0 W/m² 8,0 °C 8,9 °C 0,0 km/h (0 Bft)
25.10.2018 03:57 8,9 °C 94 % 1021,3 hPa 0,0 mm 0,0 km/h (0 Bft) W 259 ° 0 min 0,000 mm 0,0 UV-I 0 W/m² 8,0 °C 8,9 °C 0,0 km/h (0 Bft)
25.10.2018 03:58 8,9 °C 94 % 1021,3 hPa 0,0 mm 0,1 km/h (0 Bft) W 259 ° 0 min 0,000 mm 0,0 UV-I 0 W/m² 8,0 °C 8,9 °C 1,6 km/h (1 Bft)
25.10.2018 03:59 8,9 °C 94 % 1021,3 hPa 0,0 mm 0,2 km/h (0 Bft) W 259 ° 0 min 0,000 mm 0,0 UV-I 0 W/m² 8,0 °C 8,9 °C 1,6 km/h (1 Bft)
25.10.2018 04:00 8,9 °C 94 % 1021,3 hPa 0,0 mm 0,0 km/h (0 Bft) W 259 ° 0 min 0,000 mm 0,0 UV-I 0 W/m² 8,0 °C 8,9 °C 0,0 km/h (0 Bft)
25.10.2018 04:01 8,9 °C 94 % 1021,3 hPa 0,0 mm 0,0 km/h (0 Bft) W 259 ° 0 min 0,000 mm 0,0 UV-I 0 W/m² 8,0 °C 8,9 °C 0,0 km/h (0 Bft)
25.10.2018 04:02 8,9 °C 94 % 1021,3 hPa 0,0 mm 0,0 km/h (0 Bft) N 0 ° 0 min 0,000 mm 0,0 UV-I 0 W/m² 8,0 °C 8,9 °C 0,0 km/h (0 Bft)
25.10.2018 04:03 8,9 °C 94 % 1021,3 hPa 0,0 mm 0,0 km/h (0 Bft) N 0 ° 0 min 0,000 mm 0,0 UV-I 0 W/m² 8,0 °C 8,9 °C 0,0 km/h (0 Bft)
25.10.2018 04:04 8,9 °C 94 % 1021,2 hPa 0,0 mm 0,0 km/h (0 Bft) W 270 ° 0 min 0,000 mm 0,0 UV-I 0 W/m² 8,0 °C 8,9 °C 1,6 km/h (1 Bft)
25.10.2018 04:05 8,9 °C 94 % 1021,2 hPa 0,0 mm 3,2 km/h (1 Bft) W 270 ° 0 min 0,000 mm 0,0 UV-I 0 W/m² 8,0 °C 8,9 °C 6,4 km/h (2 Bft)
25.10.2018 04:06 8,9 °C 94 % 1021,3 hPa 0,0 mm 3,2 km/h (1 Bft) W-SW 247 ° 0 min 0,000 mm 0,0 UV-I 0 W/m² 8,0 °C 8,9 °C 6,4 km/h (2 Bft)
25.10.2018 04:07 8,9 °C 94 % 1021,3 hPa 0,0 mm 3,2 km/h (1 Bft) W 270 ° 0 min 0,000 mm 0,0 UV-I 0 W/m² 8,0 °C 8,9 °C 6,4 km/h (2 Bft)
25.10.2018 04:08 8,9 °C 94 % 1021,2 hPa 0,0 mm 1,6 km/h (1 Bft) W 270 ° 0 min 0,000 mm 0,0 UV-I 0 W/m² 8,0 °C 8,9 °C 4,8 km/h (1 Bft)
25.10.2018 04:10 8,9 °C 94 % 1021,2 hPa 0,0 mm 0,0 km/h (0 Bft) W-SW 250 ° 0 min 0,000 mm 0,0 UV-I 0 W/m² 8,0 °C 8,9 °C 0,0 km/h (0 Bft)
25.10.2018 04:11 8,9 °C 94 % 1021,3 hPa 0,0 mm 2,3 km/h (1 Bft) W-SW 254 ° 0 min 0,000 mm 0,0 UV-I 0 W/m² 8,0 °C 8,9 °C 4,8 km/h (1 Bft)
25.10.2018 04:12 8,9 °C 94 % 1021,4 hPa 0,0 mm 1,9 km/h (1 Bft) W-SW 254 ° 0 min 0,000 mm 0,0 UV-I 0 W/m² 8,0 °C 8,9 °C 3,2 km/h (1 Bft)
25.10.2018 04:13 8,9 °C 94 % 1021,4 hPa 0,0 mm 2,0 km/h (1 Bft) W-SW 254 ° 0 min 0,000 mm 0,0 UV-I 0 W/m² 8,0 °C 8,9 °C 4,8 km/h (1 Bft)
25.10.2018 04:14 8,9 °C 94 % 1021,4 hPa 0,0 mm 1,5 km/h (1 Bft) W-SW 254 ° 0 min 0,000 mm 0,0 UV-I 0 W/m² 8,0 °C 8,9 °C 3,2 km/h (1 Bft)
25.10.2018 04:15 8,9 °C 94 % 1021,4 hPa 0,0 mm 0,0 km/h (0 Bft) W-SW 254 ° 0 min 0,000 mm 0,0 UV-I 0 W/m² 8,0 °C 8,9 °C 0,0 km/h (0 Bft)
25.10.2018 04:16 8,9 °C 94 % 1021,4 hPa 0,0 mm 0,0 km/h (0 Bft) W-SW 254 ° 0 min 0,000 mm 0,0 UV-I 0 W/m² 8,0 °C 8,9 °C 0,0 km/h (0 Bft)
25.10.2018 04:17 8,9 °C 94 % 1021,3 hPa 0,0 mm 3,3 km/h (1 Bft) W-SW 254 ° 0 min 0,000 mm 0,0 UV-I 0 W/m² 8,0 °C 8,9 °C 6,4 km/h (2 Bft)
25.10.2018 04:18 8,9 °C 94 % 1021,4 hPa 0,0 mm 0,8 km/h (0 Bft) W-SW 254 ° 0 min 0,000 mm 0,0 UV-I 0 W/m² 8,0 °C 8,9 °C 3,2 km/h (1 Bft)
25.10.2018 04:19 8,9 °C 94 % 1021,4 hPa 0,0 mm 0,0 km/h (0 Bft) W-SW 254 ° 0 min 0,000 mm 0,0 UV-I 0 W/m² 8,0 °C 8,9 °C 0,0 km/h (0 Bft)
25.10.2018 04:20 8,9 °C 94 % 1021,4 hPa 0,0 mm 4,2 km/h (1 Bft) W-SW 254 ° 0 min 0,000 mm 0,0 UV-I 0 W/m² 8,0 °C 8,9 °C 6,4 km/h (2 Bft)
25.10.2018 04:21 8,9 °C 94 % 1021,4 hPa 0,0 mm 4,3 km/h (1 Bft) NW 325 ° 0 min 0,000 mm 0,0 UV-I 0 W/m² 8,0 °C 8,9 °C 9,7 km/h (2 Bft)
25.10.2018 04:22 8,9 °C 94 % 1021,4 hPa 0,0 mm 4,3 km/h (1 Bft) W-SW 248 ° 0 min 0,000 mm 0,0 UV-I 0 W/m² 8,0 °C 8,9 °C 6,4 km/h (2 Bft)
25.10.2018 04:23 8,9 °C 94 % 1021,4 hPa 0,0 mm 3,6 km/h (1 Bft) W-SW 246 ° 0 min 0,000 mm 0,0 UV-I 0 W/m² 8,0 °C 8,9 °C 6,4 km/h (2 Bft)
25.10.2018 04:24 8,9 °C 94 % 1021,4 hPa 0,0 mm 2,2 km/h (1 Bft) W-SW 246 ° 0 min 0,000 mm 0,0 UV-I 0 W/m² 8,0 °C 8,9 °C 4,8 km/h (1 Bft)
25.10.2018 04:25 8,9 °C 94 % 1021,4 hPa 0,0 mm 3,8 km/h (1 Bft) W 261 ° 0 min 0,000 mm 0,0 UV-I 0 W/m² 8,0 °C 8,9 °C 6,4 km/h (2 Bft)
25.10.2018 04:26 9,0 °C 94 % 1021,4 hPa 0,0 mm 3,0 km/h (1 Bft) W 261 ° 0 min 0,000 mm 0,0 UV-I 0 W/m² 8,1 °C 9,0 °C 6,4 km/h (2 Bft)
25.10.2018 04:27 9,0 °C 94 % 1021,4 hPa 0,0 mm 8,4 km/h (2 Bft) W 259 ° 0 min 0,000 mm 0,0 UV-I 0 W/m² 8,1 °C 7,7 °C 14,5 km/h (3 Bft)
25.10.2018 04:28 8,9 °C 94 % 1021,3 hPa 0,0 mm 8,8 km/h (2 Bft) W-NW 293 ° 0 min 0,000 mm 0,0 UV-I 0 W/m² 8,0 °C 7,5 °C 12,9 km/h (3 Bft)
25.10.2018 04:29 9,0 °C 94 % 1021,3 hPa 0,0 mm 5,4 km/h (1 Bft) W-NW 284 ° 0 min 0,000 mm 0,0 UV-I 0 W/m² 8,1 °C 8,5 °C 9,7 km/h (2 Bft)
25.10.2018 04:30 8,9 °C 94 % 1021,4 hPa 0,0 mm 2,2 km/h (1 Bft) W-NW 284 ° 0 min 0,000 mm 0,0 UV-I 0 W/m² 8,0 °C 8,9 °C 4,8 km/h (1 Bft)
25.10.2018 04:31 9,0 °C 94 % 1021,3 hPa 0,0 mm 6,0 km/h (2 Bft) W-NW 291 ° 0 min 0,000 mm 0,0 UV-I 0 W/m² 8,1 °C 8,3 °C 11,3 km/h (2 Bft)
25.10.2018 04:32 9,0 °C 94 % 1021,3 hPa 0,0 mm 5,4 km/h (1 Bft) W 280 ° 0 min 0,000 mm 0,0 UV-I 0 W/m² 8,1 °C 8,5 °C 9,7 km/h (2 Bft)
25.10.2018 04:33 9,0 °C 94 % 1021,3 hPa 0,0 mm 3,5 km/h (1 Bft) W 272 ° 0 min 0,000 mm 0,0 UV-I 0 W/m² 8,1 °C 9,0 °C 6,4 km/h (2 Bft)
25.10.2018 04:34 9,0 °C 94 % 1021,3 hPa 0,0 mm 3,7 km/h (1 Bft) W 273 ° 0 min 0,000 mm 0,0 UV-I 0 W/m² 8,1 °C 9,0 °C 6,4 km/h (2 Bft)
25.10.2018 04:35 9,0 °C 94 % 1021,2 hPa 0,0 mm 3,5 km/h (1 Bft) W 273 ° 0 min 0,000 mm 0,0 UV-I 0 W/m² 8,1 °C 9,0 °C 4,8 km/h (1 Bft)
25.10.2018 04:36 9,0 °C 94 % 1021,2 hPa 0,0 mm 4,8 km/h (1 Bft) W 274 ° 0 min 0,000 mm 0,0 UV-I 0 W/m² 8,1 °C 8,7 °C 9,7 km/h (2 Bft)
25.10.2018 04:37 9,0 °C 94 % 1021,3 hPa 0,0 mm 4,4 km/h (1 Bft) SW 228 ° 0 min 0,000 mm 0,0 UV-I 0 W/m² 8,1 °C 9,0 °C 11,3 km/h (2 Bft)
25.10.2018 04:38 9,0 °C 94 % 1021,2 hPa 0,0 mm 9,9 km/h (2 Bft) W-NW 288 ° 0 min 0,000 mm 0,0 UV-I 0 W/m² 8,1 °C 7,5 °C 14,5 km/h (3 Bft)
25.10.2018 04:39 9,0 °C 94 % 1021,2 hPa 0,0 mm 5,8 km/h (2 Bft) W-SW 257 ° 0 min 0,000 mm 0,0 UV-I 0 W/m² 8,1 °C 8,4 °C 11,3 km/h (2 Bft)
25.10.2018 04:40 9,0 °C 94 % 1021,2 hPa 0,0 mm 6,4 km/h (2 Bft) W 261 ° 0 min 0,000 mm 0,0 UV-I 0 W/m² 8,1 °C 8,2 °C 9,7 km/h (2 Bft)
25.10.2018 04:41 9,0 °C 94 % 1021,2 hPa 0,0 mm 6,6 km/h (2 Bft) W 259 ° 0 min 0,000 mm 0,0 UV-I 0 W/m² 8,1 °C 8,2 °C 12,9 km/h (3 Bft)
25.10.2018 04:42 9,0 °C 94 % 1021,2 hPa 0,0 mm 5,5 km/h (1 Bft) W 275 ° 0 min 0,000 mm 0,0 UV-I 0 W/m² 8,1 °C 8,5 °C 9,7 km/h (2 Bft)
25.10.2018 04:43 9,0 °C 94 % 1021,2 hPa 0,0 mm 8,7 km/h (2 Bft) W-SW 254 ° 0 min 0,000 mm 0,0 UV-I 0 W/m² 8,1 °C 7,7 °C 14,5 km/h (3 Bft)
25.10.2018 04:44 9,0 °C 94 % 1021,2 hPa 0,0 mm 4,5 km/h (1 Bft) W 273 ° 0 min 0,000 mm 0,0 UV-I 0 W/m² 8,1 °C 9,0 °C 8,0 km/h (2 Bft)
25.10.2018 04:45 9,0 °C 94 % 1021,2 hPa 0,0 mm 3,6 km/h (1 Bft) W 275 ° 0 min 0,000 mm 0,0 UV-I 0 W/m² 8,1 °C 9,0 °C 6,4 km/h (2 Bft)
25.10.2018 04:46 8,9 °C 94 % 1021,2 hPa 0,0 mm 2,1 km/h (1 Bft) W 275 ° 0 min 0,000 mm 0,0 UV-I 0 W/m² 8,0 °C 8,9 °C 3,2 km/h (1 Bft)
25.10.2018 04:47 8,9 °C 94 % 1021,2 hPa 0,0 mm 2,0 km/h (1 Bft) W 279 ° 0 min 0,000 mm 0,0 UV-I 0 W/m² 8,0 °C 8,9 °C 4,8 km/h (1 Bft)
25.10.2018 04:48 8,9 °C 94 % 1021,2 hPa 0,0 mm 5,6 km/h (1 Bft) W-NW 282 ° 0 min 0,000 mm 0,0 UV-I 0 W/m² 8,0 °C 8,3 °C 9,7 km/h (2 Bft)
25.10.2018 04:49 8,9 °C 94 % 1021,2 hPa 0,0 mm 0,8 km/h (0 Bft) W-NW 282 ° 0 min 0,000 mm 0,0 UV-I 0 W/m² 8,0 °C 8,9 °C 3,2 km/h (1 Bft)
25.10.2018 04:50 8,9 °C 94 % 1021,2 hPa 0,0 mm 1,2 km/h (1 Bft) W-NW 282 ° 0 min 0,000 mm 0,0 UV-I 0 W/m² 8,0 °C 8,9 °C 3,2 km/h (1 Bft)
25.10.2018 04:51 8,9 °C 94 % 1021,1 hPa 0,0 mm 2,8 km/h (1 Bft) W-SW 253 ° 0 min 0,000 mm 0,0 UV-I 0 W/m² 8,0 °C 8,9 °C 6,4 km/h (2 Bft)
25.10.2018 04:52 8,9 °C 94 % 1021,2 hPa 0,0 mm 7,9 km/h (2 Bft) W 264 ° 0 min 0,000 mm 0,0 UV-I 0 W/m² 8,0 °C 7,7 °C 11,3 km/h (2 Bft)
25.10.2018 04:53 8,9 °C 94 % 1021,1 hPa 0,0 mm 2,8 km/h (1 Bft) W 264 ° 0 min 0,000 mm 0,0 UV-I 0 W/m² 8,0 °C 8,9 °C 6,4 km/h (2 Bft)
25.10.2018 04:54 8,9 °C 94 % 1021,3 hPa 0,0 mm 0,0 km/h (0 Bft) W 264 ° 0 min 0,000 mm 0,0 UV-I 0 W/m² 8,0 °C 8,9 °C 0,0 km/h (0 Bft)
25.10.2018 04:55 8,9 °C 94 % 1021,3 hPa 0,0 mm 3,1 km/h (1 Bft) W 264 ° 0 min 0,000 mm 0,0 UV-I 0 W/m² 8,0 °C 8,9 °C 9,7 km/h (2 Bft)
25.10.2018 04:56 8,9 °C 94 % 1021,3 hPa 0,0 mm 3,8 km/h (1 Bft) W 264 ° 0 min 0,000 mm 0,0 UV-I 0 W/m² 8,0 °C 8,9 °C 4,8 km/h (1 Bft)
25.10.2018 04:57 8,9 °C 94 % 1021,3 hPa 0,0 mm 3,6 km/h (1 Bft) W 264 ° 0 min 0,000 mm 0,0 UV-I 0 W/m² 8,0 °C 8,9 °C 4,8 km/h (1 Bft)
25.10.2018 04:58 8,9 °C 94 % 1021,2 hPa 0,0 mm 5,1 km/h (1 Bft) W-SW 254 ° 0 min 0,000 mm 0,0 UV-I 0 W/m² 8,0 °C 8,5 °C 8,0 km/h (2 Bft)
25.10.2018 04:59 8,8 °C 94 % 1021,2 hPa 0,0 mm 3,5 km/h (1 Bft) W-SW 255 ° 0 min 0,000 mm 0,0 UV-I 0 W/m² 7,9 °C 8,8 °C 6,4 km/h (2 Bft)
25.10.2018 05:00 8,9 °C 94 % 1021,3 hPa 0,0 mm 3,0 km/h (1 Bft) W-SW 255 ° 0 min 0,000 mm 0,0 UV-I 0 W/m² 8,0 °C 8,9 °C 4,8 km/h (1 Bft)
25.10.2018 05:01 8,8 °C 94 % 1021,2 hPa 0,0 mm 5,5 km/h (1 Bft) W 264 ° 0 min 0,000 mm 0,0 UV-I 0 W/m² 7,9 °C 8,2 °C 11,3 km/h (2 Bft)
25.10.2018 05:02 8,8 °C 94 % 1021,2 hPa 0,0 mm 5,1 km/h (1 Bft) W 265 ° 0 min 0,000 mm 0,0 UV-I 0 W/m² 7,9 °C 8,4 °C 6,4 km/h (2 Bft)
25.10.2018 05:03 8,8 °C 94 % 1021,2 hPa 0,0 mm 4,7 km/h (1 Bft) W 261 ° 0 min 0,000 mm 0,0 UV-I 0 W/m² 7,9 °C 8,5 °C 6,4 km/h (2 Bft)
25.10.2018 05:04 8,8 °C 94 % 1021,2 hPa 0,0 mm 0,3 km/h (0 Bft) W 261 ° 0 min 0,000 mm 0,0 UV-I 0 W/m² 7,9 °C 8,8 °C 1,6 km/h (1 Bft)
25.10.2018 05:05 8,7 °C 94 % 1021,2 hPa 0,0 mm 2,3 km/h (1 Bft) W 261 ° 0 min 0,000 mm 0,0 UV-I 0 W/m² 7,8 °C 8,7 °C 6,4 km/h (2 Bft)
25.10.2018 05:06 8,7 °C 94 % 1021,2 hPa 0,0 mm 0,6 km/h (0 Bft) W 261 ° 0 min 0,000 mm 0,0 UV-I 0 W/m² 7,8 °C 8,7 °C 4,8 km/h (1 Bft)
25.10.2018 05:07 8,7 °C 94 % 1021,3 hPa 0,0 mm 0,8 km/h (0 Bft) W 261 ° 0 min 0,000 mm 0,0 UV-I 0 W/m² 7,8 °C 8,7 °C 3,2 km/h (1 Bft)
25.10.2018 05:08 8,7 °C 94 % 1021,2 hPa 0,0 mm 4,7 km/h (1 Bft) W-SW 250 ° 0 min 0,000 mm 0,0 UV-I 0 W/m² 7,8 °C 8,4 °C 9,7 km/h (2 Bft)
25.10.2018 05:09 8,8 °C 94 % 1021,2 hPa 0,0 mm 4,1 km/h (1 Bft) W-SW 250 ° 0 min 0,000 mm 0,0 UV-I 0 W/m² 7,9 °C 8,8 °C 4,8 km/h (1 Bft)
25.10.2018 05:10 8,7 °C 94 % 1021,2 hPa 0,0 mm 6,6 km/h (2 Bft) W 279 ° 0 min 0,000 mm 0,0 UV-I 0 W/m² 7,8 °C 7,8 °C 12,9 km/h (3 Bft)
25.10.2018 05:11 8,7 °C 94 % 1021,2 hPa 0,0 mm 7,4 km/h (2 Bft) W 273 ° 0 min 0,000 mm 0,0 UV-I 0 W/m² 7,8 °C 7,6 °C 11,3 km/h (2 Bft)
25.10.2018 05:12 8,7 °C 94 % 1021,2 hPa 0,0 mm 3,8 km/h (1 Bft) W 265 ° 0 min 0,000 mm 0,0 UV-I 0 W/m² 7,8 °C 8,7 °C 9,7 km/h (2 Bft)
25.10.2018 05:13 8,7 °C 94 % 1021,3 hPa 0,0 mm 2,0 km/h (1 Bft) W 265 ° 0 min 0,000 mm 0,0 UV-I 0 W/m² 7,8 °C 8,7 °C 3,2 km/h (1 Bft)
25.10.2018 05:14 8,7 °C 94 % 1021,3 hPa 0,0 mm 6,4 km/h (2 Bft) W-NW 286 ° 0 min 0,000 mm 0,0 UV-I 0 W/m² 7,8 °C 7,9 °C 12,9 km/h (3 Bft)
25.10.2018 05:15 8,7 °C 94 % 1021,3 hPa 0,0 mm 3,2 km/h (1 Bft) W 280 ° 0 min 0,000 mm 0,0 UV-I 0 W/m² 7,8 °C 8,7 °C 6,4 km/h (2 Bft)
25.10.2018 05:16 8,7 °C 94 % 1021,3 hPa 0,0 mm 4,5 km/h (1 Bft) W 266 ° 0 min 0,000 mm 0,0 UV-I 0 W/m² 7,8 °C 8,7 °C 11,3 km/h (2 Bft)
25.10.2018 05:17 8,7 °C 94 % 1021,3 hPa 0,0 mm 7,6 km/h (2 Bft) W 264 ° 0 min 0,000 mm 0,0 UV-I 0 W/m² 7,8 °C 7,6 °C 12,9 km/h (3 Bft)
25.10.2018 05:18 8,7 °C 94 % 1021,3 hPa 0,0 mm 7,1 km/h (2 Bft) N-NW 340 ° 0 min 0,000 mm 0,0 UV-I 0 W/m² 7,8 °C 7,7 °C 12,9 km/h (3 Bft)
25.10.2018 05:19 8,7 °C 94 % 1021,3 hPa 0,0 mm 7,8 km/h (2 Bft) W 277 ° 0 min 0,000 mm 0,0 UV-I 0 W/m² 7,8 °C 7,5 °C 16,1 km/h (3 Bft)
25.10.2018 05:20 8,7 °C 94 % 1021,2 hPa 0,0 mm 4,1 km/h (1 Bft) W-NW 296 ° 0 min 0,000 mm 0,0 UV-I 0 W/m² 7,8 °C 8,7 °C 6,4 km/h (2 Bft)
25.10.2018 05:21 8,7 °C 94 % 1021,3 hPa 0,0 mm 5,0 km/h (1 Bft) W-SW 238 ° 0 min 0,000 mm 0,0 UV-I 0 W/m² 7,8 °C 8,3 °C 8,0 km/h (2 Bft)
25.10.2018 05:22 8,7 °C 94 % 1021,2 hPa 0,0 mm 7,9 km/h (2 Bft) W-SW 242 ° 0 min 0,000 mm 0,0 UV-I 0 W/m² 7,8 °C 7,5 °C 11,3 km/h (2 Bft)
25.10.2018 05:23 8,8 °C 94 % 1021,2 hPa 0,0 mm 4,0 km/h (1 Bft) SW 234 ° 0 min 0,000 mm 0,0 UV-I 0 W/m² 7,9 °C 8,8 °C 6,4 km/h (2 Bft)
25.10.2018 05:24 8,7 °C 94 % 1021,3 hPa 0,0 mm 4,1 km/h (1 Bft) W 263 ° 0 min 0,000 mm 0,0 UV-I 0 W/m² 7,8 °C 8,7 °C 9,7 km/h (2 Bft)
25.10.2018 05:25 8,7 °C 94 % 1021,3 hPa 0,0 mm 2,5 km/h (1 Bft) W 261 ° 0 min 0,000 mm 0,0 UV-I 0 W/m² 7,8 °C 8,7 °C 3,2 km/h (1 Bft)
25.10.2018 05:26 8,7 °C 94 % 1021,2 hPa 0,0 mm 5,8 km/h (2 Bft) W 266 ° 0 min 0,000 mm 0,0 UV-I 0 W/m² 7,8 °C 8,0 °C 12,9 km/h (3 Bft)
25.10.2018 05:27 8,7 °C 94 % 1021,2 hPa 0,0 mm 2,6 km/h (1 Bft) W 267 ° 0 min 0,000 mm 0,0 UV-I 0 W/m² 7,8 °C 8,7 °C 6,4 km/h (2 Bft)
25.10.2018 05:28 8,7 °C 94 % 1021,2 hPa 0,0 mm 0,8 km/h (0 Bft) W 267 ° 0 min 0,000 mm 0,0 UV-I 0 W/m² 7,8 °C 8,7 °C 3,2 km/h (1 Bft)
25.10.2018 05:29 8,7 °C 94 % 1021,2 hPa 0,0 mm 0,6 km/h (0 Bft) W 267 ° 0 min 0,000 mm 0,0 UV-I 0 W/m² 7,8 °C 8,7 °C 1,6 km/h (1 Bft)
25.10.2018 05:30 8,7 °C 94 % 1021,2 hPa 0,0 mm 2,7 km/h (1 Bft) W 270 ° 0 min 0,000 mm 0,0 UV-I 0 W/m² 7,8 °C 8,7 °C 6,4 km/h (2 Bft)
25.10.2018 05:31 8,7 °C 94 % 1021,2 hPa 0,0 mm 5,4 km/h (1 Bft) W-SW 248 ° 0 min 0,000 mm 0,0 UV-I 0 W/m² 7,8 °C 8,2 °C 8,0 km/h (2 Bft)
25.10.2018 05:32 8,6 °C 94 % 1021,2 hPa 0,0 mm 1,1 km/h (1 Bft) W-SW 248 ° 0 min 0,000 mm 0,0 UV-I 0 W/m² 7,7 °C 8,6 °C 3,2 km/h (1 Bft)
25.10.2018 05:33 8,6 °C 94 % 1021,1 hPa 0,0 mm 2,6 km/h (1 Bft) W 265 ° 0 min 0,000 mm 0,0 UV-I 0 W/m² 7,7 °C 8,6 °C 6,4 km/h (2 Bft)
25.10.2018 05:34 8,6 °C 94 % 1021,1 hPa 0,0 mm 4,0 km/h (1 Bft) SW 234 ° 0 min 0,000 mm 0,0 UV-I 0 W/m² 7,7 °C 8,6 °C 4,8 km/h (1 Bft)
25.10.2018 05:35 8,6 °C 94 % 1021,1 hPa 0,0 mm 5,1 km/h (1 Bft) W-SW 255 ° 0 min 0,000 mm 0,0 UV-I 0 W/m² 7,7 °C 8,1 °C 6,4 km/h (2 Bft)
25.10.2018 05:36 8,6 °C 94 % 1021,2 hPa 0,0 mm 1,2 km/h (1 Bft) W-SW 255 ° 0 min 0,000 mm 0,0 UV-I 0 W/m² 7,7 °C 8,6 °C 3,2 km/h (1 Bft)
25.10.2018 05:37 8,6 °C 94 % 1021,2 hPa 0,0 mm 5,5 km/h (1 Bft) W-SW 245 ° 0 min 0,000 mm 0,0 UV-I 0 W/m² 7,7 °C 8,0 °C 8,0 km/h (2 Bft)
25.10.2018 05:38 8,6 °C 94 % 1021,1 hPa 0,0 mm 5,2 km/h (1 Bft) SW 219 ° 0 min 0,000 mm 0,0 UV-I 0 W/m² 7,7 °C 8,1 °C 9,7 km/h (2 Bft)
25.10.2018 05:39 8,6 °C 94 % 1021,1 hPa 0,0 mm 3,9 km/h (1 Bft) W-SW 257 ° 0 min 0,000 mm 0,0 UV-I 0 W/m² 7,7 °C 8,6 °C 6,4 km/h (2 Bft)
25.10.2018 05:40 8,6 °C 94 % 1021,1 hPa 0,0 mm 2,1 km/h (1 Bft) W-SW 237 ° 0 min 0,000 mm 0,0 UV-I 0 W/m² 7,7 °C 8,6 °C 8,0 km/h (2 Bft)
25.10.2018 05:41 8,6 °C 94 % 1021,1 hPa 0,0 mm 1,8 km/h (1 Bft) SW 229 ° 0 min 0,000 mm 0,0 UV-I 0 W/m² 7,7 °C 8,6 °C 4,8 km/h (1 Bft)
25.10.2018 05:42 8,6 °C 94 % 1021,1 hPa 0,0 mm 2,4 km/h (1 Bft) W 271 ° 0 min 0,000 mm 0,0 UV-I 0 W/m² 7,7 °C 8,6 °C 4,8 km/h (1 Bft)
25.10.2018 05:43 8,5 °C 94 % 1021,1 hPa 0,0 mm 3,9 km/h (1 Bft) SW 220 ° 0 min 0,000 mm 0,0 UV-I 0 W/m² 7,6 °C 8,5 °C 6,4 km/h (2 Bft)
25.10.2018 05:44 8,5 °C 94 % 1021,0 hPa 0,0 mm 2,2 km/h (1 Bft) W-SW 241 ° 0 min 0,000 mm 0,0 UV-I 0 W/m² 7,6 °C 8,5 °C 4,8 km/h (1 Bft)
25.10.2018 05:45 8,5 °C 94 % 1021,1 hPa 0,0 mm 7,1 km/h (2 Bft) W-SW 253 ° 0 min 0,000 mm 0,0 UV-I 0 W/m² 7,6 °C 7,5 °C 12,9 km/h (3 Bft)
25.10.2018 05:46 8,5 °C 94 % 1021,0 hPa 0,0 mm 3,5 km/h (1 Bft) W-SW 248 ° 0 min 0,000 mm 0,0 UV-I 0 W/m² 7,6 °C 8,5 °C 9,7 km/h (2 Bft)
25.10.2018 05:47 8,6 °C 94 % 1021,0 hPa 0,0 mm 3,5 km/h (1 Bft) W-SW 256 ° 0 min 0,000 mm 0,0 UV-I 0 W/m² 7,7 °C 8,6 °C 11,3 km/h (2 Bft)
25.10.2018 05:48 8,5 °C 94 % 1021,0 hPa 0,0 mm 1,6 km/h (1 Bft) SW 223 ° 0 min 0,000 mm 0,0 UV-I 0 W/m² 7,6 °C 8,5 °C 4,8 km/h (1 Bft)
25.10.2018 05:49 8,6 °C 94 % 1021,0 hPa 0,0 mm 5,2 km/h (1 Bft) W-SW 249 ° 0 min 0,000 mm 0,0 UV-I 0 W/m² 7,7 °C 8,1 °C 8,0 km/h (2 Bft)
25.10.2018 05:50 8,6 °C 94 % 1021,0 hPa 0,0 mm 5,3 km/h (1 Bft) W-SW 253 ° 0 min 0,000 mm 0,0 UV-I 0 W/m² 7,7 °C 8,1 °C 12,9 km/h (3 Bft)
25.10.2018 05:51 8,6 °C 94 % 1021,0 hPa 0,0 mm 6,0 km/h (2 Bft) W-SW 238 ° 0 min 0,000 mm 0,0 UV-I 0 W/m² 7,7 °C 7,9 °C 11,3 km/h (2 Bft)
25.10.2018 05:52 8,6 °C 94 % 1021,0 hPa 0,0 mm 5,8 km/h (2 Bft) W 261 ° 0 min 0,000 mm 0,0 UV-I 0 W/m² 7,7 °C 7,9 °C 11,3 km/h (2 Bft)
25.10.2018 05:53 8,6 °C 94 % 1020,9 hPa 0,0 mm 5,2 km/h (1 Bft) W-SW 251 ° 0 min 0,000 mm 0,0 UV-I 0 W/m² 7,7 °C 8,1 °C 12,9 km/h (3 Bft)
25.10.2018 05:54 8,5 °C 94 % 1020,9 hPa 0,0 mm 5,9 km/h (2 Bft) W-SW 245 ° 0 min 0,000 mm 0,0 UV-I 0 W/m² 7,6 °C 7,8 °C 12,9 km/h (3 Bft)
25.10.2018 05:55 8,6 °C 94 % 1020,8 hPa 0,0 mm 4,5 km/h (1 Bft) W-SW 252 ° 0 min 0,000 mm 0,0 UV-I 0 W/m² 7,7 °C 8,6 °C 8,0 km/h (2 Bft)
25.10.2018 05:56 8,6 °C 94 % 1020,8 hPa 0,0 mm 10,7 km/h (2 Bft) W 269 ° 0 min 0,000 mm 0,0 UV-I 0 W/m² 7,7 °C 6,8 °C 14,5 km/h (3 Bft)
25.10.2018 05:57 8,6 °C 94 % 1020,9 hPa 0,0 mm 5,5 km/h (1 Bft) SW 219 ° 0 min 0,000 mm 0,0 UV-I 0 W/m² 7,7 °C 8,0 °C 9,7 km/h (2 Bft)
25.10.2018 05:58 8,6 °C 94 % 1020,9 hPa 0,0 mm 2,5 km/h (1 Bft) W-SW 240 ° 0 min 0,000 mm 0,0 UV-I 0 W/m² 7,7 °C 8,6 °C 4,8 km/h (1 Bft)
25.10.2018 05:59 8,6 °C 94 % 1020,9 hPa 0,0 mm 6,6 km/h (2 Bft) W 269 ° 0 min 0,000 mm 0,0 UV-I 0 W/m² 7,7 °C 7,7 °C 12,9 km/h (3 Bft)
25.10.2018 06:00 8,6 °C 94 % 1020,9 hPa 0,0 mm 5,4 km/h (1 Bft) W-SW 248 ° 0 min 0,000 mm 0,0 UV-I 0 W/m² 7,7 °C 8,0 °C 11,3 km/h (2 Bft)
25.10.2018 06:01 8,6 °C 94 % 1020,8 hPa 0,0 mm 4,8 km/h (1 Bft) SW 235 ° 0 min 0,000 mm 0,0 UV-I 0 W/m² 7,7 °C 8,2 °C 8,0 km/h (2 Bft)
25.10.2018 06:02 8,6 °C 94 % 1020,8 hPa 0,0 mm 6,2 km/h (2 Bft) W-SW 242 ° 0 min 0,000 mm 0,0 UV-I 0 W/m² 7,7 °C 7,8 °C 8,0 km/h (2 Bft)
25.10.2018 06:03 8,6 °C 94 % 1020,9 hPa 0,0 mm 5,4 km/h (1 Bft) W-SW 249 ° 0 min 0,000 mm 0,0 UV-I 0 W/m² 7,7 °C 8,0 °C 11,3 km/h (2 Bft)
25.10.2018 06:04 8,6 °C 94 % 1020,9 hPa 0,0 mm 8,9 km/h (2 Bft) W 267 ° 0 min 0,000 mm 0,0 UV-I 0 W/m² 7,7 °C 7,2 °C 12,9 km/h (3 Bft)
25.10.2018 06:05 8,6 °C 94 % 1020,9 hPa 0,0 mm 3,8 km/h (1 Bft) SW 236 ° 0 min 0,000 mm 0,0 UV-I 0 W/m² 7,7 °C 8,6 °C 6,4 km/h (2 Bft)
25.10.2018 06:06 8,6 °C 94 % 1020,8 hPa 0,0 mm 3,7 km/h (1 Bft) SW 236 ° 0 min 0,000 mm 0,0 UV-I 0 W/m² 7,7 °C 8,6 °C 4,8 km/h (1 Bft)
25.10.2018 06:07 8,6 °C 94 % 1020,8 hPa 0,0 mm 2,5 km/h (1 Bft) S-SW 198 ° 0 min 0,000 mm 0,0 UV-I 0 W/m² 7,7 °C 8,6 °C 6,4 km/h (2 Bft)
25.10.2018 06:08 8,6 °C 94 % 1020,8 hPa 0,0 mm 2,7 km/h (1 Bft) SW 234 ° 0 min 0,000 mm 0,0 UV-I 0 W/m² 7,7 °C 8,6 °C 4,8 km/h (1 Bft)
25.10.2018 06:09 8,6 °C 94 % 1020,8 hPa 0,0 mm 7,3 km/h (2 Bft) SW 224 ° 0 min 0,000 mm 0,0 UV-I 0 W/m² 7,7 °C 7,5 °C 14,5 km/h (3 Bft)
25.10.2018 06:10 8,6 °C 94 % 1020,8 hPa 0,0 mm 3,4 km/h (1 Bft) S-SW 206 ° 0 min 0,000 mm 0,0 UV-I 0 W/m² 7,7 °C 8,6 °C 6,4 km/h (2 Bft)
25.10.2018 06:11 8,6 °C 94 % 1020,8 hPa 0,0 mm 3,4 km/h (1 Bft) SW 235 ° 0 min 0,000 mm 0,0 UV-I 0 W/m² 7,7 °C 8,6 °C 6,4 km/h (2 Bft)
25.10.2018 06:12 8,6 °C 94 % 1020,8 hPa 0,0 mm 6,9 km/h (2 Bft) W-SW 246 ° 0 min 0,000 mm 0,0 UV-I 0 W/m² 7,7 °C 7,6 °C 11,3 km/h (2 Bft)
25.10.2018 06:13 8,6 °C 94 % 1020,9 hPa 0,0 mm 4,5 km/h (1 Bft) SW 220 ° 0 min 0,000 mm 0,0 UV-I 0 W/m² 7,7 °C 8,6 °C 6,4 km/h (2 Bft)
25.10.2018 06:14 8,6 °C 94 % 1020,9 hPa 0,0 mm 3,2 km/h (1 Bft) SW 232 ° 0 min 0,000 mm 0,0 UV-I 0 W/m² 7,7 °C 8,6 °C 6,4 km/h (2 Bft)
25.10.2018 06:15 8,6 °C 94 % 1020,9 hPa 0,0 mm 4,8 km/h (1 Bft) SW 222 ° 0 min 0,000 mm 0,0 UV-I 0 W/m² 7,7 °C 8,2 °C 11,3 km/h (2 Bft)
25.10.2018 06:16 8,6 °C 94 % 1020,9 hPa 0,0 mm 6,0 km/h (2 Bft) W 273 ° 0 min 0,000 mm 0,0 UV-I 0 W/m² 7,7 °C 7,9 °C 9,7 km/h (2 Bft)
25.10.2018 06:17 8,6 °C 94 % 1020,8 hPa 0,0 mm 8,2 km/h (2 Bft) SW 225 ° 0 min 0,000 mm 0,0 UV-I 0 W/m² 7,7 °C 7,3 °C 12,9 km/h (3 Bft)
25.10.2018 06:18 8,6 °C 94 % 1020,8 hPa 0,0 mm 2,8 km/h (1 Bft) W-SW 240 ° 0 min 0,000 mm 0,0 UV-I 0 W/m² 7,7 °C 8,6 °C 4,8 km/h (1 Bft)
25.10.2018 06:19 8,6 °C 94 % 1020,8 hPa 0,0 mm 3,5 km/h (1 Bft) W 263 ° 0 min 0,000 mm 0,0 UV-I 0 W/m² 7,7 °C 8,6 °C 9,7 km/h (2 Bft)
25.10.2018 06:20 8,5 °C 93 % 1020,8 hPa 0,0 mm 3,9 km/h (1 Bft) W 270 ° 0 min 0,000 mm 0,0 UV-I 0 W/m² 7,4 °C 8,5 °C 9,7 km/h (2 Bft)
25.10.2018 06:21 8,4 °C 94 % 1020,8 hPa 0,0 mm 0,1 km/h (0 Bft) W 270 ° 0 min 0,000 mm 0,0 UV-I 0 W/m² 7,5 °C 8,4 °C 1,6 km/h (1 Bft)
25.10.2018 06:22 8,4 °C 93 % 1020,7 hPa 0,0 mm 3,4 km/h (1 Bft) W-SW 251 ° 0 min 0,000 mm 0,0 UV-I 0 W/m² 7,3 °C 8,4 °C 9,7 km/h (2 Bft)
25.10.2018 06:23 8,4 °C 94 % 1020,7 hPa 0,0 mm 4,4 km/h (1 Bft) SW 229 ° 0 min 0,000 mm 0,0 UV-I 0 W/m² 7,5 °C 8,4 °C 8,0 km/h (2 Bft)
25.10.2018 06:24 8,4 °C 94 % 1020,7 hPa 0,0 mm 2,7 km/h (1 Bft) W-SW 258 ° 0 min 0,000 mm 0,0 UV-I 0 W/m² 7,5 °C 8,4 °C 3,2 km/h (1 Bft)
25.10.2018 06:25 8,4 °C 94 % 1020,7 hPa 0,0 mm 7,3 km/h (2 Bft) W-SW 237 ° 0 min 0,000 mm 0,0 UV-I 0 W/m² 7,5 °C 7,3 °C 14,5 km/h (3 Bft)
25.10.2018 06:26 8,4 °C 94 % 1020,7 hPa 0,0 mm 6,3 km/h (2 Bft) W-SW 240 ° 0 min 0,000 mm 0,0 UV-I 0 W/m² 7,5 °C 7,5 °C 9,7 km/h (2 Bft)
25.10.2018 06:27 8,4 °C 94 % 1020,7 hPa 0,0 mm 3,9 km/h (1 Bft) SW 215 ° 0 min 0,000 mm 0,0 UV-I 0 W/m² 7,5 °C 8,4 °C 6,4 km/h (2 Bft)
25.10.2018 06:28 8,4 °C 94 % 1020,6 hPa 0,0 mm 3,8 km/h (1 Bft) W-SW 249 ° 0 min 0,000 mm 0,0 UV-I 0 W/m² 7,5 °C 8,4 °C 9,7 km/h (2 Bft)
25.10.2018 06:29 8,4 °C 94 % 1020,5 hPa 0,0 mm 4,8 km/h (1 Bft) S-SW 192 ° 0 min 0,000 mm 0,0 UV-I 0 W/m² 7,5 °C 8,0 °C 12,9 km/h (3 Bft)
25.10.2018 06:30 8,4 °C 94 % 1020,6 hPa 0,0 mm 4,2 km/h (1 Bft) SW 234 ° 0 min 0,000 mm 0,0 UV-I 0 W/m² 7,5 °C 8,4 °C 8,0 km/h (2 Bft)
25.10.2018 06:31 8,4 °C 94 % 1020,5 hPa 0,0 mm 4,8 km/h (1 Bft) S-SW 198 ° 0 min 0,000 mm 0,0 UV-I 0 W/m² 7,5 °C 8,0 °C 6,4 km/h (2 Bft)
25.10.2018 06:32 8,4 °C 94 % 1020,5 hPa 0,0 mm 2,4 km/h (1 Bft) S-SW 209 ° 0 min 0,000 mm 0,0 UV-I 0 W/m² 7,5 °C 8,4 °C 4,8 km/h (1 Bft)
25.10.2018 06:33 8,4 °C 94 % 1020,5 hPa 0,0 mm 4,8 km/h (1 Bft) SW 229 ° 0 min 0,000 mm 0,0 UV-I 0 W/m² 7,5 °C 8,0 °C 16,1 km/h (3 Bft)
25.10.2018 06:34 8,4 °C 93 % 1020,5 hPa 0,0 mm 4,1 km/h (1 Bft) W-SW 244 ° 0 min 0,000 mm 0,0 UV-I 0 W/m² 7,3 °C 8,4 °C 12,9 km/h (3 Bft)
25.10.2018 06:35 8,4 °C 93 % 1020,5 hPa 0,0 mm 7,4 km/h (2 Bft) S-SW 198 ° 0 min 0,000 mm 0,0 UV-I 0 W/m² 7,3 °C 7,3 °C 12,9 km/h (3 Bft)
25.10.2018 06:36 8,4 °C 93 % 1020,5 hPa 0,0 mm 6,3 km/h (2 Bft) SW 215 ° 0 min 0,000 mm 0,0 UV-I 0 W/m² 7,3 °C 7,5 °C 9,7 km/h (2 Bft)
25.10.2018 06:37 8,4 °C 93 % 1020,5 hPa 0,0 mm 3,7 km/h (1 Bft) W 267 ° 0 min 0,000 mm 0,0 UV-I 0 W/m² 7,3 °C 8,4 °C 6,4 km/h (2 Bft)
25.10.2018 06:38 8,4 °C 93 % 1020,5 hPa 0,0 mm 3,1 km/h (1 Bft) SW 228 ° 0 min 0,000 mm 0,0 UV-I 0 W/m² 7,3 °C 8,4 °C 6,4 km/h (2 Bft)
25.10.2018 06:39 8,4 °C 93 % 1020,4 hPa 0,0 mm 5,8 km/h (2 Bft) S-SW 211 ° 0 min 0,000 mm 0,0 UV-I 0 W/m² 7,3 °C 7,7 °C 12,9 km/h (3 Bft)
25.10.2018 06:40 8,4 °C 93 % 1020,4 hPa 0,0 mm 3,9 km/h (1 Bft) S-SW 211 ° 0 min 0,000 mm 0,0 UV-I 0 W/m² 7,3 °C 8,4 °C 4,8 km/h (1 Bft)
25.10.2018 06:41 8,4 °C 93 % 1020,4 hPa 0,0 mm 4,3 km/h (1 Bft) S-SW 211 ° 0 min 0,000 mm 0,0 UV-I 0 W/m² 7,3 °C 8,4 °C 8,0 km/h (2 Bft)
25.10.2018 06:42 8,4 °C 93 % 1020,4 hPa 0,0 mm 6,4 km/h (2 Bft) S 185 ° 0 min 0,000 mm 0,0 UV-I 0 W/m² 7,3 °C 7,5 °C 12,9 km/h (3 Bft)
25.10.2018 06:43 8,4 °C 93 % 1020,4 hPa 0,0 mm 3,1 km/h (1 Bft) S-SW 205 ° 0 min 0,000 mm 0,0 UV-I 0 W/m² 7,3 °C 8,4 °C 6,4 km/h (2 Bft)
25.10.2018 06:44 8,4 °C 93 % 1020,4 hPa 0,0 mm 4,2 km/h (1 Bft) SW 217 ° 0 min 0,000 mm 0,0 UV-I 0 W/m² 7,3 °C 8,4 °C 6,4 km/h (2 Bft)
25.10.2018 06:45 8,3 °C 93 % 1020,4 hPa 0,0 mm 3,2 km/h (1 Bft) SW 217 ° 0 min 0,000 mm 0,0 UV-I 0 W/m² 7,2 °C 8,3 °C 6,4 km/h (2 Bft)
25.10.2018 06:46 8,3 °C 93 % 1020,4 hPa 0,0 mm 2,4 km/h (1 Bft) SW 218 ° 0 min 0,000 mm 0,0 UV-I 0 W/m² 7,2 °C 8,3 °C 4,8 km/h (1 Bft)
25.10.2018 06:47 8,3 °C 93 % 1020,3 hPa 0,0 mm 5,7 km/h (1 Bft) SW 223 ° 0 min 0,000 mm 0,0 UV-I 0 W/m² 7,2 °C 7,6 °C 9,7 km/h (2 Bft)
25.10.2018 06:48 8,3 °C 93 % 1020,4 hPa 0,0 mm 5,9 km/h (2 Bft) S-SW 197 ° 0 min 0,000 mm 0,0 UV-I 0 W/m² 7,2 °C 7,5 °C 8,0 km/h (2 Bft)
25.10.2018 06:49 8,3 °C 93 % 1020,3 hPa 0,0 mm 2,4 km/h (1 Bft) W-SW 248 ° 0 min 0,000 mm 0,0 UV-I 0 W/m² 7,2 °C 8,3 °C 6,4 km/h (2 Bft)
25.10.2018 06:50 8,3 °C 93 % 1020,3 hPa 0,0 mm 3,9 km/h (1 Bft) S-SW 198 ° 0 min 0,000 mm 0,0 UV-I 0 W/m² 7,2 °C 8,3 °C 8,0 km/h (2 Bft)
25.10.2018 06:51 8,3 °C 93 % 1020,3 hPa 0,0 mm 3,6 km/h (1 Bft) SW 227 ° 0 min 0,000 mm 0,0 UV-I 0 W/m² 7,2 °C 8,3 °C 6,4 km/h (2 Bft)
25.10.2018 06:52 8,3 °C 93 % 1020,3 hPa 0,0 mm 4,9 km/h (1 Bft) W-SW 245 ° 0 min 0,000 mm 0,0 UV-I 0 W/m² 7,2 °C 7,9 °C 8,0 km/h (2 Bft)
25.10.2018 06:53 8,4 °C 93 % 1020,3 hPa 0,0 mm 4,2 km/h (1 Bft) W-SW 245 ° 0 min 0,000 mm 0,0 UV-I 0 W/m² 7,3 °C 8,4 °C 6,4 km/h (2 Bft)
25.10.2018 06:54 8,3 °C 93 % 1020,3 hPa 0,0 mm 4,0 km/h (1 Bft) SW 236 ° 0 min 0,000 mm 0,0 UV-I 0 W/m² 7,2 °C 8,3 °C 8,0 km/h (2 Bft)
25.10.2018 06:55 8,3 °C 93 % 1020,2 hPa 0,0 mm 4,7 km/h (1 Bft) SW 225 ° 0 min 0,000 mm 0,0 UV-I 0 W/m² 7,2 °C 7,9 °C 11,3 km/h (2 Bft)
25.10.2018 06:56 8,3 °C 93 % 1020,3 hPa 0,0 mm 3,2 km/h (1 Bft) S-SW 204 ° 0 min 0,000 mm 0,0 UV-I 0 W/m² 7,2 °C 8,3 °C 6,4 km/h (2 Bft)
25.10.2018 06:57 8,3 °C 93 % 1020,2 hPa 0,0 mm 6,2 km/h (2 Bft) W-SW 240 ° 0 min 0,000 mm 0,0 UV-I 0 W/m² 7,2 °C 7,5 °C 12,9 km/h (3 Bft)
25.10.2018 06:58 8,3 °C 93 % 1020,2 hPa 0,0 mm 4,4 km/h (1 Bft) S-SW 192 ° 0 min 0,000 mm 0,0 UV-I 0 W/m² 7,2 °C 8,3 °C 6,4 km/h (2 Bft)
25.10.2018 06:59 8,3 °C 93 % 1020,1 hPa 0,0 mm 4,6 km/h (1 Bft) S-SW 209 ° 0 min 0,000 mm 0,0 UV-I 0 W/m² 7,2 °C 8,0 °C 8,0 km/h (2 Bft)
25.10.2018 07:00 8,3 °C 93 % 1020,2 hPa 0,0 mm 5,7 km/h (1 Bft) W-SW 242 ° 0 min 0,000 mm 0,0 UV-I 0 W/m² 7,2 °C 7,6 °C 8,0 km/h (2 Bft)
25.10.2018 07:01 8,3 °C 93 % 1020,1 hPa 0,0 mm 4,8 km/h (1 Bft) SW 223 ° 0 min 0,000 mm 0,0 UV-I 0 W/m² 7,2 °C 7,9 °C 9,7 km/h (2 Bft)
25.10.2018 07:02 8,3 °C 93 % 1020,1 hPa 0,0 mm 7,1 km/h (2 Bft) S-SW 192 ° 0 min 0,000 mm 0,0 UV-I 0 W/m² 7,2 °C 7,2 °C 11,3 km/h (2 Bft)
25.10.2018 07:03 8,3 °C 93 % 1020,1 hPa 0,0 mm 7,8 km/h (2 Bft) S-SW 195 ° 0 min 0,000 mm 0,0 UV-I 0 W/m² 7,2 °C 7,1 °C 12,9 km/h (3 Bft)
25.10.2018 07:04 8,3 °C 93 % 1020,1 hPa 0,0 mm 5,4 km/h (1 Bft) S-SW 192 ° 0 min 0,000 mm 0,0 UV-I 0 W/m² 7,2 °C 7,7 °C 11,3 km/h (2 Bft)
25.10.2018 07:05 8,3 °C 93 % 1020,0 hPa 0,0 mm 4,3 km/h (1 Bft) S-SW 205 ° 0 min 0,000 mm 0,0 UV-I 0 W/m² 7,2 °C 8,3 °C 6,4 km/h (2 Bft)
25.10.2018 07:06 8,3 °C 93 % 1020,0 hPa 0,0 mm 4,4 km/h (1 Bft) S-SW 196 ° 0 min 0,000 mm 0,0 UV-I 0 W/m² 7,2 °C 8,3 °C 8,0 km/h (2 Bft)
25.10.2018 07:07 8,3 °C 93 % 1020,0 hPa 0,0 mm 5,3 km/h (1 Bft) S 176 ° 0 min 0,000 mm 0,0 UV-I 0 W/m² 7,2 °C 7,7 °C 8,0 km/h (2 Bft)
25.10.2018 07:08 8,3 °C 93 % 1020,0 hPa 0,0 mm 6,1 km/h (2 Bft) S-SW 194 ° 0 min 0,000 mm 0,0 UV-I 0 W/m² 7,2 °C 7,5 °C 8,0 km/h (2 Bft)
25.10.2018 07:09 8,2 °C 93 % 1020,0 hPa 0,0 mm 5,5 km/h (1 Bft) S 186 ° 0 min 0,000 mm 0,0 UV-I 0 W/m² 7,1 °C 7,6 °C 9,7 km/h (2 Bft)
25.10.2018 07:10 8,2 °C 93 % 1020,0 hPa 0,0 mm 6,5 km/h (2 Bft) S 190 ° 0 min 0,000 mm 0,0 UV-I 0 W/m² 7,1 °C 7,3 °C 11,3 km/h (2 Bft)
25.10.2018 07:11 8,2 °C 93 % 1020,0 hPa 0,0 mm 3,8 km/h (1 Bft) S-SW 200 ° 0 min 0,000 mm 0,0 UV-I 0 W/m² 7,1 °C 8,2 °C 6,4 km/h (2 Bft)
25.10.2018 07:12 8,2 °C 93 % 1019,9 hPa 0,0 mm 7,8 km/h (2 Bft) S 188 ° 0 min 0,000 mm 0,0 UV-I 0 W/m² 7,1 °C 6,9 °C 9,7 km/h (2 Bft)
25.10.2018 07:13 8,1 °C 93 % 1019,9 hPa 0,0 mm 4,3 km/h (1 Bft) S-SW 200 ° 0 min 0,000 mm 0,0 UV-I 0 W/m² 7,0 °C 8,1 °C 9,7 km/h (2 Bft)
25.10.2018 07:14 8,0 °C 93 % 1019,9 hPa 0,0 mm 3,1 km/h (1 Bft) SW 219 ° 0 min 0,000 mm 0,0 UV-I 0 W/m² 6,9 °C 8,0 °C 4,8 km/h (1 Bft)
25.10.2018 07:15 8,0 °C 93 % 1019,9 hPa 0,0 mm 2,7 km/h (1 Bft) SW 215 ° 0 min 0,000 mm 0,0 UV-I 0 W/m² 6,9 °C 8,0 °C 4,8 km/h (1 Bft)
25.10.2018 07:16 7,9 °C 93 % 1019,9 hPa 0,0 mm 2,9 km/h (1 Bft) SW 216 ° 0 min 0,000 mm 0,0 UV-I 0 W/m² 6,8 °C 7,9 °C 4,8 km/h (1 Bft)
25.10.2018 07:17 7,8 °C 93 % 1020,0 hPa 0,0 mm 1,5 km/h (1 Bft) S 180 ° 0 min 0,000 mm 0,0 UV-I 0 W/m² 6,7 °C 7,8 °C 4,8 km/h (1 Bft)
25.10.2018 07:18 7,8 °C 93 % 1019,9 hPa 0,0 mm 2,1 km/h (1 Bft) W-SW 254 ° 0 min 0,000 mm 0,0 UV-I 0 W/m² 6,7 °C 7,8 °C 6,4 km/h (2 Bft)
25.10.2018 07:19 7,7 °C 93 % 1019,8 hPa 0,0 mm 3,4 km/h (1 Bft) S-SW 213 ° 0 min 0,000 mm 0,0 UV-I 0 W/m² 6,6 °C 7,7 °C 4,8 km/h (1 Bft)
25.10.2018 07:20 7,7 °C 93 % 1019,9 hPa 0,0 mm 2,3 km/h (1 Bft) S-SW 213 ° 0 min 0,000 mm 0,0 UV-I 0 W/m² 6,6 °C 7,7 °C 3,2 km/h (1 Bft)
25.10.2018 07:21 7,7 °C 93 % 1019,9 hPa 0,0 mm 4,6 km/h (1 Bft) S-SW 194 ° 0 min 0,000 mm 0,0 UV-I 0 W/m² 6,6 °C 7,3 °C 8,0 km/h (2 Bft)
25.10.2018 07:22 7,7 °C 93 % 1019,9 hPa 0,0 mm 1,7 km/h (1 Bft) S-SW 196 ° 0 min 0,000 mm 0,0 UV-I 0 W/m² 6,6 °C 7,7 °C 4,8 km/h (1 Bft)
25.10.2018 07:23 7,7 °C 93 % 1019,9 hPa 0,0 mm 4,0 km/h (1 Bft) SW 216 ° 0 min 0,000 mm 0,0 UV-I 0 W/m² 6,6 °C 7,7 °C 8,0 km/h (2 Bft)
25.10.2018 07:24 7,7 °C 93 % 1019,8 hPa 0,0 mm 2,3 km/h (1 Bft) SW 217 ° 0 min 0,000 mm 0,0 UV-I 0 W/m² 6,6 °C 7,7 °C 3,2 km/h (1 Bft)
25.10.2018 07:25 7,7 °C 93 % 1019,9 hPa 0,0 mm 3,4 km/h (1 Bft) SW 217 ° 0 min 0,000 mm 0,0 UV-I 0 W/m² 6,6 °C 7,7 °C 4,8 km/h (1 Bft)
25.10.2018 07:26 7,6 °C 93 % 1019,8 hPa 0,0 mm 1,9 km/h (1 Bft) SW 229 ° 0 min 0,000 mm 0,0 UV-I 0 W/m² 6,5 °C 7,6 °C 4,8 km/h (1 Bft)
25.10.2018 07:27 7,4 °C 93 % 1019,8 hPa 0,0 mm 1,9 km/h (1 Bft) SW 229 ° 0 min 0,000 mm 0,0 UV-I 0 W/m² 6,3 °C 7,4 °C 4,8 km/h (1 Bft)
25.10.2018 07:28 7,3 °C 92 % 1019,7 hPa 0,0 mm 0,4 km/h (0 Bft) SW 229 ° 0 min 0,000 mm 0,0 UV-I 0 W/m² 6,1 °C 7,3 °C 1,6 km/h (1 Bft)
25.10.2018 07:29 7,2 °C 93 % 1019,7 hPa 0,0 mm 0,0 km/h (0 Bft) SW 229 ° 0 min 0,000 mm 0,0 UV-I 0 W/m² 6,1 °C 7,2 °C 0,0 km/h (0 Bft)
25.10.2018 07:30 7,2 °C 93 % 1019,7 hPa 0,0 mm 1,4 km/h (1 Bft) SW 229 ° 0 min 0,000 mm 0,0 UV-I 0 W/m² 6,1 °C 7,2 °C 3,2 km/h (1 Bft)
25.10.2018 07:31 7,2 °C 93 % 1019,7 hPa 0,0 mm 3,4 km/h (1 Bft) SW 229 ° 0 min 0,000 mm 0,0 UV-I 0 W/m² 6,1 °C 7,2 °C 4,8 km/h (1 Bft)
25.10.2018 07:32 7,2 °C 93 % 1019,7 hPa 0,0 mm 5,2 km/h (1 Bft) W-SW 247 ° 0 min 0,000 mm 0,0 UV-I 0 W/m² 6,1 °C 6,5 °C 8,0 km/h (2 Bft)
25.10.2018 07:33 7,2 °C 93 % 1019,7 hPa 0,0 mm 2,4 km/h (1 Bft) W-SW 246 ° 0 min 0,000 mm 0,0 UV-I 0 W/m² 6,1 °C 7,2 °C 4,8 km/h (1 Bft)
25.10.2018 07:34 7,2 °C 93 % 1019,7 hPa 0,0 mm 1,6 km/h (1 Bft) W-SW 246 ° 0 min 0,000 mm 0,0 UV-I 0 W/m² 6,1 °C 7,2 °C 4,8 km/h (1 Bft)
25.10.2018 07:35 7,2 °C 93 % 1019,7 hPa 0,0 mm 1,0 km/h (0 Bft) W-SW 246 ° 0 min 0,000 mm 0,0 UV-I 0 W/m² 6,1 °C 7,2 °C 3,2 km/h (1 Bft)
25.10.2018 07:36 7,1 °C 93 % 1019,7 hPa 0,0 mm 0,9 km/h (0 Bft) W-SW 246 ° 0 min 0,000 mm 0,0 UV-I 0 W/m² 6,0 °C 7,1 °C 3,2 km/h (1 Bft)
25.10.2018 07:37 7,0 °C 93 % 1019,7 hPa 0,0 mm 0,1 km/h (0 Bft) W-SW 246 ° 0 min 0,000 mm 0,0 UV-I 0 W/m² 5,9 °C 7,0 °C 1,6 km/h (1 Bft)
25.10.2018 07:38 7,0 °C 93 % 1019,7 hPa 0,0 mm 0,0 km/h (0 Bft) W-SW 246 ° 0 min 0,000 mm 0,0 UV-I 0 W/m² 5,9 °C 7,0 °C 0,0 km/h (0 Bft)
25.10.2018 07:39 6,9 °C 93 % 1019,7 hPa 0,0 mm 0,0 km/h (0 Bft) W-SW 246 ° 0 min 0,000 mm 0,0 UV-I 0 W/m² 5,8 °C 6,9 °C 0,0 km/h (0 Bft)
25.10.2018 07:40 6,8 °C 93 % 1019,7 hPa 0,0 mm 0,0 km/h (0 Bft) W-SW 246 ° 0 min 0,000 mm 0,0 UV-I 0 W/m² 5,7 °C 6,8 °C 0,0 km/h (0 Bft)
25.10.2018 07:41 6,8 °C 93 % 1019,7 hPa 0,0 mm 0,0 km/h (0 Bft) W-SW 246 ° 0 min 0,000 mm 0,0 UV-I 0 W/m² 5,7 °C 6,8 °C 0,0 km/h (0 Bft)
25.10.2018 07:42 6,8 °C 93 % 1019,7 hPa 0,0 mm 0,0 km/h (0 Bft) W-SW 246 ° 0 min 0,000 mm 0,0 UV-I 0 W/m² 5,7 °C 6,8 °C 0,0 km/h (0 Bft)
25.10.2018 07:43 6,7 °C 93 % 1019,6 hPa 0,0 mm 0,0 km/h (0 Bft) W-SW 246 ° 0 min 0,000 mm 0,0 UV-I 0 W/m² 5,6 °C 6,7 °C 0,0 km/h (0 Bft)
25.10.2018 07:44 6,7 °C 93 % 1019,6 hPa 0,0 mm 0,0 km/h (0 Bft) W-SW 246 ° 0 min 0,000 mm 0,0 UV-I 0 W/m² 5,6 °C 6,7 °C 0,0 km/h (0 Bft)
25.10.2018 07:45 6,7 °C 93 % 1019,6 hPa 0,0 mm 0,4 km/h (0 Bft) W-SW 246 ° 0 min 0,000 mm 0,0 UV-I 0 W/m² 5,6 °C 6,7 °C 1,6 km/h (1 Bft)
25.10.2018 07:46 6,7 °C 94 % 1019,6 hPa 0,0 mm 0,8 km/h (0 Bft) W-SW 246 ° 0 min 0,000 mm 0,0 UV-I 0 W/m² 5,8 °C 6,7 °C 1,6 km/h (1 Bft)
25.10.2018 07:47 6,6 °C 94 % 1019,7 hPa 0,0 mm 2,0 km/h (1 Bft) W-SW 246 ° 0 min 0,000 mm 0,0 UV-I 0 W/m² 5,7 °C 6,6 °C 3,2 km/h (1 Bft)
25.10.2018 07:48 6,6 °C 94 % 1019,7 hPa 0,0 mm 1,3 km/h (1 Bft) W-SW 246 ° 0 min 0,000 mm 0,0 UV-I 0 W/m² 5,7 °C 6,6 °C 3,2 km/h (1 Bft)
25.10.2018 07:49 6,6 °C 94 % 1019,6 hPa 0,0 mm 0,4 km/h (0 Bft) W-SW 246 ° 0 min 0,000 mm 0,0 UV-I 0 W/m² 5,7 °C 6,6 °C 1,6 km/h (1 Bft)
25.10.2018 07:50 6,6 °C 94 % 1019,6 hPa 0,0 mm 0,0 km/h (0 Bft) W-SW 246 ° 0 min 0,000 mm 0,0 UV-I 0 W/m² 5,7 °C 6,6 °C 0,0 km/h (0 Bft)
25.10.2018 07:51 6,6 °C 94 % 1019,6 hPa 0,0 mm 0,5 km/h (0 Bft) W-SW 246 ° 0 min 0,000 mm 0,0 UV-I 0 W/m² 5,7 °C 6,6 °C 3,2 km/h (1 Bft)
25.10.2018 07:52 6,5 °C 94 % 1019,7 hPa 0,0 mm 0,5 km/h (0 Bft) W-SW 246 ° 0 min 0,000 mm 0,0 UV-I 0 W/m² 5,6 °C 6,5 °C 1,6 km/h (1 Bft)
25.10.2018 07:53 6,5 °C 94 % 1019,6 hPa 0,0 mm 0,0 km/h (0 Bft) W-SW 246 ° 0 min 0,000 mm 0,0 UV-I 5 W/m² 5,6 °C 6,5 °C 0,0 km/h (0 Bft)
25.10.2018 07:54 6,6 °C 94 % 1019,6 hPa 0,0 mm 0,0 km/h (0 Bft) W-SW 246 ° 0 min 0,000 mm 0,0 UV-I 5 W/m² 5,7 °C 6,6 °C 0,0 km/h (0 Bft)
25.10.2018 07:55 6,6 °C 94 % 1019,6 hPa 0,0 mm 0,0 km/h (0 Bft) W-SW 246 ° 0 min 0,000 mm 0,0 UV-I 5 W/m² 5,7 °C 6,6 °C 0,0 km/h (0 Bft)
25.10.2018 07:56 6,6 °C 94 % 1019,6 hPa 0,0 mm 0,0 km/h (0 Bft) W-SW 246 ° 0 min 0,000 mm 0,0 UV-I 5 W/m² 5,7 °C 6,6 °C 0,0 km/h (0 Bft)
25.10.2018 07:57 6,6 °C 94 % 1019,6 hPa 0,0 mm 0,0 km/h (0 Bft) W-SW 246 ° 0 min 0,000 mm 0,0 UV-I 5 W/m² 5,7 °C 6,6 °C 0,0 km/h (0 Bft)
25.10.2018 07:58 6,7 °C 94 % 1019,6 hPa 0,0 mm 0,0 km/h (0 Bft) W-SW 246 ° 0 min 0,000 mm 0,0 UV-I 5 W/m² 5,8 °C 6,7 °C 0,0 km/h (0 Bft)
25.10.2018 07:59 6,6 °C 94 % 1019,6 hPa 0,0 mm 0,0 km/h (0 Bft) W-SW 246 ° 0 min 0,000 mm 0,0 UV-I 5 W/m² 5,7 °C 6,6 °C 0,0 km/h (0 Bft)
25.10.2018 08:00 6,4 °C 94 % 1019,6 hPa 0,0 mm 0,0 km/h (0 Bft) W-SW 246 ° 0 min 0,000 mm 0,0 UV-I 7 W/m² 5,5 °C 6,4 °C 0,0 km/h (0 Bft)
25.10.2018 08:01 6,3 °C 93 % 1019,6 hPa 0,0 mm 0,0 km/h (0 Bft) W-SW 246 ° 0 min 0,000 mm 0,0 UV-I 7 W/m² 5,3 °C 6,3 °C 0,0 km/h (0 Bft)
25.10.2018 08:02 6,2 °C 94 % 1019,7 hPa 0,0 mm 0,0 km/h (0 Bft) W-SW 246 ° 0 min 0,000 mm 0,0 UV-I 7 W/m² 5,3 °C 6,2 °C 0,0 km/h (0 Bft)
25.10.2018 08:03 6,2 °C 94 % 1019,7 hPa 0,0 mm 0,0 km/h (0 Bft) W-SW 246 ° 0 min 0,000 mm 0,0 UV-I 7 W/m² 5,3 °C 6,2 °C 0,0 km/h (0 Bft)
25.10.2018 08:04 6,2 °C 94 % 1019,7 hPa 0,0 mm 0,0 km/h (0 Bft) W-SW 246 ° 0 min 0,000 mm 0,0 UV-I 7 W/m² 5,3 °C 6,2 °C 0,0 km/h (0 Bft)
25.10.2018 08:05 6,1 °C 94 % 1019,7 hPa 0,0 mm 0,0 km/h (0 Bft) W-SW 246 ° 0 min 0,000 mm 0,0 UV-I 7 W/m² 5,2 °C 6,1 °C 0,0 km/h (0 Bft)
25.10.2018 08:06 6,2 °C 94 % 1019,7 hPa 0,0 mm 0,0 km/h (0 Bft) W-SW 246 ° 0 min 0,000 mm 0,0 UV-I 7 W/m² 5,3 °C 6,2 °C 0,0 km/h (0 Bft)
25.10.2018 08:07 6,2 °C 94 % 1019,6 hPa 0,0 mm 0,0 km/h (0 Bft) W-SW 246 ° 0 min 0,000 mm 0,0 UV-I 7 W/m² 5,3 °C 6,2 °C 0,0 km/h (0 Bft)
25.10.2018 08:08 6,1 °C 94 % 1019,6 hPa 0,0 mm 0,0 km/h (0 Bft) W-SW 246 ° 0 min 0,000 mm 0,0 UV-I 9 W/m² 5,2 °C 6,1 °C 0,0 km/h (0 Bft)
25.10.2018 08:09 6,1 °C 94 % 1019,6 hPa 0,0 mm 0,0 km/h (0 Bft) W-SW 246 ° 0 min 0,000 mm 0,0 UV-I 9 W/m² 5,2 °C 6,1 °C 0,0 km/h (0 Bft)
25.10.2018 08:10 6,1 °C 94 % 1019,6 hPa 0,0 mm 0,0 km/h (0 Bft) W-SW 246 ° 0 min 0,000 mm 0,0 UV-I 9 W/m² 5,2 °C 6,1 °C 0,0 km/h (0 Bft)
25.10.2018 08:11 6,1 °C 94 % 1019,6 hPa 0,0 mm 0,0 km/h (0 Bft) W-SW 246 ° 0 min 0,000 mm 0,0 UV-I 9 W/m² 5,2 °C 6,1 °C 0,0 km/h (0 Bft)
25.10.2018 08:12 6,0 °C 94 % 1019,6 hPa 0,0 mm 0,0 km/h (0 Bft) W-SW 246 ° 0 min 0,000 mm 0,0 UV-I 9 W/m² 5,1 °C 6,0 °C 0,0 km/h (0 Bft)
25.10.2018 08:13 5,9 °C 94 % 1019,6 hPa 0,0 mm 0,0 km/h (0 Bft) W-SW 246 ° 0 min 0,000 mm 0,0 UV-I 9 W/m² 5,0 °C 5,9 °C 0,0 km/h (0 Bft)
25.10.2018 08:14 5,9 °C 94 % 1019,5 hPa 0,0 mm 0,0 km/h (0 Bft) W-SW 246 ° 0 min 0,000 mm 0,0 UV-I 9 W/m² 5,0 °C 5,9 °C 0,0 km/h (0 Bft)
25.10.2018 08:15 5,9 °C 94 % 1019,6 hPa 0,0 mm 0,0 km/h (0 Bft) W-SW 246 ° 0 min 0,000 mm 0,0 UV-I 11 W/m² 5,0 °C 5,9 °C 0,0 km/h (0 Bft)
25.10.2018 08:16 5,9 °C 94 % 1019,6 hPa 0,0 mm 0,0 km/h (0 Bft) W-SW 246 ° 0 min 0,000 mm 0,0 UV-I 11 W/m² 5,0 °C 5,9 °C 0,0 km/h (0 Bft)
25.10.2018 08:17 5,9 °C 94 % 1019,6 hPa 0,0 mm 0,0 km/h (0 Bft) W-SW 246 ° 0 min 0,000 mm 0,0 UV-I 11 W/m² 5,0 °C 5,9 °C 0,0 km/h (0 Bft)
25.10.2018 08:18 5,8 °C 94 % 1019,6 hPa 0,0 mm 0,0 km/h (0 Bft) W-SW 246 ° 0 min 0,000 mm 0,0 UV-I 11 W/m² 4,9 °C 5,8 °C 0,0 km/h (0 Bft)
25.10.2018 08:19 5,7 °C 94 % 1019,6 hPa 0,0 mm 0,0 km/h (0 Bft) W-SW 246 ° 0 min 0,000 mm 0,0 UV-I 11 W/m² 4,8 °C 5,7 °C 0,0 km/h (0 Bft)
25.10.2018 08:20 5,7 °C 94 % 1019,5 hPa 0,0 mm 0,0 km/h (0 Bft) W-SW 246 ° 0 min 0,000 mm 0,0 UV-I 11 W/m² 4,8 °C 5,7 °C 0,0 km/h (0 Bft)
25.10.2018 08:21 5,6 °C 94 % 1019,6 hPa 0,0 mm 0,0 km/h (0 Bft) W-SW 246 ° 0 min 0,000 mm 0,0 UV-I 12 W/m² 4,7 °C 5,6 °C 0,0 km/h (0 Bft)
25.10.2018 08:22 5,6 °C 94 % 1019,6 hPa 0,0 mm 0,0 km/h (0 Bft) W-SW 246 ° 0 min 0,000 mm 0,0 UV-I 12 W/m² 4,7 °C 5,6 °C 0,0 km/h (0 Bft)
25.10.2018 08:23 5,6 °C 94 % 1019,6 hPa 0,0 mm 0,0 km/h (0 Bft) W-SW 246 ° 0 min 0,000 mm 0,0 UV-I 12 W/m² 4,7 °C 5,6 °C 0,0 km/h (0 Bft)
25.10.2018 08:24 5,6 °C 94 % 1019,6 hPa 0,0 mm 0,0 km/h (0 Bft) W-SW 246 ° 0 min 0,000 mm 0,0 UV-I 14 W/m² 4,7 °C 5,6 °C 0,0 km/h (0 Bft)
25.10.2018 08:25 5,7 °C 94 % 1019,6 hPa 0,0 mm 0,0 km/h (0 Bft) W-SW 246 ° 0 min 0,000 mm 0,0 UV-I 14 W/m² 4,8 °C 5,7 °C 0,0 km/h (0 Bft)
25.10.2018 08:26 5,7 °C 94 % 1019,6 hPa 0,0 mm 0,0 km/h (0 Bft) W-SW 246 ° 0 min 0,000 mm 0,0 UV-I 14 W/m² 4,8 °C 5,7 °C 0,0 km/h (0 Bft)
25.10.2018 08:27 5,7 °C 94 % 1019,6 hPa 0,0 mm 0,3 km/h (0 Bft) W-SW 246 ° 0 min 0,000 mm 0,0 UV-I 16 W/m² 4,8 °C 5,7 °C 1,6 km/h (1 Bft)
25.10.2018 08:28 5,8 °C 94 % 1019,6 hPa 0,0 mm 0,7 km/h (0 Bft) W-SW 246 ° 0 min 0,000 mm 0,0 UV-I 18 W/m² 4,9 °C 5,8 °C 1,6 km/h (1 Bft)
25.10.2018 08:29 5,8 °C 94 % 1019,6 hPa 0,0 mm 0,0 km/h (0 Bft) W-SW 246 ° 0 min 0,000 mm 0,0 UV-I 19 W/m² 4,9 °C 5,8 °C 0,0 km/h (0 Bft)
25.10.2018 08:30 5,8 °C 94 % 1019,5 hPa 0,0 mm 0,0 km/h (0 Bft) W-SW 246 ° 0 min 0,000 mm 0,0 UV-I 21 W/m² 4,9 °C 5,8 °C 0,0 km/h (0 Bft)
25.10.2018 08:31 5,8 °C 94 % 1019,6 hPa 0,0 mm 0,0 km/h (0 Bft) W-SW 246 ° 0 min 0,000 mm 0,0 UV-I 23 W/m² 4,9 °C 5,8 °C 0,0 km/h (0 Bft)
25.10.2018 08:32 5,7 °C 94 % 1019,5 hPa 0,0 mm 0,0 km/h (0 Bft) W-SW 246 ° 0 min 0,000 mm 0,0 UV-I 25 W/m² 4,8 °C 5,7 °C 0,0 km/h (0 Bft)
25.10.2018 08:33 5,7 °C 94 % 1019,5 hPa 0,0 mm 0,0 km/h (0 Bft) W-SW 246 ° 0 min 0,000 mm 0,0 UV-I 26 W/m² 4,8 °C 5,7 °C 0,0 km/h (0 Bft)
25.10.2018 08:34 5,6 °C 94 % 1019,5 hPa 0,0 mm 0,0 km/h (0 Bft) W-SW 246 ° 0 min 0,000 mm 0,0 UV-I 32 W/m² 4,7 °C 5,6 °C 0,0 km/h (0 Bft)
25.10.2018 08:35 5,4 °C 94 % 1019,5 hPa 0,0 mm 0,0 km/h (0 Bft) W-SW 246 ° 0 min 0,000 mm 0,0 UV-I 33 W/m² 4,5 °C 5,4 °C 0,0 km/h (0 Bft)
25.10.2018 08:36 5,4 °C 94 % 1019,5 hPa 0,0 mm 0,0 km/h (0 Bft) W-SW 246 ° 0 min 0,000 mm 0,0 UV-I 37 W/m² 4,5 °C 5,4 °C 0,0 km/h (0 Bft)
25.10.2018 08:37 5,3 °C 94 % 1019,5 hPa 0,0 mm 0,0 km/h (0 Bft) W-SW 246 ° 0 min 0,000 mm 0,0 UV-I 39 W/m² 4,4 °C 5,3 °C 0,0 km/h (0 Bft)
25.10.2018 08:38 5,3 °C 94 % 1019,5 hPa 0,0 mm 0,0 km/h (0 Bft) W-SW 246 ° 0 min 0,000 mm 0,0 UV-I 40 W/m² 4,4 °C 5,3 °C 0,0 km/h (0 Bft)
25.10.2018 08:39 5,4 °C 94 % 1019,5 hPa 0,0 mm 0,0 km/h (0 Bft) W-SW 246 ° 0 min 0,000 mm 0,0 UV-I 42 W/m² 4,5 °C 5,4 °C 0,0 km/h (0 Bft)
25.10.2018 08:40 5,4 °C 94 % 1019,5 hPa 0,0 mm 0,0 km/h (0 Bft) W-SW 246 ° 0 min 0,000 mm 0,0 UV-I 44 W/m² 4,5 °C 5,4 °C 0,0 km/h (0 Bft)
25.10.2018 08:41 5,5 °C 95 % 1019,6 hPa 0,0 mm 0,0 km/h (0 Bft) W-SW 246 ° 0 min 0,000 mm 0,0 UV-I 44 W/m² 4,8 °C 5,5 °C 0,0 km/h (0 Bft)
25.10.2018 08:42 5,6 °C 95 % 1019,5 hPa 0,0 mm 0,0 km/h (0 Bft) W-SW 246 ° 0 min 0,000 mm 0,0 UV-I 44 W/m² 4,9 °C 5,6 °C 0,0 km/h (0 Bft)
25.10.2018 08:43 5,6 °C 95 % 1019,5 hPa 0,0 mm 0,0 km/h (0 Bft) W-SW 246 ° 0 min 0,000 mm 0,0 UV-I 44 W/m² 4,9 °C 5,6 °C 0,0 km/h (0 Bft)
25.10.2018 08:44 5,5 °C 95 % 1019,5 hPa 0,0 mm 0,0 km/h (0 Bft) W-SW 246 ° 0 min 0,000 mm 0,0 UV-I 46 W/m² 4,8 °C 5,5 °C 0,0 km/h (0 Bft)
25.10.2018 08:45 5,6 °C 95 % 1019,5 hPa 0,0 mm 0,0 km/h (0 Bft) W-SW 246 ° 0 min 0,000 mm 0,0 UV-I 46 W/m² 4,9 °C 5,6 °C 0,0 km/h (0 Bft)
25.10.2018 08:46 5,6 °C 95 % 1019,5 hPa 0,0 mm 0,0 km/h (0 Bft) W-SW 246 ° 0 min 0,000 mm 0,0 UV-I 44 W/m² 4,9 °C 5,6 °C 0,0 km/h (0 Bft)
25.10.2018 08:47 5,6 °C 95 % 1019,4 hPa 0,0 mm 0,0 km/h (0 Bft) W-SW 246 ° 0 min 0,000 mm 0,0 UV-I 44 W/m² 4,9 °C 5,6 °C 0,0 km/h (0 Bft)
25.10.2018 08:48 5,7 °C 95 % 1019,5 hPa 0,0 mm 0,0 km/h (0 Bft) W-SW 246 ° 0 min 0,000 mm 0,0 UV-I 44 W/m² 5,0 °C 5,7 °C 0,0 km/h (0 Bft)
25.10.2018 08:49 5,6 °C 95 % 1019,5 hPa 0,0 mm 0,0 km/h (0 Bft) W-SW 246 ° 0 min 0,000 mm 0,0 UV-I 42 W/m² 4,9 °C 5,6 °C 0,0 km/h (0 Bft)
25.10.2018 08:50 5,6 °C 95 % 1019,4 hPa 0,0 mm 0,0 km/h (0 Bft) W-SW 246 ° 0 min 0,000 mm 0,0 UV-I 42 W/m² 4,9 °C 5,6 °C 0,0 km/h (0 Bft)
25.10.2018 08:51 5,6 °C 95 % 1019,4 hPa 0,0 mm 0,0 km/h (0 Bft) W-SW 246 ° 0 min 0,000 mm 0,0 UV-I 42 W/m² 4,9 °C 5,6 °C 0,0 km/h (0 Bft)
25.10.2018 08:52 5,7 °C 95 % 1019,4 hPa 0,0 mm 0,0 km/h (0 Bft) W-SW 246 ° 0 min 0,000 mm 0,0 UV-I 40 W/m² 5,0 °C 5,7 °C 0,0 km/h (0 Bft)
25.10.2018 08:53 5,7 °C 95 % 1019,3 hPa 0,0 mm 0,0 km/h (0 Bft) W-SW 246 ° 0 min 0,000 mm 0,0 UV-I 39 W/m² 5,0 °C 5,7 °C 0,0 km/h (0 Bft)
25.10.2018 08:54 5,8 °C 95 % 1019,4 hPa 0,0 mm 0,0 km/h (0 Bft) W-SW 246 ° 0 min 0,000 mm 0,0 UV-I 37 W/m² 5,1 °C 5,8 °C 0,0 km/h (0 Bft)
25.10.2018 08:55 5,8 °C 95 % 1019,3 hPa 0,0 mm 0,0 km/h (0 Bft) W-SW 246 ° 0 min 0,000 mm 0,0 UV-I 35 W/m² 5,1 °C 5,8 °C 0,0 km/h (0 Bft)
25.10.2018 08:56 5,8 °C 95 % 1019,4 hPa 0,0 mm 0,0 km/h (0 Bft) W-SW 246 ° 0 min 0,000 mm 0,0 UV-I 35 W/m² 5,1 °C 5,8 °C 0,0 km/h (0 Bft)
25.10.2018 08:57 5,8 °C 95 % 1019,4 hPa 0,0 mm 0,0 km/h (0 Bft) W-SW 246 ° 0 min 0,000 mm 0,0 UV-I 33 W/m² 5,1 °C 5,8 °C 0,0 km/h (0 Bft)
25.10.2018 08:58 5,9 °C 95 % 1019,4 hPa 0,0 mm 0,0 km/h (0 Bft) W-SW 246 ° 0 min 0,000 mm 0,0 UV-I 32 W/m² 5,2 °C 5,9 °C 0,0 km/h (0 Bft)
25.10.2018 08:59 5,9 °C 95 % 1019,4 hPa 0,0 mm 0,0 km/h (0 Bft) W-SW 246 ° 0 min 0,000 mm 0,0 UV-I 30 W/m² 5,2 °C 5,9 °C 0,0 km/h (0 Bft)
25.10.2018 09:00 5,9 °C 95 % 1019,4 hPa 0,0 mm 0,0 km/h (0 Bft) W-SW 246 ° 0 min 0,000 mm 0,0 UV-I 30 W/m² 5,2 °C 5,9 °C 0,0 km/h (0 Bft)
25.10.2018 09:01 6,1 °C 95 % 1019,3 hPa 0,0 mm 0,0 km/h (0 Bft) W-SW 246 ° 0 min 0,000 mm 0,0 UV-I 30 W/m² 5,4 °C 6,1 °C 0,0 km/h (0 Bft)
25.10.2018 09:03 6,4 °C 95 % 1019,4 hPa 0,0 mm 1,3 km/h (1 Bft) W-SW 246 ° 0 min 0,000 mm 0,0 UV-I 30 W/m² 5,7 °C 6,4 °C 3,2 km/h (1 Bft)
25.10.2018 09:04 6,6 °C 95 % 1019,3 hPa 0,0 mm 0,0 km/h (0 Bft) W-SW 246 ° 0 min 0,000 mm 0,0 UV-I 32 W/m² 5,9 °C 6,6 °C 0,0 km/h (0 Bft)
25.10.2018 09:05 6,7 °C 95 % 1019,3 hPa 0,0 mm 0,3 km/h (0 Bft) W-SW 246 ° 0 min 0,000 mm 0,0 UV-I 33 W/m² 6,0 °C 6,7 °C 1,6 km/h (1 Bft)
25.10.2018 09:06 6,7 °C 95 % 1019,3 hPa 0,0 mm 0,3 km/h (0 Bft) W-SW 246 ° 0 min 0,000 mm 0,0 UV-I 33 W/m² 6,0 °C 6,7 °C 1,6 km/h (1 Bft)
25.10.2018 09:07 6,8 °C 95 % 1019,3 hPa 0,0 mm 0,0 km/h (0 Bft) W-SW 246 ° 0 min 0,000 mm 0,0 UV-I 35 W/m² 6,1 °C 6,8 °C 0,0 km/h (0 Bft)
25.10.2018 09:08 6,9 °C 95 % 1019,3 hPa 0,0 mm 0,0 km/h (0 Bft) W-SW 246 ° 0 min 0,000 mm 0,0 UV-I 35 W/m² 6,2 °C 6,9 °C 0,0 km/h (0 Bft)
25.10.2018 09:09 7,0 °C 95 % 1019,4 hPa 0,0 mm 0,7 km/h (0 Bft) W-SW 246 ° 0 min 0,000 mm 0,0 UV-I 37 W/m² 6,3 °C 7,0 °C 1,6 km/h (1 Bft)
25.10.2018 09:10 7,1 °C 95 % 1019,3 hPa 0,0 mm 0,9 km/h (0 Bft) W-SW 246 ° 0 min 0,000 mm 0,0 UV-I 39 W/m² 6,4 °C 7,1 °C 3,2 km/h (1 Bft)
25.10.2018 09:11 7,2 °C 95 % 1019,3 hPa 0,0 mm 0,0 km/h (0 Bft) W-SW 246 ° 0 min 0,000 mm 0,0 UV-I 40 W/m² 6,5 °C 7,2 °C 0,0 km/h (0 Bft)
25.10.2018 09:12 7,2 °C 95 % 1019,3 hPa 0,0 mm 0,0 km/h (0 Bft) W-SW 246 ° 0 min 0,000 mm 0,0 UV-I 40 W/m² 6,5 °C 7,2 °C 0,0 km/h (0 Bft)
25.10.2018 09:13 7,2 °C 95 % 1019,3 hPa 0,0 mm 0,0 km/h (0 Bft) W-SW 246 ° 0 min 0,000 mm 0,0 UV-I 40 W/m² 6,5 °C 7,2 °C 0,0 km/h (0 Bft)
25.10.2018 09:14 7,1 °C 95 % 1019,3 hPa 0,0 mm 0,0 km/h (0 Bft) W-SW 246 ° 0 min 0,000 mm 0,0 UV-I 42 W/m² 6,4 °C 7,1 °C 0,0 km/h (0 Bft)
25.10.2018 09:15 7,1 °C 95 % 1019,2 hPa 0,0 mm 0,0 km/h (0 Bft) W-SW 246 ° 0 min 0,000 mm 0,0 UV-I 42 W/m² 6,4 °C 7,1 °C 0,0 km/h (0 Bft)
25.10.2018 09:16 7,0 °C 95 % 1019,3 hPa 0,0 mm 0,0 km/h (0 Bft) W-SW 246 ° 0 min 0,000 mm 0,0 UV-I 42 W/m² 6,3 °C 7,0 °C 0,0 km/h (0 Bft)
25.10.2018 09:17 7,1 °C 95 % 1019,3 hPa 0,0 mm 0,0 km/h (0 Bft) W-SW 246 ° 0 min 0,000 mm 0,0 UV-I 42 W/m² 6,4 °C 7,1 °C 0,0 km/h (0 Bft)
25.10.2018 09:18 7,1 °C 95 % 1019,3 hPa 0,0 mm 0,0 km/h (0 Bft) W-SW 246 ° 0 min 0,000 mm 0,0 UV-I 44 W/m² 6,4 °C 7,1 °C 0,0 km/h (0 Bft)
25.10.2018 09:19 7,1 °C 95 % 1019,3 hPa 0,0 mm 0,0 km/h (0 Bft) W-SW 246 ° 0 min 0,000 mm 0,0 UV-I 44 W/m² 6,4 °C 7,1 °C 0,0 km/h (0 Bft)
25.10.2018 09:20 7,2 °C 95 % 1019,2 hPa 0,0 mm 0,0 km/h (0 Bft) W-SW 246 ° 0 min 0,000 mm 0,0 UV-I 46 W/m² 6,5 °C 7,2 °C 0,0 km/h (0 Bft)
25.10.2018 09:21 7,2 °C 95 % 1019,3 hPa 0,0 mm 0,0 km/h (0 Bft) W-SW 246 ° 0 min 0,000 mm 0,0 UV-I 46 W/m² 6,5 °C 7,2 °C 0,0 km/h (0 Bft)
25.10.2018 09:22 7,2 °C 95 % 1019,3 hPa 0,0 mm 0,0 km/h (0 Bft) W-SW 246 ° 0 min 0,000 mm 0,0 UV-I 47 W/m² 6,5 °C 7,2 °C 0,0 km/h (0 Bft)
25.10.2018 09:23 7,2 °C 95 % 1019,3 hPa 0,0 mm 1,6 km/h (1 Bft) W-SW 246 ° 0 min 0,000 mm 0,0 UV-I 49 W/m² 6,5 °C 7,2 °C 3,2 km/h (1 Bft)
25.10.2018 09:24 7,3 °C 95 % 1019,3 hPa 0,0 mm 3,0 km/h (1 Bft) W-SW 246 ° 0 min 0,000 mm 0,0 UV-I 49 W/m² 6,6 °C 7,3 °C 4,8 km/h (1 Bft)
25.10.2018 09:25 7,3 °C 95 % 1019,2 hPa 0,0 mm 0,6 km/h (0 Bft) W-SW 246 ° 0 min 0,000 mm 0,0 UV-I 51 W/m² 6,6 °C 7,3 °C 1,6 km/h (1 Bft)
25.10.2018 09:26 7,3 °C 95 % 1019,2 hPa 0,0 mm 0,0 km/h (0 Bft) W-SW 246 ° 0 min 0,000 mm 0,0 UV-I 53 W/m² 6,6 °C 7,3 °C 0,0 km/h (0 Bft)
25.10.2018 09:27 7,4 °C 95 % 1019,2 hPa 0,0 mm 0,0 km/h (0 Bft) W-SW 246 ° 0 min 0,000 mm 0,0 UV-I 54 W/m² 6,7 °C 7,4 °C 0,0 km/h (0 Bft)
25.10.2018 09:28 7,4 °C 95 % 1019,3 hPa 0,0 mm 0,1 km/h (0 Bft) W-SW 246 ° 0 min 0,000 mm 0,0 UV-I 54 W/m² 6,7 °C 7,4 °C 1,6 km/h (1 Bft)
25.10.2018 09:29 7,4 °C 95 % 1019,3 hPa 0,0 mm 0,0 km/h (0 Bft) W-SW 246 ° 0 min 0,000 mm 0,0 UV-I 53 W/m² 6,7 °C 7,4 °C 0,0 km/h (0 Bft)
25.10.2018 09:30 7,4 °C 95 % 1019,2 hPa 0,0 mm 0,0 km/h (0 Bft) W-SW 246 ° 0 min 0,000 mm 0,0 UV-I 53 W/m² 6,7 °C 7,4 °C 0,0 km/h (0 Bft)
25.10.2018 09:31 7,5 °C 95 % 1019,2 hPa 0,0 mm 0,0 km/h (0 Bft) W-SW 246 ° 0 min 0,000 mm 0,0 UV-I 49 W/m² 6,8 °C 7,5 °C 0,0 km/h (0 Bft)
25.10.2018 09:32 7,6 °C 95 % 1019,3 hPa 0,0 mm 2,0 km/h (1 Bft) W-SW 246 ° 0 min 0,000 mm 0,0 UV-I 46 W/m² 6,9 °C 7,6 °C 3,2 km/h (1 Bft)
25.10.2018 09:33 7,6 °C 95 % 1019,3 hPa 0,0 mm 0,8 km/h (0 Bft) W-SW 246 ° 0 min 0,000 mm 0,0 UV-I 37 W/m² 6,9 °C 7,6 °C 3,2 km/h (1 Bft)
25.10.2018 09:34 7,6 °C 95 % 1019,2 hPa 0,0 mm 0,1 km/h (0 Bft) W-SW 246 ° 0 min 0,000 mm 0,0 UV-I 32 W/m² 6,9 °C 7,6 °C 1,6 km/h (1 Bft)
25.10.2018 09:35 7,7 °C 95 % 1019,3 hPa 0,0 mm 0,0 km/h (0 Bft) W-SW 246 ° 0 min 0,000 mm 0,0 UV-I 28 W/m² 7,0 °C 7,7 °C 0,0 km/h (0 Bft)
25.10.2018 09:36 7,7 °C 95 % 1019,3 hPa 0,0 mm 0,0 km/h (0 Bft) W-SW 246 ° 0 min 0,000 mm 0,0 UV-I 25 W/m² 7,0 °C 7,7 °C 0,0 km/h (0 Bft)
25.10.2018 09:37 7,7 °C 95 % 1019,3 hPa 0,0 mm 0,0 km/h (0 Bft) W-SW 246 ° 0 min 0,000 mm 0,0 UV-I 23 W/m² 7,0 °C 7,7 °C 0,0 km/h (0 Bft)
25.10.2018 09:38 7,7 °C 95 % 1019,3 hPa 0,0 mm 0,0 km/h (0 Bft) W-SW 246 ° 0 min 0,000 mm 0,0 UV-I 21 W/m² 7,0 °C 7,7 °C 0,0 km/h (0 Bft)
25.10.2018 09:39 7,8 °C 95 % 1019,3 hPa 0,0 mm 0,0 km/h (0 Bft) W-SW 246 ° 0 min 0,000 mm 0,0 UV-I 19 W/m² 7,0 °C 7,8 °C 0,0 km/h (0 Bft)
25.10.2018 09:40 7,8 °C 95 % 1019,3 hPa 0,0 mm 0,0 km/h (0 Bft) W-SW 246 ° 0 min 0,000 mm 0,0 UV-I 19 W/m² 7,0 °C 7,8 °C 0,0 km/h (0 Bft)
25.10.2018 09:41 7,8 °C 95 % 1019,3 hPa 0,0 mm 0,0 km/h (0 Bft) W-SW 246 ° 0 min 0,000 mm 0,0 UV-I 19 W/m² 7,0 °C 7,8 °C 0,0 km/h (0 Bft)
25.10.2018 09:42 7,7 °C 95 % 1019,3 hPa 0,0 mm 0,0 km/h (0 Bft) W-SW 246 ° 0 min 0,000 mm 0,0 UV-I 19 W/m² 7,0 °C 7,7 °C 0,0 km/h (0 Bft)
25.10.2018 09:43 7,7 °C 95 % 1019,3 hPa 0,0 mm 0,0 km/h (0 Bft) W-SW 246 ° 0 min 0,000 mm 0,0 UV-I 18 W/m² 7,0 °C 7,7 °C 0,0 km/h (0 Bft)
25.10.2018 09:44 7,7 °C 95 % 1019,3 hPa 0,0 mm 0,0 km/h (0 Bft) W-SW 246 ° 0 min 0,000 mm 0,0 UV-I 18 W/m² 7,0 °C 7,7 °C 0,0 km/h (0 Bft)
25.10.2018 09:45 7,8 °C 95 % 1019,3 hPa 0,0 mm 0,0 km/h (0 Bft) W-SW 246 ° 0 min 0,000 mm 0,0 UV-I 18 W/m² 7,0 °C 7,8 °C 0,0 km/h (0 Bft)
25.10.2018 09:46 7,7 °C 95 % 1019,3 hPa 0,0 mm 0,0 km/h (0 Bft) W-SW 246 ° 0 min 0,000 mm 0,0 UV-I 18 W/m² 7,0 °C 7,7 °C 0,0 km/h (0 Bft)
25.10.2018 09:47 7,7 °C 95 % 1019,3 hPa 0,0 mm 0,0 km/h (0 Bft) W-SW 246 ° 0 min 0,000 mm 0,0 UV-I 18 W/m² 7,0 °C 7,7 °C 0,0 km/h (0 Bft)
25.10.2018 09:48 7,7 °C 95 % 1019,3 hPa 0,0 mm 0,0 km/h (0 Bft) W-SW 246 ° 0 min 0,000 mm 0,0 UV-I 18 W/m² 7,0 °C 7,7 °C 0,0 km/h (0 Bft)
25.10.2018 09:49 7,8 °C 95 % 1019,3 hPa 0,0 mm 0,0 km/h (0 Bft) W-SW 246 ° 0 min 0,000 mm 0,0 UV-I 18 W/m² 7,0 °C 7,8 °C 0,0 km/h (0 Bft)
25.10.2018 09:50 7,8 °C 95 % 1019,3 hPa 0,0 mm 0,0 km/h (0 Bft) W-SW 246 ° 0 min 0,000 mm 0,0 UV-I 18 W/m² 7,0 °C 7,8 °C 0,0 km/h (0 Bft)
25.10.2018 09:51 7,8 °C 95 % 1019,3 hPa 0,0 mm 0,0 km/h (0 Bft) W-SW 246 ° 0 min 0,000 mm 0,0 UV-I 18 W/m² 7,0 °C 7,8 °C 0,0 km/h (0 Bft)
25.10.2018 09:52 7,9 °C 95 % 1019,2 hPa 0,0 mm 0,0 km/h (0 Bft) W-SW 246 ° 0 min 0,000 mm 0,0 UV-I 19 W/m² 7,1 °C 7,9 °C 0,0 km/h (0 Bft)
25.10.2018 09:53 7,9 °C 95 % 1019,2 hPa 0,0 mm 0,1 km/h (0 Bft) W-SW 246 ° 0 min 0,000 mm 0,0 UV-I 19 W/m² 7,1 °C 7,9 °C 1,6 km/h (1 Bft)
25.10.2018 09:54 7,9 °C 95 % 1019,2 hPa 0,0 mm 0,0 km/h (0 Bft) W-SW 246 ° 0 min 0,000 mm 0,0 UV-I 19 W/m² 7,1 °C 7,9 °C 0,0 km/h (0 Bft)
25.10.2018 09:55 7,9 °C 95 % 1019,2 hPa 0,0 mm 0,0 km/h (0 Bft) W-SW 246 ° 0 min 0,000 mm 0,0 UV-I 19 W/m² 7,1 °C 7,9 °C 0,0 km/h (0 Bft)
25.10.2018 09:56 7,9 °C 95 % 1019,2 hPa 0,0 mm 0,0 km/h (0 Bft) W-SW 246 ° 0 min 0,000 mm 0,0 UV-I 19 W/m² 7,1 °C 7,9 °C 0,0 km/h (0 Bft)
25.10.2018 09:57 7,9 °C 95 % 1019,2 hPa 0,0 mm 0,7 km/h (0 Bft) W-SW 246 ° 0 min 0,000 mm 0,0 UV-I 19 W/m² 7,1 °C 7,9 °C 1,6 km/h (1 Bft)
25.10.2018 09:58 7,9 °C 95 % 1019,2 hPa 0,0 mm 0,1 km/h (0 Bft) W-SW 246 ° 0 min 0,000 mm 0,0 UV-I 19 W/m² 7,1 °C 7,9 °C 1,6 km/h (1 Bft)
25.10.2018 09:59 7,9 °C 95 % 1019,2 hPa 0,0 mm 0,0 km/h (0 Bft) W-SW 246 ° 0 min 0,000 mm 0,0 UV-I 19 W/m² 7,1 °C 7,9 °C 0,0 km/h (0 Bft)
25.10.2018 10:00 8,0 °C 95 % 1019,2 hPa 0,0 mm 0,0 km/h (0 Bft) W-SW 246 ° 0 min 0,000 mm 0,0 UV-I 19 W/m² 7,2 °C 8,0 °C 0,0 km/h (0 Bft)
25.10.2018 10:01 7,9 °C 95 % 1019,2 hPa 0,0 mm 0,0 km/h (0 Bft) W-SW 246 ° 0 min 0,025 mm 0,0 UV-I 19 W/m² 7,1 °C 7,9 °C 0,0 km/h (0 Bft)
25.10.2018 10:02 8,0 °C 95 % 1019,2 hPa 0,0 mm 0,0 km/h (0 Bft) W-SW 246 ° 0 min 0,000 mm 0,0 UV-I 19 W/m² 7,2 °C 8,0 °C 0,0 km/h (0 Bft)
25.10.2018 10:03 7,9 °C 95 % 1019,1 hPa 0,0 mm 0,0 km/h (0 Bft) W-SW 246 ° 0 min 0,000 mm 0,0 UV-I 19 W/m² 7,1 °C 7,9 °C 0,0 km/h (0 Bft)
25.10.2018 10:04 7,9 °C 95 % 1019,1 hPa 0,0 mm 0,0 km/h (0 Bft) W-SW 246 ° 0 min 0,000 mm 0,0 UV-I 19 W/m² 7,1 °C 7,9 °C 0,0 km/h (0 Bft)
25.10.2018 10:05 7,8 °C 95 % 1019,1 hPa 0,0 mm 0,0 km/h (0 Bft) W-SW 246 ° 0 min 0,000 mm 0,0 UV-I 21 W/m² 7,0 °C 7,8 °C 0,0 km/h (0 Bft)
25.10.2018 10:06 7,8 °C 95 % 1019,1 hPa 0,0 mm 0,0 km/h (0 Bft) W-SW 246 ° 0 min 0,000 mm 0,0 UV-I 21 W/m² 7,0 °C 7,8 °C 0,0 km/h (0 Bft)
25.10.2018 10:07 7,8 °C 95 % 1019,1 hPa 0,0 mm 0,0 km/h (0 Bft) W-SW 246 ° 0 min 0,000 mm 0,0 UV-I 21 W/m² 7,0 °C 7,8 °C 0,0 km/h (0 Bft)
25.10.2018 10:08 7,9 °C 95 % 1019,1 hPa 0,0 mm 0,0 km/h (0 Bft) W-SW 246 ° 0 min 0,000 mm 0,0 UV-I 21 W/m² 7,1 °C 7,9 °C 0,0 km/h (0 Bft)
25.10.2018 10:09 8,0 °C 95 % 1019,1 hPa 0,0 mm 0,0 km/h (0 Bft) W-SW 246 ° 0 min 0,000 mm 0,0 UV-I 21 W/m² 7,2 °C 8,0 °C 0,0 km/h (0 Bft)
25.10.2018 10:10 8,0 °C 95 % 1019,1 hPa 0,0 mm 0,0 km/h (0 Bft) W-SW 246 ° 0 min 0,000 mm 0,0 UV-I 21 W/m² 7,2 °C 8,0 °C 0,0 km/h (0 Bft)
25.10.2018 10:11 7,9 °C 95 % 1019,1 hPa 0,0 mm 0,0 km/h (0 Bft) W-SW 246 ° 0 min 0,000 mm 0,0 UV-I 21 W/m² 7,1 °C 7,9 °C 0,0 km/h (0 Bft)
25.10.2018 10:12 7,9 °C 95 % 1019,1 hPa 0,0 mm 0,0 km/h (0 Bft) W-SW 246 ° 0 min 0,000 mm 0,0 UV-I 21 W/m² 7,1 °C 7,9 °C 0,0 km/h (0 Bft)
25.10.2018 10:13 7,9 °C 95 % 1019,1 hPa 0,0 mm 0,0 km/h (0 Bft) W-SW 246 ° 0 min 0,000 mm 0,0 UV-I 21 W/m² 7,1 °C 7,9 °C 0,0 km/h (0 Bft)
25.10.2018 10:14 8,0 °C 95 % 1019,1 hPa 0,0 mm 0,0 km/h (0 Bft) W-SW 246 ° 0 min 0,000 mm 0,0 UV-I 21 W/m² 7,2 °C 8,0 °C 0,0 km/h (0 Bft)
25.10.2018 10:15 8,1 °C 95 % 1019,1 hPa 0,0 mm 0,0 km/h (0 Bft) W-SW 246 ° 0 min 0,000 mm 0,0 UV-I 21 W/m² 7,3 °C 8,1 °C 0,0 km/h (0 Bft)
25.10.2018 10:16 8,2 °C 95 % 1019,0 hPa 0,0 mm 0,0 km/h (0 Bft) W-SW 246 ° 0 min 0,000 mm 0,0 UV-I 21 W/m² 7,4 °C 8,2 °C 0,0 km/h (0 Bft)
25.10.2018 10:17 8,3 °C 95 % 1019,1 hPa 0,0 mm 0,0 km/h (0 Bft) W-SW 246 ° 0 min 0,000 mm 0,0 UV-I 21 W/m² 7,5 °C 8,3 °C 0,0 km/h (0 Bft)
25.10.2018 10:18 8,3 °C 95 % 1019,1 hPa 0,0 mm 0,1 km/h (0 Bft) W-SW 246 ° 0 min 0,000 mm 0,0 UV-I 21 W/m² 7,5 °C 8,3 °C 1,6 km/h (1 Bft)
25.10.2018 10:19 8,4 °C 95 % 1019,1 hPa 0,0 mm 0,0 km/h (0 Bft) W-SW 246 ° 0 min 0,000 mm 0,0 UV-I 21 W/m² 7,6 °C 8,4 °C 0,0 km/h (0 Bft)
25.10.2018 10:20 8,4 °C 95 % 1019,1 hPa 0,0 mm 0,0 km/h (0 Bft) W-SW 246 ° 0 min 0,000 mm 0,0 UV-I 21 W/m² 7,6 °C 8,4 °C 0,0 km/h (0 Bft)
25.10.2018 10:21 8,6 °C 95 % 1019,1 hPa 0,0 mm 0,0 km/h (0 Bft) W-SW 246 ° 0 min 0,000 mm 0,0 UV-I 21 W/m² 7,8 °C 8,6 °C 0,0 km/h (0 Bft)
25.10.2018 10:22 8,6 °C 95 % 1019,1 hPa 0,0 mm 0,0 km/h (0 Bft) W-SW 246 ° 0 min 0,000 mm 0,0 UV-I 21 W/m² 7,8 °C 8,6 °C 0,0 km/h (0 Bft)
25.10.2018 10:23 8,6 °C 95 % 1019,1 hPa 0,0 mm 0,1 km/h (0 Bft) W-SW 246 ° 0 min 0,000 mm 0,0 UV-I 21 W/m² 7,8 °C 8,6 °C 1,6 km/h (1 Bft)
25.10.2018 10:24 8,7 °C 95 % 1019,1 hPa 0,0 mm 0,8 km/h (0 Bft) W-SW 246 ° 0 min 0,000 mm 0,0 UV-I 21 W/m² 7,9 °C 8,7 °C 1,6 km/h (1 Bft)
25.10.2018 10:25 8,7 °C 95 % 1019,1 hPa 0,0 mm 0,1 km/h (0 Bft) W-SW 246 ° 0 min 0,000 mm 0,0 UV-I 21 W/m² 7,9 °C 8,7 °C 1,6 km/h (1 Bft)
25.10.2018 10:26 8,8 °C 95 % 1019,1 hPa 0,0 mm 0,0 km/h (0 Bft) W-SW 246 ° 0 min 0,000 mm 0,0 UV-I 21 W/m² 8,0 °C 8,8 °C 0,0 km/h (0 Bft)
25.10.2018 10:27 8,8 °C 95 % 1019,1 hPa 0,0 mm 0,0 km/h (0 Bft) W-SW 246 ° 0 min 0,000 mm 0,0 UV-I 21 W/m² 8,0 °C 8,8 °C 0,0 km/h (0 Bft)
25.10.2018 10:28 8,8 °C 95 % 1019,1 hPa 0,0 mm 0,1 km/h (0 Bft) W-SW 246 ° 0 min 0,000 mm 0,0 UV-I 21 W/m² 8,0 °C 8,8 °C 1,6 km/h (1 Bft)
25.10.2018 10:29 8,9 °C 94 % 1019,1 hPa 0,0 mm 0,2 km/h (0 Bft) W-SW 246 ° 0 min 0,000 mm 0,0 UV-I 21 W/m² 8,0 °C 8,9 °C 1,6 km/h (1 Bft)
25.10.2018 10:30 8,9 °C 94 % 1019,1 hPa 0,0 mm 0,0 km/h (0 Bft) W-SW 246 ° 0 min 0,000 mm 0,0 UV-I 23 W/m² 8,0 °C 8,9 °C 0,0 km/h (0 Bft)
25.10.2018 10:31 8,8 °C 94 % 1019,1 hPa 0,0 mm 0,0 km/h (0 Bft) W-SW 246 ° 0 min 0,000 mm 0,0 UV-I 23 W/m² 7,9 °C 8,8 °C 0,0 km/h (0 Bft)
25.10.2018 10:32 8,7 °C 94 % 1019,1 hPa 0,0 mm 0,0 km/h (0 Bft) W-SW 246 ° 0 min 0,000 mm 0,0 UV-I 21 W/m² 7,8 °C 8,7 °C 0,0 km/h (0 Bft)
25.10.2018 10:33 8,8 °C 94 % 1019,1 hPa 0,0 mm 0,5 km/h (0 Bft) W-SW 246 ° 0 min 0,000 mm 0,0 UV-I 21 W/m² 7,9 °C 8,8 °C 1,6 km/h (1 Bft)
25.10.2018 10:34 8,7 °C 94 % 1019,1 hPa 0,0 mm 0,0 km/h (0 Bft) W-SW 246 ° 0 min 0,000 mm 0,0 UV-I 23 W/m² 7,8 °C 8,7 °C 0,0 km/h (0 Bft)
25.10.2018 10:35 8,6 °C 94 % 1019,1 hPa 0,0 mm 0,1 km/h (0 Bft) W-SW 246 ° 0 min 0,000 mm 0,0 UV-I 23 W/m² 7,7 °C 8,6 °C 1,6 km/h (1 Bft)
25.10.2018 10:36 8,6 °C 94 % 1019,1 hPa 0,0 mm 1,5 km/h (1 Bft) W-SW 246 ° 0 min 0,000 mm 0,0 UV-I 23 W/m² 7,7 °C 8,6 °C 3,2 km/h (1 Bft)
25.10.2018 10:37 8,6 °C 94 % 1019,2 hPa 0,0 mm 3,1 km/h (1 Bft) NW 319 ° 0 min 0,000 mm 0,0 UV-I 23 W/m² 7,7 °C 8,6 °C 6,4 km/h (2 Bft)
25.10.2018 10:38 8,7 °C 94 % 1019,2 hPa 0,0 mm 2,5 km/h (1 Bft) NW 319 ° 0 min 0,000 mm 0,0 UV-I 23 W/m² 7,8 °C 8,7 °C 3,2 km/h (1 Bft)
25.10.2018 10:39 8,8 °C 94 % 1019,2 hPa 0,0 mm 1,7 km/h (1 Bft) NW 319 ° 0 min 0,000 mm 0,0 UV-I 23 W/m² 7,9 °C 8,8 °C 4,8 km/h (1 Bft)
25.10.2018 10:40 8,9 °C 94 % 1019,2 hPa 0,0 mm 1,4 km/h (1 Bft) NW 319 ° 0 min 0,000 mm 0,0 UV-I 23 W/m² 8,0 °C 8,9 °C 3,2 km/h (1 Bft)
25.10.2018 10:41 9,1 °C 94 % 1019,2 hPa 0,0 mm 2,3 km/h (1 Bft) NW 319 ° 0 min 0,000 mm 0,0 UV-I 23 W/m² 8,2 °C 9,1 °C 3,2 km/h (1 Bft)
25.10.2018 10:42 9,2 °C 94 % 1019,1 hPa 0,0 mm 0,7 km/h (0 Bft) NW 319 ° 0 min 0,000 mm 0,0 UV-I 23 W/m² 8,3 °C 9,2 °C 1,6 km/h (1 Bft)
25.10.2018 10:43 9,2 °C 94 % 1019,2 hPa 0,0 mm 1,7 km/h (1 Bft) NW 319 ° 0 min 0,000 mm 0,0 UV-I 23 W/m² 8,3 °C 9,2 °C 3,2 km/h (1 Bft)
25.10.2018 10:44 9,3 °C 94 % 1019,2 hPa 0,0 mm 1,6 km/h (1 Bft) NW 319 ° 0 min 0,000 mm 0,0 UV-I 23 W/m² 8,4 °C 9,3 °C 3,2 km/h (1 Bft)
25.10.2018 10:45 9,3 °C 94 % 1019,2 hPa 0,0 mm 1,7 km/h (1 Bft) NW 319 ° 0 min 0,000 mm 0,0 UV-I 23 W/m² 8,4 °C 9,3 °C 4,8 km/h (1 Bft)
25.10.2018 10:46 9,3 °C 94 % 1019,2 hPa 0,0 mm 0,7 km/h (0 Bft) NW 319 ° 0 min 0,000 mm 0,0 UV-I 23 W/m² 8,4 °C 9,3 °C 3,2 km/h (1 Bft)
25.10.2018 10:47 9,4 °C 93 % 1019,2 hPa 0,0 mm 0,5 km/h (0 Bft) NW 319 ° 0 min 0,000 mm 0,0 UV-I 23 W/m² 8,3 °C 9,4 °C 1,6 km/h (1 Bft)
25.10.2018 10:48 9,4 °C 93 % 1019,2 hPa 0,0 mm 0,4 km/h (0 Bft) NW 319 ° 0 min 0,000 mm 0,0 UV-I 25 W/m² 8,3 °C 9,4 °C 1,6 km/h (1 Bft)
25.10.2018 10:49 9,4 °C 93 % 1019,2 hPa 0,0 mm 0,5 km/h (0 Bft) NW 319 ° 0 min 0,000 mm 0,0 UV-I 25 W/m² 8,3 °C 9,4 °C 1,6 km/h (1 Bft)
25.10.2018 10:50 9,4 °C 93 % 1019,2 hPa 0,0 mm 0,1 km/h (0 Bft) NW 319 ° 0 min 0,000 mm 0,0 UV-I 25 W/m² 8,3 °C 9,4 °C 1,6 km/h (1 Bft)
25.10.2018 10:51 9,4 °C 93 % 1019,2 hPa 0,0 mm 0,2 km/h (0 Bft) NW 319 ° 0 min 0,000 mm 0,0 UV-I 25 W/m² 8,3 °C 9,4 °C 1,6 km/h (1 Bft)
25.10.2018 10:52 9,4 °C 93 % 1019,2 hPa 0,0 mm 0,0 km/h (0 Bft) NW 319 ° 0 min 0,000 mm 0,0 UV-I 26 W/m² 8,3 °C 9,4 °C 0,0 km/h (0 Bft)
25.10.2018 10:53 9,3 °C 93 % 1019,1 hPa 0,0 mm 0,0 km/h (0 Bft) NW 319 ° 0 min 0,000 mm 0,0 UV-I 26 W/m² 8,2 °C 9,3 °C 0,0 km/h (0 Bft)
25.10.2018 10:54 9,3 °C 93 % 1019,0 hPa 0,0 mm 0,0 km/h (0 Bft) NW 319 ° 0 min 0,000 mm 0,0 UV-I 26 W/m² 8,2 °C 9,3 °C 0,0 km/h (0 Bft)
25.10.2018 10:55 9,4 °C 93 % 1019,1 hPa 0,0 mm 0,0 km/h (0 Bft) NW 319 ° 0 min 0,000 mm 0,0 UV-I 26 W/m² 8,3 °C 9,4 °C 0,0 km/h (0 Bft)
25.10.2018 10:56 9,4 °C 93 % 1019,1 hPa 0,0 mm 1,0 km/h (0 Bft) NW 319 ° 0 min 0,000 mm 0,0 UV-I 30 W/m² 8,3 °C 9,4 °C 4,8 km/h (1 Bft)
25.10.2018 10:57 9,4 °C 93 % 1019,0 hPa 0,0 mm 0,0 km/h (0 Bft) NW 319 ° 0 min 0,000 mm 0,0 UV-I 35 W/m² 8,3 °C 9,4 °C 0,0 km/h (0 Bft)
25.10.2018 10:58 9,5 °C 93 % 1019,1 hPa 0,0 mm 0,5 km/h (0 Bft) NW 319 ° 0 min 0,000 mm 0,0 UV-I 32 W/m² 8,4 °C 9,5 °C 3,2 km/h (1 Bft)
25.10.2018 10:59 9,6 °C 93 % 1019,1 hPa 0,0 mm 2,7 km/h (1 Bft) NW 319 ° 0 min 0,000 mm 0,0 UV-I 26 W/m² 8,5 °C 9,6 °C 4,8 km/h (1 Bft)
25.10.2018 11:00 9,7 °C 93 % 1019,1 hPa 0,0 mm 0,6 km/h (0 Bft) NW 319 ° 0 min 0,000 mm 0,0 UV-I 26 W/m² 8,6 °C 9,7 °C 3,2 km/h (1 Bft)
25.10.2018 11:01 9,7 °C 92 % 1019,1 hPa 0,0 mm 0,0 km/h (0 Bft) NW 319 ° 0 min 0,000 mm 0,0 UV-I 26 W/m² 8,5 °C 9,7 °C 0,0 km/h (0 Bft)
25.10.2018 11:02 9,8 °C 92 % 1019,1 hPa 0,0 mm 0,1 km/h (0 Bft) NW 319 ° 0 min 0,000 mm 0,0 UV-I 26 W/m² 8,6 °C 9,8 °C 1,6 km/h (1 Bft)
25.10.2018 11:03 9,8 °C 92 % 1019,0 hPa 0,0 mm 0,3 km/h (0 Bft) NW 319 ° 0 min 0,000 mm 0,0 UV-I 26 W/m² 8,6 °C 9,8 °C 1,6 km/h (1 Bft)
25.10.2018 11:04 9,7 °C 92 % 1019,0 hPa 0,0 mm 1,8 km/h (1 Bft) NW 319 ° 0 min 0,000 mm 0,0 UV-I 25 W/m² 8,5 °C 9,7 °C 3,2 km/h (1 Bft)
25.10.2018 11:05 9,7 °C 92 % 1019,0 hPa 0,0 mm 1,5 km/h (1 Bft) N-NW 329 ° 0 min 0,000 mm 0,0 UV-I 26 W/m² 8,5 °C 9,7 °C 3,2 km/h (1 Bft)
25.10.2018 11:06 9,7 °C 92 % 1019,0 hPa 0,0 mm 4,5 km/h (1 Bft) NW 317 ° 0 min 0,000 mm 0,0 UV-I 26 W/m² 8,5 °C 9,7 °C 8,0 km/h (2 Bft)
25.10.2018 11:07 9,7 °C 92 % 1019,0 hPa 0,0 mm 4,5 km/h (1 Bft) NW 321 ° 0 min 0,000 mm 0,0 UV-I 28 W/m² 8,5 °C 9,7 °C 6,4 km/h (2 Bft)
25.10.2018 11:08 9,7 °C 92 % 1018,9 hPa 0,0 mm 6,9 km/h (2 Bft) N-NW 335 ° 0 min 0,000 mm 0,0 UV-I 28 W/m² 8,5 °C 8,9 °C 11,3 km/h (2 Bft)
25.10.2018 11:09 9,9 °C 92 % 1018,9 hPa 0,0 mm 5,4 km/h (1 Bft) NW 316 ° 0 min 0,000 mm 0,0 UV-I 28 W/m² 8,7 °C 9,5 °C 9,7 km/h (2 Bft)
25.10.2018 11:10 10,0 °C 92 % 1018,9 hPa 0,0 mm 8,2 km/h (2 Bft) N-NW 345 ° 0 min 0,000 mm 0,0 UV-I 28 W/m² 8,8 °C 9,0 °C 11,3 km/h (2 Bft)
25.10.2018 11:11 10,2 °C 91 % 1018,9 hPa 0,0 mm 6,2 km/h (2 Bft) W-NW 292 ° 0 min 0,000 mm 0,0 UV-I 28 W/m² 8,8 °C 10,2 °C 12,9 km/h (3 Bft)
25.10.2018 11:12 10,2 °C 91 % 1018,9 hPa 0,0 mm 7,1 km/h (2 Bft) NW 309 ° 0 min 0,000 mm 0,0 UV-I 30 W/m² 8,8 °C 10,2 °C 9,7 km/h (2 Bft)
25.10.2018 11:13 10,3 °C 91 % 1018,8 hPa 0,0 mm 4,8 km/h (1 Bft) NW 326 ° 0 min 0,000 mm 0,0 UV-I 32 W/m² 8,9 °C 10,3 °C 6,4 km/h (2 Bft)
25.10.2018 11:14 10,3 °C 91 % 1018,8 hPa 0,0 mm 4,8 km/h (1 Bft) W-NW 296 ° 0 min 0,000 mm 0,0 UV-I 32 W/m² 8,9 °C 10,3 °C 8,0 km/h (2 Bft)
25.10.2018 11:15 10,4 °C 90 % 1018,8 hPa 0,0 mm 4,9 km/h (1 Bft) NW 322 ° 0 min 0,000 mm 0,0 UV-I 33 W/m² 8,8 °C 10,4 °C 8,0 km/h (2 Bft)
25.10.2018 11:16 10,5 °C 90 % 1018,8 hPa 0,0 mm 5,8 km/h (2 Bft) NW 323 ° 0 min 0,000 mm 0,0 UV-I 35 W/m² 8,9 °C 10,5 °C 11,3 km/h (2 Bft)
25.10.2018 11:17 10,5 °C 90 % 1018,7 hPa 0,0 mm 5,2 km/h (1 Bft) N-NW 327 ° 0 min 0,000 mm 0,0 UV-I 37 W/m² 8,9 °C 10,5 °C 6,4 km/h (2 Bft)
25.10.2018 11:18 10,6 °C 90 % 1018,8 hPa 0,0 mm 1,1 km/h (1 Bft) W-NW 302 ° 0 min 0,000 mm 0,0 UV-I 35 W/m² 9,0 °C 10,6 °C 3,2 km/h (1 Bft)
25.10.2018 11:19 10,5 °C 89 % 1018,7 hPa 0,0 mm 0,7 km/h (0 Bft) W-NW 302 ° 0 min 0,000 mm 0,0 UV-I 35 W/m² 8,8 °C 10,5 °C 3,2 km/h (1 Bft)
25.10.2018 11:20 10,5 °C 90 % 1018,7 hPa 0,0 mm 4,0 km/h (1 Bft) NW 311 ° 0 min 0,000 mm 0,0 UV-I 37 W/m² 8,9 °C 10,5 °C 6,4 km/h (2 Bft)
25.10.2018 11:21 10,5 °C 90 % 1018,7 hPa 0,0 mm 3,7 km/h (1 Bft) NW 309 ° 0 min 0,000 mm 0,0 UV-I 35 W/m² 8,9 °C 10,5 °C 6,4 km/h (2 Bft)
25.10.2018 11:22 10,4 °C 90 % 1018,7 hPa 0,0 mm 6,2 km/h (2 Bft) NW 319 ° 0 min 0,000 mm 0,0 UV-I 35 W/m² 8,8 °C 10,4 °C 9,7 km/h (2 Bft)
25.10.2018 11:23 10,5 °C 90 % 1018,7 hPa 0,0 mm 2,2 km/h (1 Bft) NW 319 ° 0 min 0,000 mm 0,0 UV-I 35 W/m² 8,9 °C 10,5 °C 4,8 km/h (1 Bft)
25.10.2018 11:24 10,6 °C 90 % 1018,7 hPa 0,0 mm 3,7 km/h (1 Bft) NW 316 ° 0 min 0,000 mm 0,0 UV-I 33 W/m² 9,0 °C 10,6 °C 6,4 km/h (2 Bft)
25.10.2018 11:25 10,6 °C 90 % 1018,7 hPa 0,0 mm 5,3 km/h (1 Bft) N-NW 335 ° 0 min 0,000 mm 0,0 UV-I 33 W/m² 9,0 °C 10,6 °C 8,0 km/h (2 Bft)
25.10.2018 11:26 10,6 °C 90 % 1018,6 hPa 0,0 mm 4,3 km/h (1 Bft) W-NW 291 ° 0 min 0,000 mm 0,0 UV-I 32 W/m² 9,0 °C 10,6 °C 6,4 km/h (2 Bft)
25.10.2018 11:27 10,7 °C 90 % 1018,6 hPa 0,0 mm 3,3 km/h (1 Bft) W-NW 288 ° 0 min 0,000 mm 0,0 UV-I 32 W/m² 9,1 °C 10,7 °C 4,8 km/h (1 Bft)
25.10.2018 11:28 10,7 °C 90 % 1018,6 hPa 0,0 mm 5,6 km/h (1 Bft) W 260 ° 0 min 0,000 mm 0,0 UV-I 32 W/m² 9,1 °C 10,7 °C 9,7 km/h (2 Bft)
25.10.2018 11:29 10,7 °C 90 % 1018,6 hPa 0,0 mm 4,1 km/h (1 Bft) W-NW 284 ° 0 min 0,000 mm 0,0 UV-I 30 W/m² 9,1 °C 10,7 °C 6,4 km/h (2 Bft)
25.10.2018 11:30 10,7 °C 90 % 1018,6 hPa 0,0 mm 4,5 km/h (1 Bft) W-NW 298 ° 0 min 0,000 mm 0,0 UV-I 30 W/m² 9,1 °C 10,7 °C 6,4 km/h (2 Bft)
25.10.2018 11:31 10,7 °C 90 % 1018,6 hPa 0,0 mm 4,6 km/h (1 Bft) W-NW 282 ° 0 min 0,000 mm 0,0 UV-I 32 W/m² 9,1 °C 10,7 °C 6,4 km/h (2 Bft)
25.10.2018 11:32 10,7 °C 90 % 1018,6 hPa 0,0 mm 4,2 km/h (1 Bft) W-SW 254 ° 0 min 0,000 mm 0,0 UV-I 33 W/m² 9,1 °C 10,7 °C 6,4 km/h (2 Bft)
25.10.2018 11:33 10,7 °C 90 % 1018,6 hPa 0,0 mm 3,6 km/h (1 Bft) W-SW 249 ° 0 min 0,000 mm 0,0 UV-I 39 W/m² 9,1 °C 10,7 °C 6,4 km/h (2 Bft)
25.10.2018 11:34 10,7 °C 89 % 1018,6 hPa 0,0 mm 2,4 km/h (1 Bft) W-SW 238 ° 0 min 0,000 mm 0,0 UV-I 54 W/m² 9,0 °C 10,7 °C 3,2 km/h (1 Bft)
25.10.2018 11:35 10,8 °C 89 % 1018,5 hPa 0,0 mm 5,4 km/h (1 Bft) W-SW 246 ° 0 min 0,000 mm 1,3 UV-I 67 W/m² 9,1 °C 10,8 °C 9,7 km/h (2 Bft)
25.10.2018 11:36 10,8 °C 89 % 1018,5 hPa 0,0 mm 3,4 km/h (1 Bft) W-SW 242 ° 0 min 0,000 mm 1,3 UV-I 91 W/m² 9,1 °C 10,8 °C 6,4 km/h (2 Bft)
25.10.2018 11:37 10,8 °C 90 % 1018,5 hPa 0,0 mm 7,1 km/h (2 Bft) W 271 ° 0 min 0,000 mm 1,4 UV-I 142 W/m² 9,2 °C 10,8 °C 11,3 km/h (2 Bft)
25.10.2018 11:38 10,9 °C 90 % 1018,5 hPa 0,0 mm 6,2 km/h (2 Bft) W-SW 258 ° 0 min 0,000 mm 1,6 UV-I 181 W/m² 9,3 °C 10,9 °C 9,7 km/h (2 Bft)
25.10.2018 11:39 10,9 °C 89 % 1018,5 hPa 0,0 mm 2,2 km/h (1 Bft) SW 236 ° 0 min 0,000 mm 1,5 UV-I 123 W/m² 9,2 °C 10,9 °C 4,8 km/h (1 Bft)
25.10.2018 11:40 10,9 °C 90 % 1018,5 hPa 0,0 mm 4,7 km/h (1 Bft) W 261 ° 0 min 0,000 mm 1,3 UV-I 69 W/m² 9,3 °C 10,9 °C 6,4 km/h (2 Bft)
25.10.2018 11:41 11,0 °C 89 % 1018,5 hPa 0,0 mm 1,2 km/h (1 Bft) W 261 ° 0 min 0,000 mm 1,3 UV-I 76 W/m² 9,3 °C 11,0 °C 3,2 km/h (1 Bft)
25.10.2018 11:42 11,0 °C 89 % 1018,5 hPa 0,0 mm 5,4 km/h (1 Bft) S-SW 193 ° 0 min 0,000 mm 1,3 UV-I 54 W/m² 9,3 °C 11,0 °C 9,7 km/h (2 Bft)
25.10.2018 11:43 11,0 °C 89 % 1018,5 hPa 0,0 mm 2,7 km/h (1 Bft) W 262 ° 0 min 0,000 mm 0,0 UV-I 53 W/m² 9,3 °C 11,0 °C 4,8 km/h (1 Bft)
25.10.2018 11:44 11,1 °C 89 % 1018,5 hPa 0,0 mm 6,0 km/h (2 Bft) W-SW 246 ° 0 min 0,000 mm 1,3 UV-I 56 W/m² 9,4 °C 11,1 °C 9,7 km/h (2 Bft)
25.10.2018 11:45 11,0 °C 89 % 1018,5 hPa 0,0 mm 4,1 km/h (1 Bft) W-NW 286 ° 0 min 0,000 mm 1,3 UV-I 74 W/m² 9,3 °C 11,0 °C 6,4 km/h (2 Bft)
25.10.2018 11:46 11,1 °C 89 % 1018,5 hPa 0,0 mm 2,4 km/h (1 Bft) W 281 ° 0 min 0,000 mm 1,3 UV-I 69 W/m² 9,4 °C 11,1 °C 3,2 km/h (1 Bft)
25.10.2018 11:47 11,2 °C 89 % 1018,5 hPa 0,0 mm 5,1 km/h (1 Bft) W 259 ° 0 min 0,000 mm 0,0 UV-I 54 W/m² 9,5 °C 11,2 °C 8,0 km/h (2 Bft)
25.10.2018 11:48 11,2 °C 89 % 1018,5 hPa 0,0 mm 2,8 km/h (1 Bft) W-SW 247 ° 0 min 0,000 mm 0,0 UV-I 44 W/m² 9,5 °C 11,2 °C 4,8 km/h (1 Bft)
25.10.2018 11:49 11,2 °C 88 % 1018,5 hPa 0,0 mm 1,3 km/h (1 Bft) W-SW 248 ° 0 min 0,000 mm 0,0 UV-I 39 W/m² 9,3 °C 11,2 °C 3,2 km/h (1 Bft)
25.10.2018 11:50 11,1 °C 88 % 1018,5 hPa 0,0 mm 0,0 km/h (0 Bft) W-SW 248 ° 0 min 0,000 mm 0,0 UV-I 35 W/m² 9,2 °C 11,1 °C 0,0 km/h (0 Bft)
25.10.2018 11:51 11,1 °C 88 % 1018,5 hPa 0,0 mm 0,0 km/h (0 Bft) W-SW 248 ° 0 min 0,000 mm 0,0 UV-I 35 W/m² 9,2 °C 11,1 °C 0,0 km/h (0 Bft)
25.10.2018 11:52 11,1 °C 88 % 1018,5 hPa 0,0 mm 2,7 km/h (1 Bft) W 265 ° 0 min 0,000 mm 0,0 UV-I 39 W/m² 9,2 °C 11,1 °C 4,8 km/h (1 Bft)
25.10.2018 11:53 11,1 °C 88 % 1018,5 hPa 0,0 mm 3,2 km/h (1 Bft) W 265 ° 0 min 0,000 mm 1,3 UV-I 76 W/m² 9,2 °C 11,1 °C 4,8 km/h (1 Bft)
25.10.2018 11:54 11,1 °C 88 % 1018,4 hPa 0,0 mm 3,4 km/h (1 Bft) W 273 ° 0 min 0,000 mm 1,7 UV-I 76 W/m² 9,2 °C 11,1 °C 6,4 km/h (2 Bft)
25.10.2018 11:55 11,3 °C 88 % 1018,4 hPa 0,0 mm 5,7 km/h (1 Bft) W-NW 302 ° 0 min 0,000 mm 2,2 UV-I 401 W/m² 9,4 °C 11,3 °C 8,0 km/h (2 Bft)
25.10.2018 11:56 11,5 °C 88 % 1018,4 hPa 0,0 mm 7,1 km/h (2 Bft) W-NW 292 ° 0 min 0,000 mm 1,9 UV-I 401 W/m² 9,6 °C 11,5 °C 11,3 km/h (2 Bft)
25.10.2018 11:57 11,6 °C 89 % 1018,5 hPa 0,0 mm 3,1 km/h (1 Bft) W-NW 292 ° 0 min 0,000 mm 1,6 UV-I 148 W/m² 9,8 °C 11,6 °C 4,8 km/h (1 Bft)
25.10.2018 11:58 11,7 °C 88 % 1018,4 hPa 0,0 mm 5,2 km/h (1 Bft) NW 313 ° 0 min 0,000 mm 1,7 UV-I 232 W/m² 9,8 °C 11,7 °C 6,4 km/h (2 Bft)
25.10.2018 11:59 11,8 °C 87 % 1018,4 hPa 0,0 mm 1,6 km/h (1 Bft) NW 313 ° 0 min 0,000 mm 2,1 UV-I 399 W/m² 9,7 °C 11,8 °C 4,8 km/h (1 Bft)
25.10.2018 12:00 11,8 °C 87 % 1018,4 hPa 0,0 mm 0,0 km/h (0 Bft) NW 313 ° 0 min 0,000 mm 2,0 UV-I 309 W/m² 9,7 °C 11,8 °C 0,0 km/h (0 Bft)
25.10.2018 12:01 11,7 °C 86 % 1018,4 hPa 0,0 mm 0,0 km/h (0 Bft) NW 313 ° 0 min 0,051 mm 2,0 UV-I 318 W/m² 9,4 °C 11,7 °C 0,0 km/h (0 Bft)
25.10.2018 12:02 11,6 °C 86 % 1018,4 hPa 0,0 mm 0,0 km/h (0 Bft) NW 313 ° 0 min 0,000 mm 2,0 UV-I 274 W/m² 9,3 °C 11,6 °C 0,0 km/h (0 Bft)
25.10.2018 12:03 11,6 °C 87 % 1018,4 hPa 0,0 mm 1,3 km/h (1 Bft) NW 313 ° 0 min 0,000 mm 1,7 UV-I 174 W/m² 9,5 °C 11,6 °C 3,2 km/h (1 Bft)
25.10.2018 12:04 11,6 °C 87 % 1018,4 hPa 0,0 mm 1,0 km/h (0 Bft) NW 313 ° 0 min 0,000 mm 1,5 UV-I 104 W/m² 9,5 °C 11,6 °C 1,6 km/h (1 Bft)
25.10.2018 12:05 11,6 °C 87 % 1018,4 hPa 0,0 mm 1,1 km/h (1 Bft) NW 313 ° 0 min 0,000 mm 1,4 UV-I 49 W/m² 9,5 °C 11,6 °C 3,2 km/h (1 Bft)
25.10.2018 12:06 11,7 °C 87 % 1018,4 hPa 0,0 mm 4,2 km/h (1 Bft) NW 313 ° 0 min 0,000 mm 0,0 UV-I 47 W/m² 9,6 °C 11,7 °C 6,4 km/h (2 Bft)
25.10.2018 12:07 11,8 °C 86 % 1018,4 hPa 0,0 mm 4,9 km/h (1 Bft) W-NW 290 ° 0 min 0,000 mm 0,0 UV-I 53 W/m² 9,5 °C 11,8 °C 8,0 km/h (2 Bft)
25.10.2018 12:08 11,9 °C 87 % 1018,4 hPa 0,0 mm 3,3 km/h (1 Bft) N 360 ° 0 min 0,000 mm 1,4 UV-I 69 W/m² 9,8 °C 11,9 °C 6,4 km/h (2 Bft)
25.10.2018 12:09 12,0 °C 86 % 1018,4 hPa 0,0 mm 3,8 km/h (1 Bft) W-NW 302 ° 0 min 0,000 mm 1,5 UV-I 105 W/m² 9,7 °C 12,0 °C 4,8 km/h (1 Bft)
25.10.2018 12:10 12,2 °C 86 % 1018,4 hPa 0,0 mm 6,6 km/h (2 Bft) W-SW 250 ° 0 min 0,000 mm 1,6 UV-I 197 W/m² 9,9 °C 12,2 °C 12,9 km/h (3 Bft)
25.10.2018 12:11 12,1 °C 85 % 1018,4 hPa 0,0 mm 6,2 km/h (2 Bft) W 277 ° 0 min 0,000 mm 2,0 UV-I 374 W/m² 9,7 °C 12,1 °C 11,3 km/h (2 Bft)
25.10.2018 12:12 12,1 °C 85 % 1018,4 hPa 0,0 mm 3,2 km/h (1 Bft) W 281 ° 0 min 0,000 mm 2,1 UV-I 309 W/m² 9,7 °C 12,1 °C 4,8 km/h (1 Bft)
25.10.2018 12:13 12,1 °C 85 % 1018,3 hPa 0,0 mm 2,2 km/h (1 Bft) W 281 ° 0 min 0,000 mm 2,1 UV-I 346 W/m² 9,7 °C 12,1 °C 4,8 km/h (1 Bft)
25.10.2018 12:14 12,2 °C 86 % 1018,3 hPa 0,0 mm 4,8 km/h (1 Bft) NW 310 ° 0 min 0,000 mm 2,3 UV-I 427 W/m² 9,9 °C 12,2 °C 6,4 km/h (2 Bft)
25.10.2018 12:15 12,2 °C 86 % 1018,4 hPa 0,0 mm 4,4 km/h (1 Bft) N-NW 328 ° 0 min 0,000 mm 2,4 UV-I 462 W/m² 9,9 °C 12,2 °C 8,0 km/h (2 Bft)
25.10.2018 12:16 12,3 °C 86 % 1018,3 hPa 0,0 mm 4,5 km/h (1 Bft) NW 315 ° 0 min 0,000 mm 2,4 UV-I 461 W/m² 10,0 °C 12,3 °C 8,0 km/h (2 Bft)
25.10.2018 12:17 12,3 °C 86 % 1018,3 hPa 0,0 mm 0,1 km/h (0 Bft) NW 315 ° 0 min 0,000 mm 2,4 UV-I 352 W/m² 10,0 °C 12,3 °C 1,6 km/h (1 Bft)
25.10.2018 12:18 12,3 °C 85 % 1018,3 hPa 0,0 mm 0,8 km/h (0 Bft) N 355 ° 0 min 0,000 mm 1,8 UV-I 352 W/m² 9,9 °C 12,3 °C 1,6 km/h (1 Bft)
25.10.2018 12:19 12,2 °C 85 % 1018,3 hPa 0,0 mm 1,9 km/h (1 Bft) N 355 ° 0 min 0,000 mm 1,5 UV-I 352 W/m² 9,8 °C 12,2 °C 4,8 km/h (1 Bft)
25.10.2018 12:20 12,1 °C 85 % 1018,3 hPa 0,0 mm 0,5 km/h (0 Bft) N 355 ° 0 min 0,000 mm 0,0 UV-I 40 W/m² 9,7 °C 12,1 °C 1,6 km/h (1 Bft)
25.10.2018 12:21 12,0 °C 85 % 1018,3 hPa 0,0 mm 0,0 km/h (0 Bft) N 355 ° 0 min 0,000 mm 0,0 UV-I 39 W/m² 9,6 °C 12,0 °C 0,0 km/h (0 Bft)
25.10.2018 12:22 11,9 °C 85 % 1018,3 hPa 0,0 mm 2,6 km/h (1 Bft) N 355 ° 0 min 0,000 mm 1,4 UV-I 72 W/m² 9,5 °C 11,9 °C 4,8 km/h (1 Bft)
25.10.2018 12:23 11,9 °C 85 % 1018,3 hPa 0,0 mm 2,1 km/h (1 Bft) N-NW 342 ° 0 min 0,000 mm 1,7 UV-I 72 W/m² 9,5 °C 11,9 °C 4,8 km/h (1 Bft)
25.10.2018 12:24 11,9 °C 86 % 1018,3 hPa 0,0 mm 0,6 km/h (0 Bft) NW 307 ° 0 min 0,000 mm 2,3 UV-I 380 W/m² 9,6 °C 11,9 °C 3,2 km/h (1 Bft)
25.10.2018 12:25 12,0 °C 87 % 1018,2 hPa 0,0 mm 2,3 km/h (1 Bft) W 273 ° 0 min 0,000 mm 2,2 UV-I 374 W/m² 9,9 °C 12,0 °C 4,8 km/h (1 Bft)
25.10.2018 12:26 12,1 °C 86 % 1018,2 hPa 0,0 mm 2,0 km/h (1 Bft) W-NW 291 ° 0 min 0,000 mm 2,3 UV-I 397 W/m² 9,8 °C 12,1 °C 6,4 km/h (2 Bft)
25.10.2018 12:27 12,2 °C 87 % 1018,3 hPa 0,0 mm 5,9 km/h (2 Bft) W 276 ° 0 min 0,000 mm 2,2 UV-I 311 W/m² 10,1 °C 12,2 °C 11,3 km/h (2 Bft)
25.10.2018 12:28 12,3 °C 87 % 1018,2 hPa 0,0 mm 5,7 km/h (1 Bft) W-SW 246 ° 0 min 0,000 mm 1,9 UV-I 311 W/m² 10,2 °C 12,3 °C 8,0 km/h (2 Bft)
25.10.2018 12:29 12,3 °C 85 % 1018,1 hPa 0,0 mm 3,6 km/h (1 Bft) W 273 ° 0 min 0,000 mm 1,6 UV-I 58 W/m² 9,9 °C 12,3 °C 6,4 km/h (2 Bft)
25.10.2018 12:30 12,4 °C 85 % 1018,1 hPa 0,0 mm 4,4 km/h (1 Bft) W 280 ° 0 min 0,000 mm 0,0 UV-I 47 W/m² 9,9 °C 12,4 °C 6,4 km/h (2 Bft)
25.10.2018 12:31 12,4 °C 85 % 1018,1 hPa 0,0 mm 5,2 km/h (1 Bft) W-NW 295 ° 0 min 0,000 mm 0,0 UV-I 46 W/m² 9,9 °C 12,4 °C 9,7 km/h (2 Bft)
25.10.2018 12:32 12,4 °C 85 % 1018,1 hPa 0,0 mm 6,0 km/h (2 Bft) W 281 ° 0 min 0,000 mm 0,0 UV-I 46 W/m² 9,9 °C 12,4 °C 9,7 km/h (2 Bft)
25.10.2018 12:33 12,4 °C 85 % 1018,0 hPa 0,0 mm 7,5 km/h (2 Bft) NW 305 ° 0 min 0,000 mm 0,0 UV-I 49 W/m² 9,9 °C 12,4 °C 11,3 km/h (2 Bft)
25.10.2018 12:34 12,5 °C 84 % 1018,0 hPa 0,0 mm 3,5 km/h (1 Bft) W-NW 286 ° 0 min 0,000 mm 1,5 UV-I 63 W/m² 9,9 °C 12,5 °C 9,7 km/h (2 Bft)
25.10.2018 12:35 12,6 °C 84 % 1018,1 hPa 0,0 mm 5,7 km/h (1 Bft) NW 314 ° 0 min 0,000 mm 1,6 UV-I 153 W/m² 10,0 °C 12,6 °C 11,3 km/h (2 Bft)
25.10.2018 12:36 12,6 °C 84 % 1018,0 hPa 0,0 mm 4,3 km/h (1 Bft) N-NW 341 ° 0 min 0,000 mm 1,6 UV-I 100 W/m² 10,0 °C 12,6 °C 8,0 km/h (2 Bft)
25.10.2018 12:37 12,6 °C 84 % 1018,0 hPa 0,0 mm 5,4 km/h (1 Bft) NW 316 ° 0 min 0,000 mm 0,0 UV-I 47 W/m² 10,0 °C 12,6 °C 8,0 km/h (2 Bft)
25.10.2018 12:38 12,6 °C 84 % 1018,0 hPa 0,0 mm 4,2 km/h (1 Bft) W 269 ° 0 min 0,000 mm 0,0 UV-I 51 W/m² 10,0 °C 12,6 °C 6,4 km/h (2 Bft)
25.10.2018 12:39 12,6 °C 84 % 1017,9 hPa 0,0 mm 5,6 km/h (1 Bft) W 266 ° 0 min 0,000 mm 1,5 UV-I 69 W/m² 10,0 °C 12,6 °C 9,7 km/h (2 Bft)
25.10.2018 12:40 12,6 °C 84 % 1018,0 hPa 0,0 mm 9,3 km/h (2 Bft) W-NW 290 ° 0 min 0,000 mm 1,5 UV-I 104 W/m² 10,0 °C 12,6 °C 12,9 km/h (3 Bft)
25.10.2018 12:41 12,6 °C 84 % 1018,0 hPa 0,0 mm 6,3 km/h (2 Bft) NW 304 ° 0 min 0,000 mm 1,5 UV-I 77 W/m² 10,0 °C 12,6 °C 11,3 km/h (2 Bft)
25.10.2018 12:42 12,7 °C 84 % 1018,0 hPa 0,0 mm 3,4 km/h (1 Bft) W 271 ° 0 min 0,000 mm 1,5 UV-I 60 W/m² 10,1 °C 12,7 °C 4,8 km/h (1 Bft)
25.10.2018 12:43 12,7 °C 85 % 1018,0 hPa 0,0 mm 6,5 km/h (2 Bft) W 261 ° 0 min 0,000 mm 1,5 UV-I 70 W/m² 10,2 °C 12,7 °C 11,3 km/h (2 Bft)
25.10.2018 12:44 12,7 °C 85 % 1017,9 hPa 0,0 mm 6,4 km/h (2 Bft) NW 313 ° 0 min 0,000 mm 1,6 UV-I 107 W/m² 10,2 °C 12,7 °C 11,3 km/h (2 Bft)
25.10.2018 12:45 12,7 °C 85 % 1017,9 hPa 0,0 mm 6,2 km/h (2 Bft) W 265 ° 0 min 0,000 mm 1,7 UV-I 144 W/m² 10,2 °C 12,7 °C 11,3 km/h (2 Bft)
25.10.2018 12:46 12,8 °C 85 % 1017,9 hPa 0,0 mm 4,1 km/h (1 Bft) W 269 ° 0 min 0,000 mm 1,8 UV-I 95 W/m² 10,3 °C 12,8 °C 6,4 km/h (2 Bft)
25.10.2018 12:47 12,8 °C 84 % 1017,9 hPa 0,0 mm 6,2 km/h (2 Bft) NW 317 ° 0 min 0,000 mm 0,0 UV-I 53 W/m² 10,2 °C 12,8 °C 12,9 km/h (3 Bft)
25.10.2018 12:48 12,8 °C 84 % 1017,8 hPa 0,0 mm 6,2 km/h (2 Bft) W-NW 286 ° 0 min 0,000 mm 0,0 UV-I 33 W/m² 10,2 °C 12,8 °C 8,0 km/h (2 Bft)
25.10.2018 12:49 12,8 °C 84 % 1017,9 hPa 0,0 mm 3,3 km/h (1 Bft) NW 306 ° 0 min 0,000 mm 0,0 UV-I 39 W/m² 10,2 °C 12,8 °C 6,4 km/h (2 Bft)
25.10.2018 12:50 12,8 °C 85 % 1017,8 hPa 0,0 mm 7,2 km/h (2 Bft) W-NW 286 ° 0 min 0,000 mm 0,0 UV-I 53 W/m² 10,3 °C 12,8 °C 14,5 km/h (3 Bft)
25.10.2018 12:51 12,9 °C 84 % 1017,8 hPa 0,0 mm 5,2 km/h (1 Bft) W-NW 291 ° 0 min 0,000 mm 0,0 UV-I 44 W/m² 10,3 °C 12,9 °C 11,3 km/h (2 Bft)
25.10.2018 12:52 12,9 °C 84 % 1017,8 hPa 0,0 mm 4,7 km/h (1 Bft) W 267 ° 0 min 0,000 mm 0,0 UV-I 32 W/m² 10,3 °C 12,9 °C 11,3 km/h (2 Bft)
25.10.2018 12:53 12,9 °C 84 % 1017,8 hPa 0,0 mm 9,1 km/h (2 Bft) W-NW 302 ° 0 min 0,000 mm 0,0 UV-I 32 W/m² 10,3 °C 12,9 °C 12,9 km/h (3 Bft)
25.10.2018 12:54 12,9 °C 84 % 1017,8 hPa 0,0 mm 6,2 km/h (2 Bft) NW 306 ° 0 min 0,000 mm 0,0 UV-I 32 W/m² 10,3 °C 12,9 °C 12,9 km/h (3 Bft)
25.10.2018 12:55 12,9 °C 84 % 1017,8 hPa 0,0 mm 10,3 km/h (2 Bft) W-SW 255 ° 0 min 0,000 mm 0,0 UV-I 33 W/m² 10,3 °C 12,9 °C 14,5 km/h (3 Bft)
25.10.2018 12:56 12,9 °C 84 % 1017,8 hPa 0,0 mm 8,3 km/h (2 Bft) W 277 ° 0 min 0,000 mm 0,0 UV-I 33 W/m² 10,3 °C 12,9 °C 16,1 km/h (3 Bft)
25.10.2018 12:57 12,9 °C 84 % 1017,8 hPa 0,0 mm 6,4 km/h (2 Bft) NW 313 ° 0 min 0,000 mm 0,0 UV-I 32 W/m² 10,3 °C 12,9 °C 12,9 km/h (3 Bft)
25.10.2018 12:58 12,9 °C 84 % 1017,8 hPa 0,0 mm 7,4 km/h (2 Bft) W 266 ° 0 min 0,000 mm 0,0 UV-I 39 W/m² 10,3 °C 12,9 °C 11,3 km/h (2 Bft)
25.10.2018 12:59 12,9 °C 84 % 1017,7 hPa 0,0 mm 6,1 km/h (2 Bft) NW 315 ° 0 min 0,000 mm 0,0 UV-I 88 W/m² 10,3 °C 12,9 °C 11,3 km/h (2 Bft)
25.10.2018 13:00 13,1 °C 84 % 1017,7 hPa 0,0 mm 8,0 km/h (2 Bft) W-NW 303 ° 0 min 0,000 mm 1,7 UV-I 125 W/m² 10,5 °C 13,1 °C 14,5 km/h (3 Bft)
25.10.2018 13:01 13,1 °C 83 % 1017,7 hPa 0,0 mm 5,8 km/h (2 Bft) W-NW 284 ° 0 min 0,076 mm 1,6 UV-I 90 W/m² 10,3 °C 13,1 °C 9,7 km/h (2 Bft)
25.10.2018 13:02 13,1 °C 84 % 1017,7 hPa 0,0 mm 7,9 km/h (2 Bft) W 263 ° 0 min 0,000 mm 0,0 UV-I 39 W/m² 10,5 °C 13,1 °C 12,9 km/h (3 Bft)
25.10.2018 13:03 13,1 °C 84 % 1017,6 hPa 0,0 mm 9,4 km/h (2 Bft) W 261 ° 0 min 0,000 mm 0,0 UV-I 30 W/m² 10,5 °C 13,1 °C 12,9 km/h (3 Bft)
25.10.2018 13:04 13,1 °C 84 % 1017,7 hPa 0,0 mm 5,0 km/h (1 Bft) W-NW 302 ° 0 min 0,000 mm 0,0 UV-I 30 W/m² 10,5 °C 13,1 °C 11,3 km/h (2 Bft)
25.10.2018 13:05 13,2 °C 84 % 1017,7 hPa 0,0 mm 6,1 km/h (2 Bft) W-NW 289 ° 0 min 0,000 mm 0,0 UV-I 30 W/m² 10,6 °C 13,2 °C 9,7 km/h (2 Bft)
25.10.2018 13:06 13,2 °C 84 % 1017,6 hPa 0,0 mm 3,2 km/h (1 Bft) W 281 ° 0 min 0,000 mm 0,0 UV-I 30 W/m² 10,6 °C 13,2 °C 4,8 km/h (1 Bft)
25.10.2018 13:07 13,2 °C 84 % 1017,6 hPa 0,0 mm 4,6 km/h (1 Bft) W-NW 300 ° 0 min 0,000 mm 0,0 UV-I 30 W/m² 10,6 °C 13,2 °C 12,9 km/h (3 Bft)
25.10.2018 13:08 13,2 °C 84 % 1017,6 hPa 0,0 mm 9,9 km/h (2 Bft) NW 305 ° 0 min 0,000 mm 0,0 UV-I 32 W/m² 10,6 °C 13,2 °C 17,7 km/h (3 Bft)
25.10.2018 13:09 13,3 °C 84 % 1017,6 hPa 0,0 mm 11,7 km/h (2 Bft) W-SW 244 ° 0 min 0,000 mm 0,0 UV-I 32 W/m² 10,7 °C 13,3 °C 17,7 km/h (3 Bft)
25.10.2018 13:10 13,3 °C 83 % 1017,6 hPa 0,0 mm 4,6 km/h (1 Bft) W-NW 299 ° 0 min 0,000 mm 0,0 UV-I 32 W/m² 10,5 °C 13,3 °C 8,0 km/h (2 Bft)
25.10.2018 13:11 13,3 °C 83 % 1017,6 hPa 0,0 mm 4,3 km/h (1 Bft) W-NW 284 ° 0 min 0,000 mm 0,0 UV-I 32 W/m² 10,5 °C 13,3 °C 6,4 km/h (2 Bft)
25.10.2018 13:12 13,3 °C 83 % 1017,6 hPa 0,0 mm 6,9 km/h (2 Bft) NW 304 ° 0 min 0,000 mm 0,0 UV-I 33 W/m² 10,5 °C 13,3 °C 11,3 km/h (2 Bft)
25.10.2018 13:13 13,4 °C 84 % 1017,6 hPa 0,0 mm 6,4 km/h (2 Bft) W-NW 296 ° 0 min 0,000 mm 0,0 UV-I 32 W/m² 10,8 °C 13,4 °C 12,9 km/h (3 Bft)
25.10.2018 13:14 13,4 °C 84 % 1017,6 hPa 0,0 mm 9,9 km/h (2 Bft) W 267 ° 0 min 0,000 mm 0,0 UV-I 33 W/m² 10,8 °C 13,4 °C 16,1 km/h (3 Bft)
25.10.2018 13:15 13,5 °C 83 % 1017,6 hPa 0,0 mm 12,0 km/h (2 Bft) W-NW 287 ° 0 min 0,000 mm 0,0 UV-I 35 W/m² 10,7 °C 13,5 °C 19,3 km/h (3 Bft)
25.10.2018 13:16 13,5 °C 83 % 1017,6 hPa 0,0 mm 8,7 km/h (2 Bft) W-NW 286 ° 0 min 0,000 mm 0,0 UV-I 42 W/m² 10,7 °C 13,5 °C 12,9 km/h (3 Bft)
25.10.2018 13:17 13,6 °C 83 % 1017,6 hPa 0,0 mm 8,3 km/h (2 Bft) W-SW 253 ° 0 min 0,000 mm 0,0 UV-I 40 W/m² 10,8 °C 13,6 °C 14,5 km/h (3 Bft)
25.10.2018 13:18 13,6 °C 83 % 1017,6 hPa 0,0 mm 11,1 km/h (2 Bft) W-NW 303 ° 0 min 0,000 mm 0,0 UV-I 49 W/m² 10,8 °C 13,6 °C 14,5 km/h (3 Bft)
25.10.2018 13:19 13,6 °C 83 % 1017,6 hPa 0,0 mm 4,1 km/h (1 Bft) W-SW 248 ° 0 min 0,000 mm 0,0 UV-I 49 W/m² 10,8 °C 13,6 °C 6,4 km/h (2 Bft)
25.10.2018 13:20 13,6 °C 83 % 1017,6 hPa 0,0 mm 11,3 km/h (2 Bft) W 276 ° 0 min 0,000 mm 0,0 UV-I 37 W/m² 10,8 °C 13,6 °C 17,7 km/h (3 Bft)
25.10.2018 13:21 13,6 °C 83 % 1017,6 hPa 0,0 mm 10,4 km/h (2 Bft) W 279 ° 0 min 0,000 mm 0,0 UV-I 32 W/m² 10,8 °C 13,6 °C 16,1 km/h (3 Bft)
25.10.2018 13:22 13,6 °C 83 % 1017,6 hPa 0,0 mm 10,6 km/h (2 Bft) W-NW 288 ° 0 min 0,000 mm 0,0 UV-I 32 W/m² 10,8 °C 13,6 °C 17,7 km/h (3 Bft)
25.10.2018 13:23 13,7 °C 84 % 1017,6 hPa 0,0 mm 9,7 km/h (2 Bft) W 269 ° 0 min 0,000 mm 0,0 UV-I 32 W/m² 11,0 °C 13,7 °C 14,5 km/h (3 Bft)
25.10.2018 13:24 13,7 °C 83 % 1017,6 hPa 0,0 mm 6,4 km/h (2 Bft) W 274 ° 0 min 0,000 mm 0,0 UV-I 32 W/m² 10,9 °C 13,7 °C 12,9 km/h (3 Bft)
25.10.2018 13:25 13,7 °C 83 % 1017,5 hPa 0,0 mm 9,4 km/h (2 Bft) W-NW 285 ° 0 min 0,000 mm 0,0 UV-I 39 W/m² 10,9 °C 13,7 °C 17,7 km/h (3 Bft)
25.10.2018 13:26 13,8 °C 82 % 1017,6 hPa 0,0 mm 10,3 km/h (2 Bft) W-NW 301 ° 0 min 0,000 mm 0,0 UV-I 40 W/m² 10,8 °C 13,8 °C 14,5 km/h (3 Bft)
25.10.2018 13:27 13,8 °C 82 % 1017,6 hPa 0,0 mm 14,1 km/h (3 Bft) W-SW 252 ° 0 min 0,000 mm 0,0 UV-I 37 W/m² 10,8 °C 13,8 °C 20,9 km/h (4 Bft)
25.10.2018 13:28 13,8 °C 81 % 1017,5 hPa 0,0 mm 11,2 km/h (2 Bft) W 277 ° 0 min 0,000 mm 0,0 UV-I 37 W/m² 10,6 °C 13,8 °C 17,7 km/h (3 Bft)
25.10.2018 13:29 13,9 °C 82 % 1017,6 hPa 0,0 mm 8,4 km/h (2 Bft) W 259 ° 0 min 0,000 mm 0,0 UV-I 47 W/m² 10,9 °C 13,9 °C 16,1 km/h (3 Bft)
25.10.2018 13:30 13,9 °C 82 % 1017,5 hPa 0,0 mm 5,4 km/h (1 Bft) W-NW 296 ° 0 min 0,000 mm 1,6 UV-I 128 W/m² 10,9 °C 13,9 °C 9,7 km/h (2 Bft)
25.10.2018 13:31 13,9 °C 82 % 1017,5 hPa 0,0 mm 7,2 km/h (2 Bft) W 280 ° 0 min 0,000 mm 1,8 UV-I 128 W/m² 10,9 °C 13,9 °C 12,9 km/h (3 Bft)
25.10.2018 13:32 14,0 °C 81 % 1017,5 hPa 0,0 mm 9,7 km/h (2 Bft) W-SW 255 ° 0 min 0,000 mm 2,0 UV-I 236 W/m² 10,8 °C 14,0 °C 14,5 km/h (3 Bft)
25.10.2018 13:33 14,1 °C 81 % 1017,4 hPa 0,0 mm 7,7 km/h (2 Bft) W-NW 294 ° 0 min 0,000 mm 1,8 UV-I 156 W/m² 10,9 °C 14,1 °C 12,9 km/h (3 Bft)
25.10.2018 13:34 14,1 °C 81 % 1017,4 hPa 0,0 mm 8,6 km/h (2 Bft) W 281 ° 0 min 0,000 mm 0,0 UV-I 156 W/m² 10,9 °C 14,1 °C 12,9 km/h (3 Bft)
25.10.2018 13:35 14,1 °C 81 % 1017,4 hPa 0,0 mm 11,6 km/h (2 Bft) W-NW 285 ° 0 min 0,000 mm 0,0 UV-I 40 W/m² 10,9 °C 14,1 °C 17,7 km/h (3 Bft)
25.10.2018 13:36 14,1 °C 81 % 1017,4 hPa 0,0 mm 8,0 km/h (2 Bft) NW 315 ° 0 min 0,000 mm 1,5 UV-I 40 W/m² 10,9 °C 14,1 °C 17,7 km/h (3 Bft)
25.10.2018 13:37 14,2 °C 81 % 1017,3 hPa 0,0 mm 6,6 km/h (2 Bft) W 273 ° 0 min 0,000 mm 1,7 UV-I 155 W/m² 11,0 °C 14,2 °C 11,3 km/h (2 Bft)
25.10.2018 13:38 14,2 °C 80 % 1017,4 hPa 0,0 mm 6,7 km/h (2 Bft) W-NW 287 ° 0 min 0,000 mm 2,1 UV-I 155 W/m² 10,8 °C 14,2 °C 11,3 km/h (2 Bft)
25.10.2018 13:39 14,3 °C 81 % 1017,3 hPa 0,0 mm 9,1 km/h (2 Bft) NW 316 ° 0 min 0,000 mm 2,5 UV-I 483 W/m² 11,1 °C 14,3 °C 14,5 km/h (3 Bft)
25.10.2018 13:40 14,4 °C 80 % 1017,3 hPa 0,0 mm 5,8 km/h (2 Bft) W-SW 248 ° 0 min 0,000 mm 2,5 UV-I 487 W/m² 11,0 °C 14,4 °C 12,9 km/h (3 Bft)
25.10.2018 13:41 14,4 °C 80 % 1017,3 hPa 0,0 mm 6,4 km/h (2 Bft) W-SW 255 ° 0 min 0,000 mm 2,5 UV-I 489 W/m² 11,0 °C 14,4 °C 12,9 km/h (3 Bft)
25.10.2018 13:42 14,4 °C 80 % 1017,3 hPa 0,0 mm 8,5 km/h (2 Bft) W-NW 292 ° 0 min 0,000 mm 2,5 UV-I 473 W/m² 11,0 °C 14,4 °C 12,9 km/h (3 Bft)
25.10.2018 13:43 14,4 °C 80 % 1017,3 hPa 0,0 mm 8,4 km/h (2 Bft) NW 321 ° 0 min 0,000 mm 2,4 UV-I 420 W/m² 11,0 °C 14,4 °C 14,5 km/h (3 Bft)
25.10.2018 13:44 14,6 °C 80 % 1017,3 hPa 0,0 mm 8,9 km/h (2 Bft) W-NW 298 ° 0 min 0,000 mm 2,2 UV-I 322 W/m² 11,2 °C 14,6 °C 12,9 km/h (3 Bft)
25.10.2018 13:45 14,6 °C 80 % 1017,2 hPa 0,0 mm 12,5 km/h (3 Bft) W 279 ° 0 min 0,000 mm 2,0 UV-I 248 W/m² 11,2 °C 14,6 °C 17,7 km/h (3 Bft)
25.10.2018 13:46 14,6 °C 80 % 1017,3 hPa 0,0 mm 7,0 km/h (2 Bft) NW 304 ° 0 min 0,000 mm 1,5 UV-I 88 W/m² 11,2 °C 14,6 °C 12,9 km/h (3 Bft)
25.10.2018 13:47 14,6 °C 81 % 1017,3 hPa 0,0 mm 9,2 km/h (2 Bft) NW 311 ° 0 min 0,000 mm 0,0 UV-I 54 W/m² 11,4 °C 14,6 °C 12,9 km/h (3 Bft)
25.10.2018 13:48 14,6 °C 80 % 1017,2 hPa 0,0 mm 10,3 km/h (2 Bft) W-NW 294 ° 0 min 0,000 mm 0,0 UV-I 37 W/m² 11,2 °C 14,6 °C 16,1 km/h (3 Bft)
25.10.2018 13:49 14,6 °C 80 % 1017,2 hPa 0,0 mm 11,1 km/h (2 Bft) W-NW 288 ° 0 min 0,000 mm 0,0 UV-I 37 W/m² 11,2 °C 14,6 °C 16,1 km/h (3 Bft)
25.10.2018 13:50 14,6 °C 79 % 1017,2 hPa 0,0 mm 7,6 km/h (2 Bft) W-NW 290 ° 0 min 0,000 mm 0,0 UV-I 37 W/m² 11,0 °C 14,6 °C 14,5 km/h (3 Bft)
25.10.2018 13:51 14,5 °C 79 % 1017,2 hPa 0,0 mm 11,1 km/h (2 Bft) W-NW 289 ° 0 min 0,000 mm 0,0 UV-I 39 W/m² 10,9 °C 14,5 °C 16,1 km/h (3 Bft)
25.10.2018 13:52 14,6 °C 79 % 1017,2 hPa 0,0 mm 8,8 km/h (2 Bft) W-NW 286 ° 0 min 0,000 mm 0,0 UV-I 44 W/m² 11,0 °C 14,6 °C 16,1 km/h (3 Bft)
25.10.2018 13:53 14,5 °C 80 % 1017,2 hPa 0,0 mm 10,1 km/h (2 Bft) W 275 ° 0 min 0,000 mm 1,5 UV-I 104 W/m² 11,1 °C 14,5 °C 14,5 km/h (3 Bft)
25.10.2018 13:54 14,5 °C 80 % 1017,2 hPa 0,0 mm 5,3 km/h (1 Bft) NW 306 ° 0 min 0,000 mm 1,8 UV-I 104 W/m² 11,1 °C 14,5 °C 8,0 km/h (2 Bft)
25.10.2018 13:55 14,6 °C 79 % 1017,2 hPa 0,0 mm 7,9 km/h (2 Bft) W-NW 292 ° 0 min 0,000 mm 2,0 UV-I 295 W/m² 11,0 °C 14,6 °C 16,1 km/h (3 Bft)
25.10.2018 13:56 14,5 °C 79 % 1017,1 hPa 0,0 mm 11,1 km/h (2 Bft) W 279 ° 0 min 0,000 mm 2,2 UV-I 308 W/m² 10,9 °C 14,5 °C 17,7 km/h (3 Bft)
25.10.2018 13:57 14,6 °C 80 % 1017,2 hPa 0,0 mm 7,7 km/h (2 Bft) W 280 ° 0 min 0,000 mm 2,1 UV-I 330 W/m² 11,2 °C 14,6 °C 11,3 km/h (2 Bft)
25.10.2018 13:58 14,6 °C 81 % 1017,2 hPa 0,0 mm 5,0 km/h (1 Bft) W-NW 298 ° 0 min 0,000 mm 0,0 UV-I 330 W/m² 11,4 °C 14,6 °C 9,7 km/h (2 Bft)
25.10.2018 13:59 14,7 °C 81 % 1017,1 hPa 0,0 mm 9,9 km/h (2 Bft) W-SW 256 ° 0 min 0,000 mm 0,0 UV-I 39 W/m² 11,5 °C 14,7 °C 16,1 km/h (3 Bft)
25.10.2018 14:00 14,6 °C 80 % 1017,1 hPa 0,0 mm 12,2 km/h (2 Bft) W 267 ° 0 min 0,000 mm 0,0 UV-I 54 W/m² 11,2 °C 14,6 °C 17,7 km/h (3 Bft)
25.10.2018 14:01 14,6 °C 80 % 1017,1 hPa 0,0 mm 10,5 km/h (2 Bft) W-NW 296 ° 0 min 0,077 mm 0,0 UV-I 54 W/m² 11,2 °C 14,6 °C 12,9 km/h (3 Bft)
25.10.2018 14:02 14,6 °C 79 % 1017,1 hPa 0,0 mm 11,9 km/h (2 Bft) W 275 ° 0 min 0,000 mm 2,0 UV-I 54 W/m² 11,0 °C 14,6 °C 14,5 km/h (3 Bft)
25.10.2018 14:03 14,6 °C 79 % 1017,1 hPa 0,0 mm 7,7 km/h (2 Bft) W 275 ° 0 min 0,000 mm 2,4 UV-I 378 W/m² 11,0 °C 14,6 °C 11,3 km/h (2 Bft)
25.10.2018 14:04 14,7 °C 80 % 1017,1 hPa 0,0 mm 8,0 km/h (2 Bft) W-NW 294 ° 0 min 0,000 mm 2,3 UV-I 420 W/m² 11,3 °C 14,7 °C 11,3 km/h (2 Bft)
25.10.2018 14:05 14,7 °C 80 % 1017,1 hPa 0,0 mm 6,3 km/h (2 Bft) N-NW 337 ° 0 min 0,000 mm 2,4 UV-I 466 W/m² 11,3 °C 14,7 °C 11,3 km/h (2 Bft)
25.10.2018 14:06 14,8 °C 79 % 1017,0 hPa 0,0 mm 11,6 km/h (2 Bft) W 279 ° 0 min 0,000 mm 2,4 UV-I 480 W/m² 11,2 °C 14,8 °C 16,1 km/h (3 Bft)
25.10.2018 14:07 14,8 °C 79 % 1017,1 hPa 0,0 mm 7,5 km/h (2 Bft) W-NW 298 ° 0 min 0,000 mm 2,4 UV-I 480 W/m² 11,2 °C 14,8 °C 12,9 km/h (3 Bft)
25.10.2018 14:08 14,9 °C 79 % 1017,0 hPa 0,0 mm 7,3 km/h (2 Bft) W-SW 257 ° 0 min 0,000 mm 2,4 UV-I 480 W/m² 11,3 °C 14,9 °C 11,3 km/h (2 Bft)
25.10.2018 14:09 14,9 °C 79 % 1017,0 hPa 0,0 mm 8,5 km/h (2 Bft) W-SW 243 ° 0 min 0,000 mm 2,4 UV-I 480 W/m² 11,3 °C 14,9 °C 12,9 km/h (3 Bft)
25.10.2018 14:10 14,9 °C 79 % 1017,0 hPa 0,0 mm 9,0 km/h (2 Bft) W 275 ° 0 min 0,000 mm 2,4 UV-I 478 W/m² 11,3 °C 14,9 °C 14,5 km/h (3 Bft)
25.10.2018 14:11 14,9 °C 79 % 1017,0 hPa 0,0 mm 7,6 km/h (2 Bft) W-NW 290 ° 0 min 0,000 mm 2,4 UV-I 478 W/m² 11,3 °C 14,9 °C 14,5 km/h (3 Bft)
25.10.2018 14:12 14,9 °C 78 % 1016,9 hPa 0,0 mm 4,6 km/h (1 Bft) W 269 ° 0 min 0,000 mm 2,4 UV-I 478 W/m² 11,1 °C 14,9 °C 6,4 km/h (2 Bft)
25.10.2018 14:13 15,1 °C 79 % 1017,0 hPa 0,0 mm 10,9 km/h (2 Bft) NW 309 ° 0 min 0,000 mm 2,4 UV-I 471 W/m² 11,5 °C 15,1 °C 14,5 km/h (3 Bft)
25.10.2018 14:14 15,2 °C 79 % 1016,9 hPa 0,0 mm 6,8 km/h (2 Bft) NW 313 ° 0 min 0,000 mm 2,4 UV-I 468 W/m² 11,6 °C 15,2 °C 9,7 km/h (2 Bft)
25.10.2018 14:15 15,2 °C 79 % 1016,9 hPa 0,0 mm 5,3 km/h (1 Bft) W 276 ° 0 min 0,000 mm 2,4 UV-I 471 W/m² 11,6 °C 15,2 °C 8,0 km/h (2 Bft)
25.10.2018 14:16 15,3 °C 78 % 1016,9 hPa 0,0 mm 11,3 km/h (2 Bft) NW 315 ° 0 min 0,000 mm 2,4 UV-I 480 W/m² 11,5 °C 15,3 °C 14,5 km/h (3 Bft)
25.10.2018 14:17 15,3 °C 77 % 1016,9 hPa 0,0 mm 14,0 km/h (3 Bft) W 267 ° 0 min 0,000 mm 2,4 UV-I 471 W/m² 11,3 °C 15,3 °C 19,3 km/h (3 Bft)
25.10.2018 14:18 15,3 °C 77 % 1016,9 hPa 0,0 mm 13,4 km/h (3 Bft) W 263 ° 0 min 0,000 mm 2,4 UV-I 466 W/m² 11,3 °C 15,3 °C 22,5 km/h (4 Bft)
25.10.2018 14:19 15,3 °C 75 % 1016,9 hPa 0,0 mm 11,9 km/h (2 Bft) W-SW 258 ° 0 min 0,000 mm 2,3 UV-I 466 W/m² 10,9 °C 15,3 °C 16,1 km/h (3 Bft)
25.10.2018 14:20 15,3 °C 75 % 1016,9 hPa 0,0 mm 12,8 km/h (3 Bft) W-SW 252 ° 0 min 0,000 mm 2,3 UV-I 461 W/m² 10,9 °C 15,3 °C 17,7 km/h (3 Bft)
25.10.2018 14:21 15,3 °C 76 % 1016,8 hPa 0,0 mm 10,7 km/h (2 Bft) W-SW 243 ° 0 min 0,000 mm 2,3 UV-I 455 W/m² 11,1 °C 15,3 °C 14,5 km/h (3 Bft)
25.10.2018 14:22 15,2 °C 76 % 1016,8 hPa 0,0 mm 6,0 km/h (2 Bft) W 268 ° 0 min 0,000 mm 2,3 UV-I 466 W/m² 11,0 °C 15,2 °C 12,9 km/h (3 Bft)
25.10.2018 14:23 15,3 °C 76 % 1016,8 hPa 0,0 mm 12,1 km/h (2 Bft) W-NW 296 ° 0 min 0,000 mm 2,3 UV-I 466 W/m² 11,1 °C 15,3 °C 16,1 km/h (3 Bft)
25.10.2018 14:24 15,3 °C 76 % 1016,8 hPa 0,0 mm 7,1 km/h (2 Bft) W 281 ° 0 min 0,000 mm 1,8 UV-I 466 W/m² 11,1 °C 15,3 °C 14,5 km/h (3 Bft)
25.10.2018 14:25 15,2 °C 76 % 1016,8 hPa 0,0 mm 5,4 km/h (1 Bft) W-NW 288 ° 0 min 0,000 mm 1,8 UV-I 466 W/m² 11,0 °C 15,2 °C 6,4 km/h (2 Bft)
25.10.2018 14:26 15,2 °C 76 % 1016,8 hPa 0,0 mm 12,2 km/h (2 Bft) NW 310 ° 0 min 0,000 mm 2,1 UV-I 466 W/m² 11,0 °C 15,2 °C 16,1 km/h (3 Bft)
25.10.2018 14:27 15,2 °C 76 % 1016,8 hPa 0,0 mm 13,7 km/h (3 Bft) W-NW 297 ° 0 min 0,000 mm 2,3 UV-I 466 W/m² 11,0 °C 15,2 °C 19,3 km/h (3 Bft)
25.10.2018 14:28 15,2 °C 75 % 1016,7 hPa 0,0 mm 12,0 km/h (2 Bft) W 270 ° 0 min 0,000 mm 2,3 UV-I 353 W/m² 10,8 °C 15,2 °C 14,5 km/h (3 Bft)
25.10.2018 14:29 15,2 °C 75 % 1016,7 hPa 0,0 mm 11,8 km/h (2 Bft) W 272 ° 0 min 0,000 mm 1,5 UV-I 353 W/m² 10,8 °C 15,2 °C 17,7 km/h (3 Bft)
25.10.2018 14:30 15,1 °C 75 % 1016,7 hPa 0,0 mm 11,1 km/h (2 Bft) W 265 ° 0 min 0,000 mm 2,3 UV-I 353 W/m² 10,7 °C 15,1 °C 16,1 km/h (3 Bft)
25.10.2018 14:31 15,1 °C 76 % 1016,7 hPa 0,0 mm 10,1 km/h (2 Bft) W 279 ° 0 min 0,000 mm 2,2 UV-I 466 W/m² 10,9 °C 15,1 °C 14,5 km/h (3 Bft)
25.10.2018 14:32 15,1 °C 76 % 1016,7 hPa 0,0 mm 8,9 km/h (2 Bft) W 279 ° 0 min 0,000 mm 2,3 UV-I 461 W/m² 10,9 °C 15,1 °C 14,5 km/h (3 Bft)
25.10.2018 14:33 15,1 °C 76 % 1016,7 hPa 0,0 mm 12,5 km/h (3 Bft) NW 315 ° 0 min 0,000 mm 2,2 UV-I 461 W/m² 10,9 °C 15,1 °C 16,1 km/h (3 Bft)
25.10.2018 14:34 15,2 °C 75 % 1016,7 hPa 0,0 mm 8,6 km/h (2 Bft) W-NW 290 ° 0 min 0,000 mm 1,4 UV-I 461 W/m² 10,8 °C 15,2 °C 14,5 km/h (3 Bft)
25.10.2018 14:35 15,2 °C 75 % 1016,7 hPa 0,0 mm 4,8 km/h (1 Bft) W-NW 289 ° 0 min 0,000 mm 1,3 UV-I 58 W/m² 10,8 °C 15,2 °C 6,4 km/h (2 Bft)
25.10.2018 14:36 15,1 °C 76 % 1016,7 hPa 0,0 mm 9,4 km/h (2 Bft) W-NW 287 ° 0 min 0,000 mm 2,0 UV-I 58 W/m² 10,9 °C 15,1 °C 14,5 km/h (3 Bft)
25.10.2018 14:37 15,0 °C 76 % 1016,7 hPa 0,0 mm 9,3 km/h (2 Bft) W-NW 290 ° 0 min 0,000 mm 0,0 UV-I 58 W/m² 10,8 °C 15,0 °C 19,3 km/h (3 Bft)
25.10.2018 14:38 14,9 °C 75 % 1016,7 hPa 0,0 mm 11,0 km/h (2 Bft) W-NW 297 ° 0 min 0,000 mm 0,0 UV-I 35 W/m² 10,5 °C 14,9 °C 17,7 km/h (3 Bft)
25.10.2018 14:39 14,9 °C 74 % 1016,7 hPa 0,0 mm 9,2 km/h (2 Bft) W 275 ° 0 min 0,000 mm 0,0 UV-I 42 W/m² 10,3 °C 14,9 °C 14,5 km/h (3 Bft)
25.10.2018 14:40 14,9 °C 74 % 1016,7 hPa 0,0 mm 11,9 km/h (2 Bft) NW 313 ° 0 min 0,000 mm 2,2 UV-I 42 W/m² 10,3 °C 14,9 °C 16,1 km/h (3 Bft)
25.10.2018 14:41 14,8 °C 75 % 1016,7 hPa 0,0 mm 13,1 km/h (3 Bft) W-SW 252 ° 0 min 0,000 mm 2,2 UV-I 461 W/m² 10,4 °C 14,8 °C 19,3 km/h (3 Bft)
25.10.2018 14:42 14,8 °C 75 % 1016,7 hPa 0,0 mm 11,7 km/h (2 Bft) W 267 ° 0 min 0,000 mm 2,2 UV-I 448 W/m² 10,4 °C 14,8 °C 14,5 km/h (3 Bft)
25.10.2018 14:43 14,9 °C 75 % 1016,7 hPa 0,0 mm 10,8 km/h (2 Bft) W 280 ° 0 min 0,000 mm 2,1 UV-I 434 W/m² 10,5 °C 14,9 °C 16,1 km/h (3 Bft)
25.10.2018 14:44 14,9 °C 75 % 1016,6 hPa 0,0 mm 8,0 km/h (2 Bft) W-SW 258 ° 0 min 0,000 mm 2,1 UV-I 436 W/m² 10,5 °C 14,9 °C 11,3 km/h (2 Bft)
25.10.2018 14:45 15,1 °C 76 % 1016,6 hPa 0,0 mm 10,1 km/h (2 Bft) W-NW 298 ° 0 min 0,000 mm 2,1 UV-I 431 W/m² 10,9 °C 15,1 °C 14,5 km/h (3 Bft)
25.10.2018 14:46 15,1 °C 74 % 1016,6 hPa 0,0 mm 7,1 km/h (2 Bft) W 269 ° 0 min 0,000 mm 2,1 UV-I 429 W/m² 10,5 °C 15,1 °C 12,9 km/h (3 Bft)
25.10.2018 14:47 15,2 °C 75 % 1016,6 hPa 0,0 mm 9,3 km/h (2 Bft) NW 314 ° 0 min 0,000 mm 2,1 UV-I 429 W/m² 10,8 °C 15,2 °C 20,9 km/h (4 Bft)
25.10.2018 14:48 15,2 °C 73 % 1016,5 hPa 0,0 mm 16,3 km/h (3 Bft) NW 312 ° 0 min 0,000 mm 2,1 UV-I 427 W/m² 10,4 °C 15,2 °C 22,5 km/h (4 Bft)
25.10.2018 14:49 15,2 °C 71 % 1016,5 hPa 0,0 mm 13,4 km/h (3 Bft) W 261 ° 0 min 0,000 mm 2,1 UV-I 425 W/m² 10,0 °C 15,2 °C 17,7 km/h (3 Bft)
25.10.2018 14:50 15,3 °C 70 % 1016,4 hPa 0,0 mm 14,9 km/h (3 Bft) W-NW 302 ° 0 min 0,000 mm 2,1 UV-I 422 W/m² 9,9 °C 15,3 °C 19,3 km/h (3 Bft)
25.10.2018 14:51 15,3 °C 70 % 1016,5 hPa 0,0 mm 10,2 km/h (2 Bft) W-SW 246 ° 0 min 0,000 mm 2,1 UV-I 422 W/m² 9,9 °C 15,3 °C 14,5 km/h (3 Bft)
25.10.2018 14:52 15,4 °C 71 % 1016,5 hPa 0,0 mm 8,0 km/h (2 Bft) W 273 ° 0 min 0,000 mm 2,1 UV-I 422 W/m² 10,2 °C 15,4 °C 12,9 km/h (3 Bft)
25.10.2018 14:53 15,4 °C 72 % 1016,5 hPa 0,0 mm 12,1 km/h (2 Bft) W-SW 248 ° 0 min 0,000 mm 2,0 UV-I 420 W/m² 10,4 °C 15,4 °C 16,1 km/h (3 Bft)
25.10.2018 14:54 15,4 °C 71 % 1016,4 hPa 0,0 mm 14,6 km/h (3 Bft) NW 320 ° 0 min 0,000 mm 2,0 UV-I 418 W/m² 10,2 °C 15,4 °C 22,5 km/h (4 Bft)
25.10.2018 14:55 15,4 °C 70 % 1016,5 hPa 0,0 mm 7,7 km/h (2 Bft) W-NW 300 ° 0 min 0,000 mm 2,0 UV-I 422 W/m² 10,0 °C 15,4 °C 12,9 km/h (3 Bft)
25.10.2018 14:56 15,5 °C 70 % 1016,4 hPa 0,0 mm 9,1 km/h (2 Bft) W-SW 252 ° 0 min 0,000 mm 2,0 UV-I 417 W/m² 10,1 °C 15,5 °C 16,1 km/h (3 Bft)
25.10.2018 14:57 15,5 °C 71 % 1016,4 hPa 0,0 mm 10,0 km/h (2 Bft) W 279 ° 0 min 0,000 mm 2,0 UV-I 413 W/m² 10,3 °C 15,5 °C 16,1 km/h (3 Bft)
25.10.2018 14:58 15,5 °C 71 % 1016,4 hPa 0,0 mm 14,8 km/h (3 Bft) W 261 ° 0 min 0,000 mm 2,0 UV-I 410 W/m² 10,3 °C 15,5 °C 20,9 km/h (4 Bft)
25.10.2018 14:59 15,4 °C 71 % 1016,5 hPa 0,0 mm 17,1 km/h (3 Bft) W-NW 286 ° 0 min 0,000 mm 2,0 UV-I 410 W/m² 10,2 °C 15,4 °C 22,5 km/h (4 Bft)
25.10.2018 15:00 15,4 °C 70 % 1016,4 hPa 0,0 mm 14,3 km/h (3 Bft) W-NW 288 ° 0 min 0,000 mm 2,0 UV-I 408 W/m² 10,0 °C 15,4 °C 17,7 km/h (3 Bft)
25.10.2018 15:01 15,4 °C 70 % 1016,4 hPa 0,0 mm 13,8 km/h (3 Bft) W-SW 258 ° 0 min 0,228 mm 2,0 UV-I 404 W/m² 10,0 °C 15,4 °C 22,5 km/h (4 Bft)
25.10.2018 15:02 15,4 °C 71 % 1016,4 hPa 0,0 mm 8,2 km/h (2 Bft) NW 311 ° 0 min 0,000 mm 2,0 UV-I 401 W/m² 10,2 °C 15,4 °C 12,9 km/h (3 Bft)
25.10.2018 15:03 15,4 °C 70 % 1016,4 hPa 0,0 mm 8,5 km/h (2 Bft) W-SW 254 ° 0 min 0,000 mm 2,0 UV-I 399 W/m² 10,0 °C 15,4 °C 12,9 km/h (3 Bft)
25.10.2018 15:04 15,5 °C 71 % 1016,4 hPa 0,0 mm 15,4 km/h (3 Bft) W 267 ° 0 min 0,000 mm 1,9 UV-I 399 W/m² 10,3 °C 15,5 °C 17,7 km/h (3 Bft)
25.10.2018 15:05 15,5 °C 71 % 1016,4 hPa 0,0 mm 11,1 km/h (2 Bft) W-SW 254 ° 0 min 0,000 mm 1,9 UV-I 397 W/m² 10,3 °C 15,5 °C 14,5 km/h (3 Bft)
25.10.2018 15:06 15,4 °C 71 % 1016,3 hPa 0,0 mm 7,8 km/h (2 Bft) W-NW 289 ° 0 min 0,000 mm 1,9 UV-I 396 W/m² 10,2 °C 15,4 °C 16,1 km/h (3 Bft)
25.10.2018 15:07 15,4 °C 71 % 1016,4 hPa 0,0 mm 10,0 km/h (2 Bft) NW 313 ° 0 min 0,000 mm 1,9 UV-I 392 W/m² 10,2 °C 15,4 °C 16,1 km/h (3 Bft)
25.10.2018 15:08 15,6 °C 72 % 1016,3 hPa 0,0 mm 10,2 km/h (2 Bft) W 278 ° 0 min 0,000 mm 1,9 UV-I 390 W/m² 10,6 °C 15,6 °C 14,5 km/h (3 Bft)
25.10.2018 15:09 15,5 °C 72 % 1016,3 hPa 0,0 mm 10,1 km/h (2 Bft) W-NW 284 ° 0 min 0,000 mm 1,9 UV-I 388 W/m² 10,5 °C 15,5 °C 12,9 km/h (3 Bft)
25.10.2018 15:10 15,5 °C 71 % 1016,4 hPa 0,0 mm 13,0 km/h (3 Bft) W-NW 284 ° 0 min 0,000 mm 1,9 UV-I 387 W/m² 10,3 °C 15,5 °C 16,1 km/h (3 Bft)
25.10.2018 15:11 15,4 °C 71 % 1016,4 hPa 0,0 mm 11,0 km/h (2 Bft) W-NW 294 ° 0 min 0,000 mm 1,9 UV-I 385 W/m² 10,2 °C 15,4 °C 20,9 km/h (4 Bft)
25.10.2018 15:12 15,4 °C 70 % 1016,4 hPa 0,0 mm 14,5 km/h (3 Bft) W-NW 285 ° 0 min 0,000 mm 1,9 UV-I 385 W/m² 10,0 °C 15,4 °C 20,9 km/h (4 Bft)
25.10.2018 15:13 15,3 °C 69 % 1016,4 hPa 0,0 mm 13,2 km/h (3 Bft) W-NW 295 ° 0 min 0,000 mm 1,8 UV-I 380 W/m² 9,6 °C 15,3 °C 17,7 km/h (3 Bft)
25.10.2018 15:14 15,3 °C 70 % 1016,4 hPa 0,0 mm 15,6 km/h (3 Bft) W-SW 255 ° 0 min 0,000 mm 1,8 UV-I 378 W/m² 9,9 °C 15,3 °C 22,5 km/h (4 Bft)
25.10.2018 15:15 15,3 °C 69 % 1016,5 hPa 0,0 mm 15,3 km/h (3 Bft) W-SW 244 ° 0 min 0,000 mm 1,8 UV-I 376 W/m² 9,6 °C 15,3 °C 24,1 km/h (4 Bft)
25.10.2018 15:16 15,3 °C 70 % 1016,4 hPa 0,0 mm 15,8 km/h (3 Bft) W-NW 294 ° 0 min 0,000 mm 1,8 UV-I 374 W/m² 9,9 °C 15,3 °C 22,5 km/h (4 Bft)
25.10.2018 15:17 15,2 °C 70 % 1016,4 hPa 0,0 mm 16,0 km/h (3 Bft) W-NW 298 ° 0 min 0,000 mm 1,8 UV-I 373 W/m² 9,8 °C 15,2 °C 22,5 km/h (4 Bft)
25.10.2018 15:18 15,2 °C 70 % 1016,4 hPa 0,0 mm 9,1 km/h (2 Bft) W 266 ° 0 min 0,000 mm 1,8 UV-I 371 W/m² 9,8 °C 15,2 °C 17,7 km/h (3 Bft)
25.10.2018 15:19 15,2 °C 72 % 1016,4 hPa 0,0 mm 12,8 km/h (3 Bft) W 266 ° 0 min 0,000 mm 1,7 UV-I 367 W/m² 10,2 °C 15,2 °C 25,7 km/h (4 Bft)
25.10.2018 15:20 15,1 °C 71 % 1016,3 hPa 0,0 mm 17,9 km/h (3 Bft) W-SW 244 ° 0 min 0,000 mm 1,7 UV-I 367 W/m² 9,9 °C 15,1 °C 24,1 km/h (4 Bft)
25.10.2018 15:21 15,1 °C 72 % 1016,4 hPa 0,0 mm 9,3 km/h (2 Bft) W-SW 258 ° 0 min 0,000 mm 1,7 UV-I 362 W/m² 10,1 °C 15,1 °C 17,7 km/h (3 Bft)
25.10.2018 15:22 15,1 °C 72 % 1016,4 hPa 0,0 mm 11,4 km/h (2 Bft) W-SW 251 ° 0 min 0,000 mm 1,7 UV-I 362 W/m² 10,1 °C 15,1 °C 19,3 km/h (3 Bft)
25.10.2018 15:23 15,1 °C 72 % 1016,4 hPa 0,0 mm 12,6 km/h (3 Bft) SW 234 ° 0 min 0,000 mm 1,7 UV-I 359 W/m² 10,1 °C 15,1 °C 19,3 km/h (3 Bft)
25.10.2018 15:24 15,1 °C 72 % 1016,4 hPa 0,0 mm 7,2 km/h (2 Bft) W-SW 257 ° 0 min 0,000 mm 1,7 UV-I 355 W/m² 10,1 °C 15,1 °C 11,3 km/h (2 Bft)
25.10.2018 15:25 15,1 °C 72 % 1016,3 hPa 0,0 mm 8,4 km/h (2 Bft) W-NW 285 ° 0 min 0,000 mm 1,6 UV-I 352 W/m² 10,1 °C 15,1 °C 12,9 km/h (3 Bft)
25.10.2018 15:26 15,1 °C 73 % 1016,3 hPa 0,0 mm 9,1 km/h (2 Bft) W-SW 238 ° 0 min 0,000 mm 1,6 UV-I 352 W/m² 10,3 °C 15,1 °C 17,7 km/h (3 Bft)
25.10.2018 15:27 15,1 °C 73 % 1016,3 hPa 0,0 mm 8,6 km/h (2 Bft) SW 229 ° 0 min 0,000 mm 1,6 UV-I 350 W/m² 10,3 °C 15,1 °C 12,9 km/h (3 Bft)
25.10.2018 15:28 15,2 °C 73 % 1016,3 hPa 0,0 mm 6,9 km/h (2 Bft) W 281 ° 0 min 0,000 mm 1,6 UV-I 350 W/m² 10,4 °C 15,2 °C 14,5 km/h (3 Bft)
25.10.2018 15:29 15,1 °C 73 % 1016,3 hPa 0,0 mm 13,6 km/h (3 Bft) W 271 ° 0 min 0,000 mm 1,6 UV-I 346 W/m² 10,3 °C 15,1 °C 17,7 km/h (3 Bft)
25.10.2018 15:30 15,1 °C 72 % 1016,3 hPa 0,0 mm 13,7 km/h (3 Bft) W 263 ° 0 min 0,000 mm 1,6 UV-I 348 W/m² 10,1 °C 15,1 °C 22,5 km/h (4 Bft)
25.10.2018 15:31 15,1 °C 73 % 1016,3 hPa 0,0 mm 9,0 km/h (2 Bft) W-NW 282 ° 0 min 0,000 mm 1,3 UV-I 348 W/m² 10,3 °C 15,1 °C 14,5 km/h (3 Bft)
25.10.2018 15:32 15,1 °C 73 % 1016,2 hPa 0,0 mm 10,0 km/h (2 Bft) W 267 ° 0 min 0,000 mm 1,5 UV-I 348 W/m² 10,3 °C 15,1 °C 14,5 km/h (3 Bft)
25.10.2018 15:33 15,0 °C 73 % 1016,2 hPa 0,0 mm 11,8 km/h (2 Bft) W-SW 252 ° 0 min 0,000 mm 1,6 UV-I 343 W/m² 10,2 °C 15,0 °C 16,1 km/h (3 Bft)
25.10.2018 15:34 14,9 °C 73 % 1016,2 hPa 0,0 mm 11,1 km/h (2 Bft) W-SW 258 ° 0 min 0,000 mm 1,5 UV-I 343 W/m² 10,1 °C 14,9 °C 16,1 km/h (3 Bft)
25.10.2018 15:35 15,0 °C 73 % 1016,3 hPa 0,0 mm 11,7 km/h (2 Bft) W 267 ° 0 min 0,000 mm 1,5 UV-I 336 W/m² 10,2 °C 15,0 °C 17,7 km/h (3 Bft)
25.10.2018 15:36 15,0 °C 73 % 1016,2 hPa 0,0 mm 8,0 km/h (2 Bft) W-SW 247 ° 0 min 0,000 mm 1,5 UV-I 329 W/m² 10,2 °C 15,0 °C 12,9 km/h (3 Bft)
25.10.2018 15:37 15,1 °C 74 % 1016,2 hPa 0,0 mm 9,8 km/h (2 Bft) W-SW 255 ° 0 min 0,000 mm 1,5 UV-I 329 W/m² 10,5 °C 15,1 °C 14,5 km/h (3 Bft)
25.10.2018 15:38 15,1 °C 73 % 1016,2 hPa 0,0 mm 8,7 km/h (2 Bft) W 271 ° 0 min 0,000 mm 1,5 UV-I 322 W/m² 10,3 °C 15,1 °C 12,9 km/h (3 Bft)
25.10.2018 15:39 15,1 °C 73 % 1016,2 hPa 0,0 mm 9,9 km/h (2 Bft) NW 307 ° 0 min 0,000 mm 1,5 UV-I 325 W/m² 10,3 °C 15,1 °C 12,9 km/h (3 Bft)
25.10.2018 15:40 15,1 °C 74 % 1016,2 hPa 0,0 mm 4,2 km/h (1 Bft) W-NW 300 ° 0 min 0,000 mm 1,1 UV-I 325 W/m² 10,5 °C 15,1 °C 9,7 km/h (2 Bft)
25.10.2018 15:41 15,1 °C 74 % 1016,2 hPa 0,0 mm 5,4 km/h (1 Bft) W-NW 294 ° 0 min 0,000 mm 1,3 UV-I 325 W/m² 10,5 °C 15,1 °C 12,9 km/h (3 Bft)
25.10.2018 15:42 14,9 °C 74 % 1016,2 hPa 0,0 mm 11,4 km/h (2 Bft) W-NW 303 ° 0 min 0,000 mm 1,4 UV-I 315 W/m² 10,3 °C 14,9 °C 14,5 km/h (3 Bft)
25.10.2018 15:43 14,9 °C 75 % 1016,2 hPa 0,0 mm 8,2 km/h (2 Bft) NW 312 ° 0 min 0,000 mm 1,4 UV-I 322 W/m² 10,5 °C 14,9 °C 12,9 km/h (3 Bft)
25.10.2018 15:44 14,9 °C 74 % 1016,2 hPa 0,0 mm 3,6 km/h (1 Bft) NW 325 ° 0 min 0,000 mm 1,4 UV-I 316 W/m² 10,3 °C 14,9 °C 8,0 km/h (2 Bft)
25.10.2018 15:45 14,9 °C 76 % 1016,1 hPa 0,0 mm 3,4 km/h (1 Bft) W-NW 301 ° 0 min 0,000 mm 1,4 UV-I 309 W/m² 10,7 °C 14,9 °C 4,8 km/h (1 Bft)
25.10.2018 15:46 14,9 °C 76 % 1016,2 hPa 0,0 mm 4,7 km/h (1 Bft) W-NW 293 ° 0 min 0,000 mm 1,4 UV-I 306 W/m² 10,7 °C 14,9 °C 9,7 km/h (2 Bft)
25.10.2018 15:47 14,9 °C 75 % 1016,2 hPa 0,0 mm 10,1 km/h (2 Bft) W 279 ° 0 min 0,000 mm 1,3 UV-I 304 W/m² 10,5 °C 14,9 °C 14,5 km/h (3 Bft)
25.10.2018 15:48 14,9 °C 75 % 1016,2 hPa 0,0 mm 6,0 km/h (2 Bft) W-SW 250 ° 0 min 0,000 mm 1,3 UV-I 292 W/m² 10,5 °C 14,9 °C 11,3 km/h (2 Bft)
25.10.2018 15:49 15,0 °C 74 % 1016,2 hPa 0,0 mm 12,1 km/h (2 Bft) W 263 ° 0 min 0,000 mm 1,3 UV-I 299 W/m² 10,4 °C 15,0 °C 16,1 km/h (3 Bft)
25.10.2018 15:50 14,9 °C 74 % 1016,2 hPa 0,0 mm 11,5 km/h (2 Bft) W 279 ° 0 min 0,000 mm 1,3 UV-I 297 W/m² 10,3 °C 14,9 °C 14,5 km/h (3 Bft)
25.10.2018 15:51 14,9 °C 74 % 1016,2 hPa 0,0 mm 9,8 km/h (2 Bft) W-NW 296 ° 0 min 0,000 mm 1,3 UV-I 295 W/m² 10,3 °C 14,9 °C 12,9 km/h (3 Bft)
25.10.2018 15:52 14,9 °C 74 % 1016,2 hPa 0,0 mm 6,9 km/h (2 Bft) NW 304 ° 0 min 0,000 mm 1,3 UV-I 294 W/m² 10,3 °C 14,9 °C 14,5 km/h (3 Bft)
25.10.2018 15:53 15,0 °C 74 % 1016,2 hPa 0,0 mm 4,3 km/h (1 Bft) W-NW 288 ° 0 min 0,000 mm 1,3 UV-I 290 W/m² 10,4 °C 15,0 °C 8,0 km/h (2 Bft)
25.10.2018 15:54 15,0 °C 74 % 1016,1 hPa 0,0 mm 6,2 km/h (2 Bft) NW 311 ° 0 min 0,000 mm 1,3 UV-I 288 W/m² 10,4 °C 15,0 °C 12,9 km/h (3 Bft)
25.10.2018 15:55 15,0 °C 75 % 1016,2 hPa 0,0 mm 6,2 km/h (2 Bft) W-NW 289 ° 0 min 0,000 mm 1,3 UV-I 287 W/m² 10,6 °C 15,0 °C 9,7 km/h (2 Bft)
25.10.2018 15:56 15,1 °C 74 % 1016,1 hPa 0,0 mm 5,1 km/h (1 Bft) NW 305 ° 0 min 0,000 mm 1,2 UV-I 287 W/m² 10,5 °C 15,1 °C 8,0 km/h (2 Bft)
25.10.2018 15:57 15,0 °C 75 % 1016,1 hPa 0,0 mm 4,2 km/h (1 Bft) NW 314 ° 0 min 0,000 mm 1,2 UV-I 279 W/m² 10,6 °C 15,0 °C 6,4 km/h (2 Bft)
25.10.2018 15:58 15,0 °C 75 % 1016,1 hPa 0,0 mm 2,8 km/h (1 Bft) W 275 ° 0 min 0,000 mm 1,2 UV-I 260 W/m² 10,6 °C 15,0 °C 4,8 km/h (1 Bft)
25.10.2018 15:59 15,0 °C 75 % 1016,1 hPa 0,0 mm 3,2 km/h (1 Bft) W-NW 290 ° 0 min 0,000 mm 1,1 UV-I 218 W/m² 10,6 °C 15,0 °C 6,4 km/h (2 Bft)
25.10.2018 16:00 15,0 °C 76 % 1016,1 hPa 0,0 mm 6,0 km/h (2 Bft) W-SW 250 ° 0 min 0,000 mm 1,1 UV-I 118 W/m² 10,8 °C 15,0 °C 11,3 km/h (2 Bft)
25.10.2018 16:01 14,9 °C 75 % 1016,1 hPa 0,0 mm 10,6 km/h (2 Bft) W 275 ° 0 min 0,203 mm 1,0 UV-I 93 W/m² 10,5 °C 14,9 °C 14,5 km/h (3 Bft)
25.10.2018 16:02 14,9 °C 75 % 1016,1 hPa 0,0 mm 6,2 km/h (2 Bft) NW 305 ° 0 min 0,000 mm 1,0 UV-I 109 W/m² 10,5 °C 14,9 °C 11,3 km/h (2 Bft)
25.10.2018 16:03 14,9 °C 76 % 1016,1 hPa 0,0 mm 8,3 km/h (2 Bft) W 270 ° 0 min 0,000 mm 0,9 UV-I 86 W/m² 10,7 °C 14,9 °C 16,1 km/h (3 Bft)
25.10.2018 16:04 14,8 °C 75 % 1016,0 hPa 0,0 mm 4,7 km/h (1 Bft) NW 316 ° 0 min 0,000 mm 1,0 UV-I 105 W/m² 10,4 °C 14,8 °C 9,7 km/h (2 Bft)
25.10.2018 16:05 14,8 °C 75 % 1016,1 hPa 0,0 mm 7,8 km/h (2 Bft) W-NW 294 ° 0 min 0,000 mm 1,0 UV-I 118 W/m² 10,4 °C 14,8 °C 14,5 km/h (3 Bft)
25.10.2018 16:06 14,8 °C 75 % 1016,1 hPa 0,0 mm 4,2 km/h (1 Bft) W 278 ° 0 min 0,000 mm 0,9 UV-I 76 W/m² 10,4 °C 14,8 °C 6,4 km/h (2 Bft)
25.10.2018 16:07 14,8 °C 75 % 1016,1 hPa 0,0 mm 8,2 km/h (2 Bft) NW 315 ° 0 min 0,000 mm 0,9 UV-I 79 W/m² 10,4 °C 14,8 °C 19,3 km/h (3 Bft)
25.10.2018 16:08 14,8 °C 75 % 1016,0 hPa 0,0 mm 7,3 km/h (2 Bft) W-NW 294 ° 0 min 0,000 mm 0,9 UV-I 141 W/m² 10,4 °C 14,8 °C 11,3 km/h (2 Bft)
25.10.2018 16:09 14,8 °C 75 % 1016,1 hPa 0,0 mm 5,1 km/h (1 Bft) W-NW 287 ° 0 min 0,000 mm 1,0 UV-I 162 W/m² 10,4 °C 14,8 °C 12,9 km/h (3 Bft)
25.10.2018 16:10 14,8 °C 75 % 1016,0 hPa 0,0 mm 4,0 km/h (1 Bft) NW 325 ° 0 min 0,000 mm 1,0 UV-I 183 W/m² 10,4 °C 14,8 °C 4,8 km/h (1 Bft)
25.10.2018 16:11 14,8 °C 75 % 1016,0 hPa 0,0 mm 5,2 km/h (1 Bft) W-SW 251 ° 0 min 0,000 mm 1,0 UV-I 229 W/m² 10,4 °C 14,8 °C 8,0 km/h (2 Bft)
25.10.2018 16:12 14,7 °C 76 % 1016,1 hPa 0,0 mm 12,7 km/h (3 Bft) W 277 ° 0 min 0,000 mm 1,0 UV-I 230 W/m² 10,5 °C 14,7 °C 17,7 km/h (3 Bft)
25.10.2018 16:13 14,6 °C 76 % 1016,1 hPa 0,0 mm 10,5 km/h (2 Bft) W-NW 292 ° 0 min 0,000 mm 1,0 UV-I 207 W/m² 10,4 °C 14,6 °C 14,5 km/h (3 Bft)
25.10.2018 16:14 14,6 °C 75 % 1016,0 hPa 0,0 mm 7,8 km/h (2 Bft) W-NW 290 ° 0 min 0,000 mm 0,9 UV-I 193 W/m² 10,2 °C 14,6 °C 12,9 km/h (3 Bft)
25.10.2018 16:15 14,6 °C 75 % 1016,0 hPa 0,0 mm 7,4 km/h (2 Bft) W-NW 292 ° 0 min 0,000 mm 0,9 UV-I 171 W/m² 10,2 °C 14,6 °C 11,3 km/h (2 Bft)
25.10.2018 16:16 14,6 °C 75 % 1016,0 hPa 0,0 mm 5,2 km/h (1 Bft) W 277 ° 0 min 0,000 mm 0,9 UV-I 151 W/m² 10,2 °C 14,6 °C 9,7 km/h (2 Bft)
25.10.2018 16:17 14,6 °C 75 % 1016,0 hPa 0,0 mm 9,1 km/h (2 Bft) W 281 ° 0 min 0,000 mm 0,9 UV-I 130 W/m² 10,2 °C 14,6 °C 11,3 km/h (2 Bft)
25.10.2018 16:18 14,6 °C 75 % 1016,0 hPa 0,0 mm 6,7 km/h (2 Bft) W-NW 301 ° 0 min 0,000 mm 0,8 UV-I 102 W/m² 10,2 °C 14,6 °C 9,7 km/h (2 Bft)
25.10.2018 16:19 14,5 °C 75 % 1015,9 hPa 0,0 mm 4,6 km/h (1 Bft) NW 319 ° 0 min 0,000 mm 0,8 UV-I 72 W/m² 10,1 °C 14,5 °C 9,7 km/h (2 Bft)
25.10.2018 16:20 14,5 °C 76 % 1016,0 hPa 0,0 mm 4,8 km/h (1 Bft) NW 306 ° 0 min 0,000 mm 0,8 UV-I 60 W/m² 10,3 °C 14,5 °C 9,7 km/h (2 Bft)
25.10.2018 16:21 14,4 °C 76 % 1016,0 hPa 0,0 mm 5,6 km/h (1 Bft) W 276 ° 0 min 0,000 mm 0,8 UV-I 65 W/m² 10,2 °C 14,4 °C 9,7 km/h (2 Bft)
25.10.2018 16:22 14,3 °C 76 % 1015,9 hPa 0,0 mm 4,8 km/h (1 Bft) W 264 ° 0 min 0,000 mm 0,8 UV-I 65 W/m² 10,1 °C 14,3 °C 11,3 km/h (2 Bft)
25.10.2018 16:23 14,2 °C 77 % 1015,9 hPa 0,0 mm 9,0 km/h (2 Bft) NW 317 ° 0 min 0,000 mm 0,0 UV-I 28 W/m² 10,2 °C 14,2 °C 12,9 km/h (3 Bft)
25.10.2018 16:24 14,2 °C 77 % 1015,9 hPa 0,0 mm 5,4 km/h (1 Bft) W-NW 294 ° 0 min 0,000 mm 0,0 UV-I 26 W/m² 10,2 °C 14,2 °C 8,0 km/h (2 Bft)
25.10.2018 16:25 14,2 °C 77 % 1015,9 hPa 0,0 mm 6,3 km/h (2 Bft) W-NW 292 ° 0 min 0,000 mm 0,0 UV-I 25 W/m² 10,2 °C 14,2 °C 9,7 km/h (2 Bft)
25.10.2018 16:26 14,2 °C 77 % 1016,0 hPa 0,0 mm 7,0 km/h (2 Bft) W-NW 291 ° 0 min 0,000 mm 0,0 UV-I 25 W/m² 10,2 °C 14,2 °C 12,9 km/h (3 Bft)
25.10.2018 16:27 14,2 °C 77 % 1015,9 hPa 0,0 mm 7,2 km/h (2 Bft) W 271 ° 0 min 0,000 mm 0,0 UV-I 25 W/m² 10,2 °C 14,2 °C 14,5 km/h (3 Bft)
25.10.2018 16:28 14,2 °C 76 % 1015,9 hPa 0,0 mm 7,3 km/h (2 Bft) W-NW 301 ° 0 min 0,000 mm 0,0 UV-I 25 W/m² 10,0 °C 14,2 °C 12,9 km/h (3 Bft)
25.10.2018 16:29 14,2 °C 76 % 1015,9 hPa 0,0 mm 9,3 km/h (2 Bft) W 260 ° 0 min 0,000 mm 0,0 UV-I 25 W/m² 10,0 °C 14,2 °C 12,9 km/h (3 Bft)
25.10.2018 16:30 14,2 °C 77 % 1015,9 hPa 0,0 mm 10,4 km/h (2 Bft) W 269 ° 0 min 0,000 mm 0,0 UV-I 25 W/m² 10,2 °C 14,2 °C 12,9 km/h (3 Bft)
25.10.2018 16:31 14,1 °C 77 % 1015,9 hPa 0,0 mm 6,6 km/h (2 Bft) W-NW 295 ° 0 min 0,000 mm 0,0 UV-I 25 W/m² 10,1 °C 14,1 °C 11,3 km/h (2 Bft)
25.10.2018 16:32 14,0 °C 77 % 1015,9 hPa 0,0 mm 5,0 km/h (1 Bft) W-NW 284 ° 0 min 0,000 mm 0,0 UV-I 25 W/m² 10,0 °C 14,0 °C 6,4 km/h (2 Bft)
25.10.2018 16:33 13,9 °C 78 % 1015,9 hPa 0,0 mm 4,2 km/h (1 Bft) W-NW 286 ° 0 min 0,000 mm 0,0 UV-I 25 W/m² 10,1 °C 13,9 °C 6,4 km/h (2 Bft)
25.10.2018 16:34 13,9 °C 78 % 1015,9 hPa 0,0 mm 2,0 km/h (1 Bft) W-NW 286 ° 0 min 0,000 mm 0,0 UV-I 23 W/m² 10,1 °C 13,9 °C 4,8 km/h (1 Bft)
25.10.2018 16:35 13,8 °C 78 % 1015,9 hPa 0,0 mm 4,3 km/h (1 Bft) W 264 ° 0 min 0,000 mm 0,0 UV-I 23 W/m² 10,0 °C 13,8 °C 4,8 km/h (1 Bft)
25.10.2018 16:36 13,8 °C 78 % 1015,9 hPa 0,0 mm 2,1 km/h (1 Bft) W 267 ° 0 min 0,000 mm 0,0 UV-I 23 W/m² 10,0 °C 13,8 °C 4,8 km/h (1 Bft)
25.10.2018 16:37 13,7 °C 78 % 1015,9 hPa 0,0 mm 2,0 km/h (1 Bft) W-NW 286 ° 0 min 0,000 mm 0,0 UV-I 23 W/m² 9,9 °C 13,7 °C 3,2 km/h (1 Bft)
25.10.2018 16:38 13,7 °C 78 % 1015,9 hPa 0,0 mm 3,0 km/h (1 Bft) W-NW 286 ° 0 min 0,000 mm 0,0 UV-I 21 W/m² 9,9 °C 13,7 °C 4,8 km/h (1 Bft)
25.10.2018 16:39 13,7 °C 79 % 1015,8 hPa 0,0 mm 4,0 km/h (1 Bft) W 270 ° 0 min 0,000 mm 0,0 UV-I 21 W/m² 10,1 °C 13,7 °C 4,8 km/h (1 Bft)
25.10.2018 16:40 13,7 °C 79 % 1015,8 hPa 0,0 mm 2,3 km/h (1 Bft) W 279 ° 0 min 0,000 mm 0,0 UV-I 21 W/m² 10,1 °C 13,7 °C 4,8 km/h (1 Bft)
25.10.2018 16:41 13,7 °C 79 % 1015,8 hPa 0,0 mm 3,1 km/h (1 Bft) W 281 ° 0 min 0,000 mm 0,0 UV-I 21 W/m² 10,1 °C 13,7 °C 4,8 km/h (1 Bft)
25.10.2018 16:42 13,6 °C 79 % 1015,8 hPa 0,0 mm 4,9 km/h (1 Bft) W-NW 295 ° 0 min 0,000 mm 0,0 UV-I 21 W/m² 10,0 °C 13,6 °C 8,0 km/h (2 Bft)
25.10.2018 16:43 13,7 °C 79 % 1015,7 hPa 0,0 mm 9,0 km/h (2 Bft) NW 311 ° 0 min 0,000 mm 0,0 UV-I 21 W/m² 10,1 °C 13,7 °C 14,5 km/h (3 Bft)
25.10.2018 16:44 13,7 °C 78 % 1015,7 hPa 0,0 mm 7,8 km/h (2 Bft) W-NW 292 ° 0 min 0,000 mm 0,0 UV-I 21 W/m² 9,9 °C 13,7 °C 12,9 km/h (3 Bft)
25.10.2018 16:45 13,7 °C 78 % 1015,7 hPa 0,0 mm 6,4 km/h (2 Bft) W-NW 288 ° 0 min 0,000 mm 0,0 UV-I 21 W/m² 9,9 °C 13,7 °C 9,7 km/h (2 Bft)
25.10.2018 16:46 13,7 °C 78 % 1015,7 hPa 0,0 mm 7,3 km/h (2 Bft) NW 316 ° 0 min 0,000 mm 0,0 UV-I 21 W/m² 9,9 °C 13,7 °C 11,3 km/h (2 Bft)
25.10.2018 16:47 13,7 °C 78 % 1015,7 hPa 0,0 mm 5,5 km/h (1 Bft) W-NW 296 ° 0 min 0,000 mm 0,0 UV-I 21 W/m² 9,9 °C 13,7 °C 11,3 km/h (2 Bft)
25.10.2018 16:48 13,7 °C 78 % 1015,7 hPa 0,0 mm 5,0 km/h (1 Bft) W-NW 295 ° 0 min 0,000 mm 0,0 UV-I 21 W/m² 9,9 °C 13,7 °C 11,3 km/h (2 Bft)
25.10.2018 16:49 13,7 °C 78 % 1015,7 hPa 0,0 mm 5,3 km/h (1 Bft) NW 311 ° 0 min 0,000 mm 0,0 UV-I 21 W/m² 9,9 °C 13,7 °C 8,0 km/h (2 Bft)
25.10.2018 16:50 13,7 °C 78 % 1015,7 hPa 0,0 mm 4,1 km/h (1 Bft) W 281 ° 0 min 0,000 mm 0,0 UV-I 21 W/m² 9,9 °C 13,7 °C 6,4 km/h (2 Bft)
25.10.2018 16:51 13,7 °C 79 % 1015,7 hPa 0,0 mm 4,0 km/h (1 Bft) W-NW 295 ° 0 min 0,000 mm 0,0 UV-I 21 W/m² 10,1 °C 13,7 °C 6,4 km/h (2 Bft)
25.10.2018 16:52 13,7 °C 78 % 1015,7 hPa 0,0 mm 3,8 km/h (1 Bft) W-NW 300 ° 0 min 0,000 mm 0,0 UV-I 19 W/m² 9,9 °C 13,7 °C 11,3 km/h (2 Bft)
25.10.2018 16:53 13,7 °C 78 % 1015,7 hPa 0,0 mm 6,6 km/h (2 Bft) W-NW 292 ° 0 min 0,000 mm 0,0 UV-I 19 W/m² 9,9 °C 13,7 °C 11,3 km/h (2 Bft)
25.10.2018 16:54 13,7 °C 78 % 1015,7 hPa 0,0 mm 5,8 km/h (2 Bft) W-NW 291 ° 0 min 0,000 mm 0,0 UV-I 19 W/m² 9,9 °C 13,7 °C 8,0 km/h (2 Bft)
25.10.2018 16:55 13,7 °C 78 % 1015,7 hPa 0,0 mm 6,6 km/h (2 Bft) W-NW 296 ° 0 min 0,000 mm 0,0 UV-I 19 W/m² 9,9 °C 13,7 °C 11,3 km/h (2 Bft)
25.10.2018 16:56 13,7 °C 78 % 1015,7 hPa 0,0 mm 4,7 km/h (1 Bft) W-NW 288 ° 0 min 0,000 mm 0,0 UV-I 19 W/m² 9,9 °C 13,7 °C 11,3 km/h (2 Bft)
25.10.2018 16:57 13,6 °C 79 % 1015,7 hPa 0,0 mm 3,2 km/h (1 Bft) W-NW 288 ° 0 min 0,000 mm 0,0 UV-I 19 W/m² 10,0 °C 13,6 °C 4,8 km/h (1 Bft)
25.10.2018 16:58 13,6 °C 79 % 1015,7 hPa 0,0 mm 4,4 km/h (1 Bft) W-NW 287 ° 0 min 0,000 mm 0,0 UV-I 19 W/m² 10,0 °C 13,6 °C 8,0 km/h (2 Bft)
25.10.2018 16:59 13,6 °C 79 % 1015,7 hPa 0,0 mm 5,4 km/h (1 Bft) NW 307 ° 0 min 0,000 mm 0,0 UV-I 19 W/m² 10,0 °C 13,6 °C 9,7 km/h (2 Bft)
25.10.2018 17:00 13,6 °C 79 % 1015,7 hPa 0,0 mm 3,0 km/h (1 Bft) W-NW 289 ° 0 min 0,000 mm 0,0 UV-I 19 W/m² 10,0 °C 13,6 °C 4,8 km/h (1 Bft)
25.10.2018 17:01 13,6 °C 79 % 1015,6 hPa 0,0 mm 2,8 km/h (1 Bft) NW 309 ° 0 min 0,051 mm 0,0 UV-I 19 W/m² 10,0 °C 13,6 °C 6,4 km/h (2 Bft)
25.10.2018 17:02 13,6 °C 79 % 1015,6 hPa 0,0 mm 4,2 km/h (1 Bft) NW 311 ° 0 min 0,000 mm 0,0 UV-I 19 W/m² 10,0 °C 13,6 °C 4,8 km/h (1 Bft)
25.10.2018 17:03 13,6 °C 79 % 1015,6 hPa 0,0 mm 2,2 km/h (1 Bft) NW 311 ° 0 min 0,000 mm 0,0 UV-I 19 W/m² 10,0 °C 13,6 °C 3,2 km/h (1 Bft)
25.10.2018 17:04 13,6 °C 79 % 1015,6 hPa 0,0 mm 3,6 km/h (1 Bft) NW 311 ° 0 min 0,000 mm 0,0 UV-I 19 W/m² 10,0 °C 13,6 °C 4,8 km/h (1 Bft)
25.10.2018 17:05 13,6 °C 79 % 1015,6 hPa 0,0 mm 3,7 km/h (1 Bft) W 277 ° 0 min 0,000 mm 0,0 UV-I 19 W/m² 10,0 °C 13,6 °C 8,0 km/h (2 Bft)
25.10.2018 17:06 13,6 °C 79 % 1015,6 hPa 0,0 mm 2,5 km/h (1 Bft) NW 305 ° 0 min 0,000 mm 0,0 UV-I 19 W/m² 10,0 °C 13,6 °C 3,2 km/h (1 Bft)
25.10.2018 17:07 13,5 °C 79 % 1015,6 hPa 0,0 mm 3,9 km/h (1 Bft) NW 308 ° 0 min 0,000 mm 0,0 UV-I 18 W/m² 9,9 °C 13,5 °C 6,4 km/h (2 Bft)
25.10.2018 17:08 13,5 °C 79 % 1015,6 hPa 0,0 mm 3,1 km/h (1 Bft) NW 317 ° 0 min 0,000 mm 0,0 UV-I 18 W/m² 9,9 °C 13,5 °C 4,8 km/h (1 Bft)
25.10.2018 17:09 13,5 °C 79 % 1015,6 hPa 0,0 mm 1,3 km/h (1 Bft) NW 317 ° 0 min 0,000 mm 0,0 UV-I 18 W/m² 9,9 °C 13,5 °C 3,2 km/h (1 Bft)
25.10.2018 17:10 13,5 °C 79 % 1015,5 hPa 0,0 mm 4,9 km/h (1 Bft) W-NW 294 ° 0 min 0,000 mm 0,0 UV-I 18 W/m² 9,9 °C 13,5 °C 9,7 km/h (2 Bft)
25.10.2018 17:11 13,5 °C 79 % 1015,5 hPa 0,0 mm 3,9 km/h (1 Bft) NW 306 ° 0 min 0,000 mm 0,0 UV-I 18 W/m² 9,9 °C 13,5 °C 6,4 km/h (2 Bft)
25.10.2018 17:12 13,4 °C 79 % 1015,6 hPa 0,0 mm 2,7 km/h (1 Bft) NW 306 ° 0 min 0,000 mm 0,0 UV-I 18 W/m² 9,8 °C 13,4 °C 4,8 km/h (1 Bft)
25.10.2018 17:13 13,4 °C 79 % 1015,5 hPa 0,0 mm 2,7 km/h (1 Bft) NW 318 ° 0 min 0,000 mm 0,0 UV-I 18 W/m² 9,8 °C 13,4 °C 6,4 km/h (2 Bft)
25.10.2018 17:14 13,4 °C 79 % 1015,6 hPa 0,0 mm 2,9 km/h (1 Bft) W-NW 292 ° 0 min 0,000 mm 0,0 UV-I 18 W/m² 9,8 °C 13,4 °C 4,8 km/h (1 Bft)
25.10.2018 17:15 13,4 °C 79 % 1015,5 hPa 0,0 mm 2,8 km/h (1 Bft) W-NW 293 ° 0 min 0,000 mm 0,0 UV-I 18 W/m² 9,8 °C 13,4 °C 6,4 km/h (2 Bft)
25.10.2018 17:16 13,3 °C 79 % 1015,5 hPa 0,0 mm 5,1 km/h (1 Bft) NW 312 ° 0 min 0,000 mm 0,0 UV-I 16 W/m² 9,7 °C 13,3 °C 11,3 km/h (2 Bft)
25.10.2018 17:17 13,2 °C 80 % 1015,5 hPa 0,0 mm 7,9 km/h (2 Bft) NW 304 ° 0 min 0,000 mm 0,0 UV-I 16 W/m² 9,8 °C 13,2 °C 12,9 km/h (3 Bft)
25.10.2018 17:18 13,1 °C 80 % 1015,5 hPa 0,0 mm 3,9 km/h (1 Bft) W-NW 303 ° 0 min 0,000 mm 0,0 UV-I 16 W/m² 9,7 °C 13,1 °C 6,4 km/h (2 Bft)
25.10.2018 17:19 13,1 °C 80 % 1015,5 hPa 0,0 mm 2,6 km/h (1 Bft) W-NW 298 ° 0 min 0,000 mm 0,0 UV-I 16 W/m² 9,7 °C 13,1 °C 4,8 km/h (1 Bft)
25.10.2018 17:20 13,1 °C 80 % 1015,4 hPa 0,0 mm 3,6 km/h (1 Bft) W-NW 296 ° 0 min 0,000 mm 0,0 UV-I 16 W/m² 9,7 °C 13,1 °C 4,8 km/h (1 Bft)
25.10.2018 17:21 13,1 °C 80 % 1015,5 hPa 0,0 mm 2,3 km/h (1 Bft) W-NW 296 ° 0 min 0,000 mm 0,0 UV-I 16 W/m² 9,7 °C 13,1 °C 3,2 km/h (1 Bft)
25.10.2018 17:22 13,1 °C 80 % 1015,4 hPa 0,0 mm 2,1 km/h (1 Bft) W-NW 296 ° 0 min 0,000 mm 0,0 UV-I 16 W/m² 9,7 °C 13,1 °C 3,2 km/h (1 Bft)
25.10.2018 17:23 13,1 °C 80 % 1015,4 hPa 0,0 mm 0,3 km/h (0 Bft) W-NW 296 ° 0 min 0,000 mm 0,0 UV-I 16 W/m² 9,7 °C 13,1 °C 1,6 km/h (1 Bft)
25.10.2018 17:24 12,9 °C 80 % 1015,3 hPa 0,0 mm 2,0 km/h (1 Bft) W-NW 296 ° 0 min 0,000 mm 0,0 UV-I 16 W/m² 9,5 °C 12,9 °C 3,2 km/h (1 Bft)
25.10.2018 17:25 12,9 °C 81 % 1015,4 hPa 0,0 mm 1,2 km/h (1 Bft) W-NW 296 ° 0 min 0,000 mm 0,0 UV-I 14 W/m² 9,7 °C 12,9 °C 3,2 km/h (1 Bft)
25.10.2018 17:26 12,9 °C 81 % 1015,3 hPa 0,0 mm 0,7 km/h (0 Bft) W-NW 296 ° 0 min 0,000 mm 0,0 UV-I 16 W/m² 9,7 °C 12,9 °C 3,2 km/h (1 Bft)
25.10.2018 17:27 12,8 °C 81 % 1015,4 hPa 0,0 mm 1,9 km/h (1 Bft) NW 314 ° 0 min 0,000 mm 0,0 UV-I 16 W/m² 9,6 °C 12,8 °C 4,8 km/h (1 Bft)
25.10.2018 17:28 12,8 °C 81 % 1015,4 hPa 0,0 mm 3,1 km/h (1 Bft) NW 314 ° 0 min 0,000 mm 0,0 UV-I 14 W/m² 9,6 °C 12,8 °C 4,8 km/h (1 Bft)
25.10.2018 17:29 12,8 °C 81 % 1015,4 hPa 0,0 mm 2,1 km/h (1 Bft) NW 315 ° 0 min 0,000 mm 0,0 UV-I 14 W/m² 9,6 °C 12,8 °C 3,2 km/h (1 Bft)
25.10.2018 17:30 12,7 °C 81 % 1015,4 hPa 0,0 mm 2,7 km/h (1 Bft) W 273 ° 0 min 0,000 mm 0,0 UV-I 14 W/m² 9,5 °C 12,7 °C 4,8 km/h (1 Bft)
25.10.2018 17:31 12,7 °C 81 % 1015,4 hPa 0,0 mm 3,6 km/h (1 Bft) W-NW 297 ° 0 min 0,000 mm 0,0 UV-I 14 W/m² 9,5 °C 12,7 °C 8,0 km/h (2 Bft)
25.10.2018 17:32 12,7 °C 81 % 1015,4 hPa 0,0 mm 3,4 km/h (1 Bft) W-NW 293 ° 0 min 0,000 mm 0,0 UV-I 14 W/m² 9,5 °C 12,7 °C 6,4 km/h (2 Bft)
25.10.2018 17:33 12,6 °C 81 % 1015,4 hPa 0,0 mm 1,2 km/h (1 Bft) W-NW 293 ° 0 min 0,000 mm 0,0 UV-I 14 W/m² 9,4 °C 12,6 °C 1,6 km/h (1 Bft)
25.10.2018 17:34 12,6 °C 82 % 1015,4 hPa 0,0 mm 2,7 km/h (1 Bft) W-NW 286 ° 0 min 0,000 mm 0,0 UV-I 14 W/m² 9,6 °C 12,6 °C 6,4 km/h (2 Bft)
25.10.2018 17:35 12,5 °C 82 % 1015,4 hPa 0,0 mm 3,4 km/h (1 Bft) W-NW 286 ° 0 min 0,000 mm 0,0 UV-I 14 W/m² 9,5 °C 12,5 °C 4,8 km/h (1 Bft)
25.10.2018 17:36 12,4 °C 82 % 1015,4 hPa 0,0 mm 1,3 km/h (1 Bft) W-NW 286 ° 0 min 0,000 mm 0,0 UV-I 14 W/m² 9,4 °C 12,4 °C 4,8 km/h (1 Bft)
25.10.2018 17:37 12,4 °C 82 % 1015,4 hPa 0,0 mm 3,0 km/h (1 Bft) W-NW 285 ° 0 min 0,000 mm 0,0 UV-I 14 W/m² 9,4 °C 12,4 °C 4,8 km/h (1 Bft)
25.10.2018 17:38 12,3 °C 82 % 1015,4 hPa 0,0 mm 2,2 km/h (1 Bft) NW 311 ° 0 min 0,000 mm 0,0 UV-I 12 W/m² 9,3 °C 12,3 °C 4,8 km/h (1 Bft)
25.10.2018 17:39 12,3 °C 83 % 1015,3 hPa 0,0 mm 0,2 km/h (0 Bft) NW 311 ° 0 min 0,000 mm 0,0 UV-I 12 W/m² 9,5 °C 12,3 °C 3,2 km/h (1 Bft)
25.10.2018 17:40 12,3 °C 83 % 1015,3 hPa 0,0 mm 5,3 km/h (1 Bft) W-NW 294 ° 0 min 0,000 mm 0,0 UV-I 12 W/m² 9,5 °C 12,3 °C 11,3 km/h (2 Bft)
25.10.2018 17:41 12,3 °C 83 % 1015,3 hPa 0,0 mm 2,0 km/h (1 Bft) W-NW 294 ° 0 min 0,000 mm 0,0 UV-I 12 W/m² 9,5 °C 12,3 °C 4,8 km/h (1 Bft)
25.10.2018 17:42 12,3 °C 83 % 1015,3 hPa 0,0 mm 2,5 km/h (1 Bft) W-NW 294 ° 0 min 0,000 mm 0,0 UV-I 12 W/m² 9,5 °C 12,3 °C 3,2 km/h (1 Bft)
25.10.2018 17:43 12,2 °C 83 % 1015,4 hPa 0,0 mm 2,5 km/h (1 Bft) W-NW 296 ° 0 min 0,000 mm 0,0 UV-I 12 W/m² 9,4 °C 12,2 °C 6,4 km/h (2 Bft)
25.10.2018 17:44 12,3 °C 83 % 1015,4 hPa 0,0 mm 2,2 km/h (1 Bft) W-NW 292 ° 0 min 0,000 mm 0,0 UV-I 12 W/m² 9,5 °C 12,3 °C 4,8 km/h (1 Bft)
25.10.2018 17:45 12,2 °C 83 % 1015,3 hPa 0,0 mm 1,3 km/h (1 Bft) W-NW 292 ° 0 min 0,000 mm 0,0 UV-I 12 W/m² 9,4 °C 12,2 °C 3,2 km/h (1 Bft)
25.10.2018 17:46 12,2 °C 83 % 1015,4 hPa 0,0 mm 2,0 km/h (1 Bft) W-NW 292 ° 0 min 0,000 mm 0,0 UV-I 12 W/m² 9,4 °C 12,2 °C 4,8 km/h (1 Bft)
25.10.2018 17:47 12,2 °C 83 % 1015,4 hPa 0,0 mm 3,5 km/h (1 Bft) N 355 ° 0 min 0,000 mm 0,0 UV-I 11 W/m² 9,4 °C 12,2 °C 8,0 km/h (2 Bft)
25.10.2018 17:48 12,2 °C 83 % 1015,4 hPa 0,0 mm 0,1 km/h (0 Bft) N 355 ° 0 min 0,000 mm 0,0 UV-I 11 W/m² 9,4 °C 12,2 °C 1,6 km/h (1 Bft)
25.10.2018 17:49 12,2 °C 83 % 1015,4 hPa 0,0 mm 1,5 km/h (1 Bft) N 355 ° 0 min 0,000 mm 0,0 UV-I 11 W/m² 9,4 °C 12,2 °C 3,2 km/h (1 Bft)
25.10.2018 17:50 12,2 °C 83 % 1015,4 hPa 0,0 mm 0,1 km/h (0 Bft) N 355 ° 0 min 0,000 mm 0,0 UV-I 11 W/m² 9,4 °C 12,2 °C 1,6 km/h (1 Bft)
25.10.2018 17:51 12,2 °C 83 % 1015,4 hPa 0,0 mm 1,1 km/h (1 Bft) N 355 ° 0 min 0,000 mm 0,0 UV-I 11 W/m² 9,4 °C 12,2 °C 3,2 km/h (1 Bft)
25.10.2018 17:52 12,2 °C 83 % 1015,4 hPa 0,0 mm 1,5 km/h (1 Bft) N 355 ° 0 min 0,000 mm 0,0 UV-I 11 W/m² 9,4 °C 12,2 °C 3,2 km/h (1 Bft)
25.10.2018 17:53 12,2 °C 83 % 1015,4 hPa 0,0 mm 2,7 km/h (1 Bft) W 261 ° 0 min 0,000 mm 0,0 UV-I 9 W/m² 9,4 °C 12,2 °C 4,8 km/h (1 Bft)
25.10.2018 17:54 12,2 °C 83 % 1015,4 hPa 0,0 mm 0,5 km/h (0 Bft) W 261 ° 0 min 0,000 mm 0,0 UV-I 9 W/m² 9,4 °C 12,2 °C 1,6 km/h (1 Bft)
25.10.2018 17:55 12,2 °C 83 % 1015,4 hPa 0,0 mm 1,3 km/h (1 Bft) W 261 ° 0 min 0,000 mm 0,0 UV-I 9 W/m² 9,4 °C 12,2 °C 3,2 km/h (1 Bft)
25.10.2018 17:56 12,1 °C 83 % 1015,4 hPa 0,0 mm 0,8 km/h (0 Bft) W 261 ° 0 min 0,000 mm 0,0 UV-I 9 W/m² 9,3 °C 12,1 °C 1,6 km/h (1 Bft)
25.10.2018 17:57 12,1 °C 83 % 1015,4 hPa 0,0 mm 0,9 km/h (0 Bft) W 261 ° 0 min 0,000 mm 0,0 UV-I 9 W/m² 9,3 °C 12,1 °C 3,2 km/h (1 Bft)
25.10.2018 17:58 12,0 °C 83 % 1015,4 hPa 0,0 mm 1,7 km/h (1 Bft) W 261 ° 0 min 0,000 mm 0,0 UV-I 7 W/m² 9,2 °C 12,0 °C 3,2 km/h (1 Bft)
25.10.2018 17:59 12,0 °C 83 % 1015,4 hPa 0,0 mm 0,9 km/h (0 Bft) W 261 ° 0 min 0,000 mm 0,0 UV-I 7 W/m² 9,2 °C 12,0 °C 3,2 km/h (1 Bft)
25.10.2018 18:00 11,9 °C 83 % 1015,4 hPa 0,0 mm 1,9 km/h (1 Bft) W 261 ° 0 min 0,000 mm 0,0 UV-I 7 W/m² 9,1 °C 11,9 °C 3,2 km/h (1 Bft)
25.10.2018 18:01 11,9 °C 83 % 1015,4 hPa 0,0 mm 1,4 km/h (1 Bft) W 261 ° 0 min 0,026 mm 0,0 UV-I 7 W/m² 9,1 °C 11,9 °C 4,8 km/h (1 Bft)
25.10.2018 18:02 11,9 °C 84 % 1015,4 hPa 0,0 mm 2,7 km/h (1 Bft) W 261 ° 0 min 0,000 mm 0,0 UV-I 7 W/m² 9,3 °C 11,9 °C 4,8 km/h (1 Bft)
25.10.2018 18:03 11,8 °C 84 % 1015,3 hPa 0,0 mm 1,5 km/h (1 Bft) W 261 ° 0 min 0,000 mm 0,0 UV-I 7 W/m² 9,2 °C 11,8 °C 3,2 km/h (1 Bft)
25.10.2018 18:04 11,8 °C 84 % 1015,4 hPa 0,0 mm 0,0 km/h (0 Bft) W 261 ° 0 min 0,000 mm 0,0 UV-I 5 W/m² 9,2 °C 11,8 °C 0,0 km/h (0 Bft)
25.10.2018 18:05 11,8 °C 84 % 1015,4 hPa 0,0 mm 0,0 km/h (0 Bft) W 261 ° 0 min 0,000 mm 0,0 UV-I 5 W/m² 9,2 °C 11,8 °C 0,0 km/h (0 Bft)
25.10.2018 18:06 11,8 °C 84 % 1015,3 hPa 0,0 mm 0,0 km/h (0 Bft) W 261 ° 0 min 0,000 mm 0,0 UV-I 5 W/m² 9,2 °C 11,8 °C 0,0 km/h (0 Bft)
25.10.2018 18:07 11,8 °C 84 % 1015,3 hPa 0,0 mm 0,6 km/h (0 Bft) W 261 ° 0 min 0,000 mm 0,0 UV-I 5 W/m² 9,2 °C 11,8 °C 1,6 km/h (1 Bft)
25.10.2018 18:08 11,8 °C 84 % 1015,4 hPa 0,0 mm 1,7 km/h (1 Bft) W 261 ° 0 min 0,000 mm 0,0 UV-I 5 W/m² 9,2 °C 11,8 °C 3,2 km/h (1 Bft)
25.10.2018 18:09 11,7 °C 84 % 1015,4 hPa 0,0 mm 0,1 km/h (0 Bft) W 261 ° 0 min 0,000 mm 0,0 UV-I 0 W/m² 9,1 °C 11,7 °C 1,6 km/h (1 Bft)
25.10.2018 18:10 11,7 °C 84 % 1015,4 hPa 0,0 mm 0,0 km/h (0 Bft) W 261 ° 0 min 0,000 mm 0,0 UV-I 0 W/m² 9,1 °C 11,7 °C 0,0 km/h (0 Bft)
25.10.2018 18:11 11,6 °C 84 % 1015,3 hPa 0,0 mm 0,0 km/h (0 Bft) W 261 ° 0 min 0,000 mm 0,0 UV-I 0 W/m² 9,0 °C 11,6 °C 0,0 km/h (0 Bft)
25.10.2018 18:12 11,6 °C 84 % 1015,3 hPa 0,0 mm 1,6 km/h (1 Bft) W 261 ° 0 min 0,000 mm 0,0 UV-I 0 W/m² 9,0 °C 11,6 °C 3,2 km/h (1 Bft)
25.10.2018 18:13 11,4 °C 84 % 1015,3 hPa 0,0 mm 0,6 km/h (0 Bft) W 261 ° 0 min 0,000 mm 0,0 UV-I 0 W/m² 8,8 °C 11,4 °C 3,2 km/h (1 Bft)
25.10.2018 18:14 11,3 °C 85 % 1015,3 hPa 0,0 mm 0,0 km/h (0 Bft) W 261 ° 0 min 0,000 mm 0,0 UV-I 0 W/m² 8,9 °C 11,3 °C 0,0 km/h (0 Bft)
25.10.2018 18:15 11,3 °C 85 % 1015,4 hPa 0,0 mm 0,0 km/h (0 Bft) W 261 ° 0 min 0,000 mm 0,0 UV-I 0 W/m² 8,9 °C 11,3 °C 0,0 km/h (0 Bft)
25.10.2018 18:16 11,3 °C 85 % 1015,3 hPa 0,0 mm 2,5 km/h (1 Bft) W 261 ° 0 min 0,000 mm 0,0 UV-I 0 W/m² 8,9 °C 11,3 °C 3,2 km/h (1 Bft)
25.10.2018 18:17 11,2 °C 85 % 1015,3 hPa 0,0 mm 5,7 km/h (1 Bft) SW 214 ° 0 min 0,000 mm 0,0 UV-I 0 W/m² 8,8 °C 11,2 °C 6,4 km/h (2 Bft)
25.10.2018 18:18 11,3 °C 86 % 1015,3 hPa 0,0 mm 4,8 km/h (1 Bft) S-SW 213 ° 0 min 0,000 mm 0,0 UV-I 0 W/m² 9,0 °C 11,3 °C 6,4 km/h (2 Bft)
25.10.2018 18:19 11,2 °C 85 % 1015,3 hPa 0,0 mm 1,2 km/h (1 Bft) S-SW 213 ° 0 min 0,000 mm 0,0 UV-I 0 W/m² 8,8 °C 11,2 °C 3,2 km/h (1 Bft)
25.10.2018 18:20 11,2 °C 85 % 1015,4 hPa 0,0 mm 4,1 km/h (1 Bft) W-SW 250 ° 0 min 0,000 mm 0,0 UV-I 0 W/m² 8,8 °C 11,2 °C 4,8 km/h (1 Bft)
25.10.2018 18:21 11,2 °C 85 % 1015,3 hPa 0,0 mm 3,2 km/h (1 Bft) S-SW 206 ° 0 min 0,000 mm 0,0 UV-I 0 W/m² 8,8 °C 11,2 °C 6,4 km/h (2 Bft)
25.10.2018 18:22 11,1 °C 85 % 1015,3 hPa 0,0 mm 2,7 km/h (1 Bft) S-SW 206 ° 0 min 0,000 mm 0,0 UV-I 0 W/m² 8,7 °C 11,1 °C 4,8 km/h (1 Bft)
25.10.2018 18:23 11,2 °C 86 % 1015,3 hPa 0,0 mm 1,1 km/h (1 Bft) S-SW 206 ° 0 min 0,000 mm 0,0 UV-I 0 W/m² 8,9 °C 11,2 °C 3,2 km/h (1 Bft)
25.10.2018 18:24 11,2 °C 86 % 1015,4 hPa 0,0 mm 0,0 km/h (0 Bft) S-SW 206 ° 0 min 0,000 mm 0,0 UV-I 0 W/m² 8,9 °C 11,2 °C 0,0 km/h (0 Bft)
25.10.2018 18:25 11,2 °C 86 % 1015,4 hPa 0,0 mm 3,2 km/h (1 Bft) S-SW 206 ° 0 min 0,000 mm 0,0 UV-I 0 W/m² 8,9 °C 11,2 °C 4,8 km/h (1 Bft)
25.10.2018 18:26 11,1 °C 85 % 1015,4 hPa 0,0 mm 2,2 km/h (1 Bft) S-SW 206 ° 0 min 0,000 mm 0,0 UV-I 0 W/m² 8,7 °C 11,1 °C 4,8 km/h (1 Bft)
25.10.2018 18:27 11,0 °C 85 % 1015,4 hPa 0,0 mm 0,7 km/h (0 Bft) S-SW 206 ° 0 min 0,000 mm 0,0 UV-I 0 W/m² 8,6 °C 11,0 °C 1,6 km/h (1 Bft)
25.10.2018 18:28 10,9 °C 86 % 1015,4 hPa 0,0 mm 3,0 km/h (1 Bft) S-SW 206 ° 0 min 0,000 mm 0,0 UV-I 0 W/m² 8,7 °C 10,9 °C 4,8 km/h (1 Bft)
25.10.2018 18:29 10,9 °C 86 % 1015,5 hPa 0,0 mm 1,9 km/h (1 Bft) S-SW 206 ° 0 min 0,000 mm 0,0 UV-I 0 W/m² 8,7 °C 10,9 °C 3,2 km/h (1 Bft)
25.10.2018 18:30 10,8 °C 86 % 1015,5 hPa 0,0 mm 0,0 km/h (0 Bft) S-SW 206 ° 0 min 0,000 mm 0,0 UV-I 0 W/m² 8,6 °C 10,8 °C 0,0 km/h (0 Bft)
25.10.2018 18:31 10,8 °C 86 % 1015,4 hPa 0,0 mm 0,0 km/h (0 Bft) S-SW 206 ° 0 min 0,000 mm 0,0 UV-I 0 W/m² 8,6 °C 10,8 °C 0,0 km/h (0 Bft)
25.10.2018 18:32 10,8 °C 86 % 1015,5 hPa 0,0 mm 0,8 km/h (0 Bft) S-SW 206 ° 0 min 0,000 mm 0,0 UV-I 0 W/m² 8,6 °C 10,8 °C 4,8 km/h (1 Bft)
25.10.2018 18:33 10,7 °C 86 % 1015,5 hPa 0,0 mm 2,0 km/h (1 Bft) W-SW 252 ° 0 min 0,000 mm 0,0 UV-I 0 W/m² 8,5 °C 10,7 °C 4,8 km/h (1 Bft)
25.10.2018 18:34 10,6 °C 86 % 1015,4 hPa 0,0 mm 2,1 km/h (1 Bft) S-SW 204 ° 0 min 0,000 mm 0,0 UV-I 0 W/m² 8,4 °C 10,6 °C 4,8 km/h (1 Bft)
25.10.2018 18:35 10,6 °C 87 % 1015,5 hPa 0,0 mm 0,9 km/h (0 Bft) S-SW 204 ° 0 min 0,000 mm 0,0 UV-I 0 W/m² 8,5 °C 10,6 °C 1,6 km/h (1 Bft)
25.10.2018 18:36 10,6 °C 87 % 1015,6 hPa 0,0 mm 0,0 km/h (0 Bft) S-SW 204 ° 0 min 0,000 mm 0,0 UV-I 0 W/m² 8,5 °C 10,6 °C 0,0 km/h (0 Bft)
25.10.2018 18:37 10,4 °C 86 % 1015,6 hPa 0,0 mm 0,0 km/h (0 Bft) S-SW 204 ° 0 min 0,000 mm 0,0 UV-I 0 W/m² 8,2 °C 10,4 °C 0,0 km/h (0 Bft)
25.10.2018 18:38 10,3 °C 86 % 1015,5 hPa 0,0 mm 0,0 km/h (0 Bft) S-SW 204 ° 0 min 0,000 mm 0,0 UV-I 0 W/m² 8,1 °C 10,3 °C 0,0 km/h (0 Bft)
25.10.2018 18:39 10,2 °C 87 % 1015,6 hPa 0,0 mm 0,0 km/h (0 Bft) S-SW 204 ° 0 min 0,000 mm 0,0 UV-I 0 W/m² 8,1 °C 10,2 °C 0,0 km/h (0 Bft)
25.10.2018 18:40 10,1 °C 87 % 1015,6 hPa 0,0 mm 0,0 km/h (0 Bft) S-SW 204 ° 0 min 0,000 mm 0,0 UV-I 0 W/m² 8,0 °C 10,1 °C 0,0 km/h (0 Bft)
25.10.2018 18:41 9,9 °C 87 % 1015,6 hPa 0,0 mm 0,0 km/h (0 Bft) S-SW 204 ° 0 min 0,000 mm 0,0 UV-I 0 W/m² 7,8 °C 9,9 °C 0,0 km/h (0 Bft)
25.10.2018 18:42 9,8 °C 87 % 1015,6 hPa 0,0 mm 0,0 km/h (0 Bft) S-SW 204 ° 0 min 0,000 mm 0,0 UV-I 0 W/m² 7,7 °C 9,8 °C 0,0 km/h (0 Bft)
25.10.2018 18:43 9,6 °C 88 % 1015,6 hPa 0,0 mm 0,0 km/h (0 Bft) S-SW 204 ° 0 min 0,000 mm 0,0 UV-I 0 W/m² 7,7 °C 9,6 °C 0,0 km/h (0 Bft)
25.10.2018 18:44 9,6 °C 88 % 1015,6 hPa 0,0 mm 0,0 km/h (0 Bft) S-SW 204 ° 0 min 0,000 mm 0,0 UV-I 0 W/m² 7,7 °C 9,6 °C 0,0 km/h (0 Bft)
25.10.2018 18:45 9,6 °C 89 % 1015,6 hPa 0,0 mm 1,3 km/h (1 Bft) S-SW 204 ° 0 min 0,000 mm 0,0 UV-I 0 W/m² 7,9 °C 9,6 °C 3,2 km/h (1 Bft)
25.10.2018 18:46 9,6 °C 89 % 1015,6 hPa 0,0 mm 1,9 km/h (1 Bft) S-SW 204 ° 0 min 0,000 mm 0,0 UV-I 0 W/m² 7,9 °C 9,6 °C 3,2 km/h (1 Bft)
25.10.2018 18:47 9,7 °C 90 % 1015,6 hPa 0,0 mm 0,8 km/h (0 Bft) S-SW 204 ° 0 min 0,000 mm 0,0 UV-I 0 W/m² 8,1 °C 9,7 °C 1,6 km/h (1 Bft)
25.10.2018 18:48 9,8 °C 90 % 1015,7 hPa 0,0 mm 0,0 km/h (0 Bft) S-SW 204 ° 0 min 0,000 mm 0,0 UV-I 0 W/m² 8,2 °C 9,8 °C 0,0 km/h (0 Bft)
25.10.2018 18:49 9,8 °C 90 % 1015,7 hPa 0,0 mm 0,0 km/h (0 Bft) S-SW 204 ° 0 min 0,000 mm 0,0 UV-I 0 W/m² 8,2 °C 9,8 °C 0,0 km/h (0 Bft)
25.10.2018 18:50 9,8 °C 90 % 1015,7 hPa 0,0 mm 0,0 km/h (0 Bft) S-SW 204 ° 0 min 0,000 mm 0,0 UV-I 0 W/m² 8,2 °C 9,8 °C 0,0 km/h (0 Bft)
25.10.2018 18:51 9,7 °C 89 % 1015,7 hPa 0,0 mm 0,9 km/h (0 Bft) S-SW 204 ° 0 min 0,000 mm 0,0 UV-I 0 W/m² 8,0 °C 9,7 °C 1,6 km/h (1 Bft)
25.10.2018 18:52 9,7 °C 89 % 1015,7 hPa 0,0 mm 0,6 km/h (0 Bft) S-SW 204 ° 0 min 0,000 mm 0,0 UV-I 0 W/m² 8,0 °C 9,7 °C 1,6 km/h (1 Bft)
25.10.2018 18:53 9,8 °C 90 % 1015,7 hPa 0,0 mm 0,9 km/h (0 Bft) S-SW 204 ° 0 min 0,000 mm 0,0 UV-I 0 W/m² 8,2 °C 9,8 °C 1,6 km/h (1 Bft)
25.10.2018 18:54 9,8 °C 90 % 1015,7 hPa 0,0 mm 0,1 km/h (0 Bft) S-SW 204 ° 0 min 0,000 mm 0,0 UV-I 0 W/m² 8,2 °C 9,8 °C 1,6 km/h (1 Bft)
25.10.2018 18:55 9,8 °C 90 % 1015,7 hPa 0,0 mm 0,0 km/h (0 Bft) S-SW 204 ° 0 min 0,000 mm 0,0 UV-I 0 W/m² 8,2 °C 9,8 °C 0,0 km/h (0 Bft)
25.10.2018 18:56 9,9 °C 90 % 1015,7 hPa 0,0 mm 0,7 km/h (0 Bft) S-SW 204 ° 0 min 0,000 mm 0,0 UV-I 0 W/m² 8,3 °C 9,9 °C 1,6 km/h (1 Bft)
25.10.2018 18:57 9,9 °C 90 % 1015,7 hPa 0,0 mm 1,0 km/h (0 Bft) S-SW 204 ° 0 min 0,000 mm 0,0 UV-I 0 W/m² 8,3 °C 9,9 °C 1,6 km/h (1 Bft)
25.10.2018 18:58 10,0 °C 90 % 1015,8 hPa 0,0 mm 0,5 km/h (0 Bft) S-SW 204 ° 0 min 0,000 mm 0,0 UV-I 0 W/m² 8,4 °C 10,0 °C 1,6 km/h (1 Bft)
25.10.2018 18:59 9,9 °C 89 % 1015,8 hPa 0,0 mm 0,0 km/h (0 Bft) S-SW 204 ° 0 min 0,000 mm 0,0 UV-I 0 W/m² 8,2 °C 9,9 °C 0,0 km/h (0 Bft)
25.10.2018 19:00 9,8 °C 89 % 1015,8 hPa 0,0 mm 0,0 km/h (0 Bft) S-SW 204 ° 0 min 0,000 mm 0,0 UV-I 0 W/m² 8,1 °C 9,8 °C 0,0 km/h (0 Bft)
25.10.2018 19:01 9,7 °C 88 % 1015,8 hPa 0,0 mm 0,0 km/h (0 Bft) S-SW 204 ° 0 min 0,000 mm 0,0 UV-I 0 W/m² 7,8 °C 9,7 °C 0,0 km/h (0 Bft)
25.10.2018 19:03 9,2 °C 88 % 1015,8 hPa 0,0 mm 0,0 km/h (0 Bft) S-SW 204 ° 0 min 0,000 mm 0,0 UV-I 0 W/m² 7,3 °C 9,2 °C 0,0 km/h (0 Bft)
25.10.2018 19:04 9,1 °C 88 % 1015,8 hPa 0,0 mm 0,0 km/h (0 Bft) S-SW 204 ° 0 min 0,000 mm 0,0 UV-I 0 W/m² 7,2 °C 9,1 °C 0,0 km/h (0 Bft)
25.10.2018 19:05 8,9 °C 89 % 1015,8 hPa 0,0 mm 0,0 km/h (0 Bft) S-SW 204 ° 0 min 0,000 mm 0,0 UV-I 0 W/m² 7,2 °C 8,9 °C 0,0 km/h (0 Bft)
25.10.2018 19:06 8,7 °C 89 % 1015,8 hPa 0,0 mm 0,0 km/h (0 Bft) S-SW 204 ° 0 min 0,000 mm 0,0 UV-I 0 W/m² 7,0 °C 8,7 °C 0,0 km/h (0 Bft)
25.10.2018 19:07 8,6 °C 89 % 1015,9 hPa 0,0 mm 0,0 km/h (0 Bft) S-SW 204 ° 0 min 0,000 mm 0,0 UV-I 0 W/m² 6,9 °C 8,6 °C 0,0 km/h (0 Bft)
25.10.2018 19:08 8,4 °C 89 % 1015,9 hPa 0,0 mm 0,0 km/h (0 Bft) S-SW 204 ° 0 min 0,000 mm 0,0 UV-I 0 W/m² 6,7 °C 8,4 °C 0,0 km/h (0 Bft)
25.10.2018 19:09 8,4 °C 89 % 1015,9 hPa 0,0 mm 0,0 km/h (0 Bft) S-SW 204 ° 0 min 0,000 mm 0,0 UV-I 0 W/m² 6,7 °C 8,4 °C 0,0 km/h (0 Bft)
25.10.2018 19:10 8,4 °C 90 % 1015,9 hPa 0,0 mm 0,0 km/h (0 Bft) S-SW 204 ° 0 min 0,000 mm 0,0 UV-I 0 W/m² 6,9 °C 8,4 °C 0,0 km/h (0 Bft)
25.10.2018 19:11 8,3 °C 90 % 1015,9 hPa 0,0 mm 0,0 km/h (0 Bft) S-SW 204 ° 0 min 0,000 mm 0,0 UV-I 0 W/m² 6,8 °C 8,3 °C 0,0 km/h (0 Bft)
25.10.2018 19:12 8,3 °C 90 % 1015,9 hPa 0,0 mm 0,0 km/h (0 Bft) S-SW 204 ° 0 min 0,000 mm 0,0 UV-I 0 W/m² 6,8 °C 8,3 °C 0,0 km/h (0 Bft)
25.10.2018 19:13 8,4 °C 91 % 1015,9 hPa 0,0 mm 1,4 km/h (1 Bft) S-SW 204 ° 0 min 0,000 mm 0,0 UV-I 0 W/m² 7,0 °C 8,4 °C 1,6 km/h (1 Bft)
25.10.2018 19:14 8,5 °C 91 % 1015,9 hPa 0,0 mm 1,8 km/h (1 Bft) S-SW 204 ° 0 min 0,000 mm 0,0 UV-I 0 W/m² 7,1 °C 8,5 °C 3,2 km/h (1 Bft)
25.10.2018 19:15 8,6 °C 91 % 1015,9 hPa 0,0 mm 0,0 km/h (0 Bft) S-SW 204 ° 0 min 0,000 mm 0,0 UV-I 0 W/m² 7,2 °C 8,6 °C 0,0 km/h (0 Bft)
25.10.2018 19:16 8,7 °C 92 % 1015,9 hPa 0,0 mm 0,0 km/h (0 Bft) S-SW 204 ° 0 min 0,000 mm 0,0 UV-I 0 W/m² 7,5 °C 8,7 °C 0,0 km/h (0 Bft)
25.10.2018 19:17 8,7 °C 92 % 1015,9 hPa 0,0 mm 0,7 km/h (0 Bft) S-SW 204 ° 0 min 0,000 mm 0,0 UV-I 0 W/m² 7,5 °C 8,7 °C 1,6 km/h (1 Bft)
25.10.2018 19:18 8,7 °C 91 % 1015,9 hPa 0,0 mm 1,2 km/h (1 Bft) S-SW 204 ° 0 min 0,000 mm 0,0 UV-I 0 W/m² 7,3 °C 8,7 °C 3,2 km/h (1 Bft)
25.10.2018 19:19 8,5 °C 91 % 1016,0 hPa 0,0 mm 0,0 km/h (0 Bft) S-SW 204 ° 0 min 0,000 mm 0,0 UV-I 0 W/m² 7,1 °C 8,5 °C 0,0 km/h (0 Bft)
25.10.2018 19:20 8,4 °C 90 % 1016,0 hPa 0,0 mm 1,9 km/h (1 Bft) S-SO 155 ° 0 min 0,000 mm 0,0 UV-I 0 W/m² 6,9 °C 8,4 °C 3,2 km/h (1 Bft)
25.10.2018 19:21 8,2 °C 90 % 1016,1 hPa 0,0 mm 2,8 km/h (1 Bft) O-SO 112 ° 0 min 0,000 mm 0,0 UV-I 0 W/m² 6,7 °C 8,2 °C 3,2 km/h (1 Bft)
25.10.2018 19:22 8,1 °C 91 % 1016,0 hPa 0,0 mm 0,8 km/h (0 Bft) O-SO 112 ° 0 min 0,000 mm 0,0 UV-I 0 W/m² 6,7 °C 8,1 °C 3,2 km/h (1 Bft)
25.10.2018 19:23 7,9 °C 91 % 1016,1 hPa 0,0 mm 2,3 km/h (1 Bft) O-SO 116 ° 0 min 0,000 mm 0,0 UV-I 0 W/m² 6,5 °C 7,9 °C 4,8 km/h (1 Bft)
25.10.2018 19:24 7,9 °C 91 % 1016,1 hPa 0,0 mm 2,9 km/h (1 Bft) O-SO 116 ° 0 min 0,000 mm 0,0 UV-I 0 W/m² 6,5 °C 7,9 °C 4,8 km/h (1 Bft)
25.10.2018 19:25 8,1 °C 92 % 1016,1 hPa 0,0 mm 0,8 km/h (0 Bft) O-SO 116 ° 0 min 0,000 mm 0,0 UV-I 0 W/m² 6,9 °C 8,1 °C 3,2 km/h (1 Bft)
25.10.2018 19:26 8,1 °C 92 % 1016,1 hPa 0,0 mm 0,0 km/h (0 Bft) O-SO 116 ° 0 min 0,000 mm 0,0 UV-I 0 W/m² 6,9 °C 8,1 °C 0,0 km/h (0 Bft)
25.10.2018 19:27 7,9 °C 91 % 1016,2 hPa 0,0 mm 0,0 km/h (0 Bft) O-SO 116 ° 0 min 0,000 mm 0,0 UV-I 0 W/m² 6,5 °C 7,9 °C 0,0 km/h (0 Bft)
25.10.2018 19:28 7,8 °C 91 % 1016,2 hPa 0,0 mm 0,0 km/h (0 Bft) O-SO 116 ° 0 min 0,000 mm 0,0 UV-I 0 W/m² 6,4 °C 7,8 °C 0,0 km/h (0 Bft)
25.10.2018 19:29 7,8 °C 91 % 1016,2 hPa 0,0 mm 0,0 km/h (0 Bft) O-SO 116 ° 0 min 0,000 mm 0,0 UV-I 0 W/m² 6,4 °C 7,8 °C 0,0 km/h (0 Bft)
25.10.2018 19:30 7,7 °C 91 % 1016,2 hPa 0,0 mm 0,0 km/h (0 Bft) O-SO 116 ° 0 min 0,000 mm 0,0 UV-I 0 W/m² 6,3 °C 7,7 °C 0,0 km/h (0 Bft)
25.10.2018 19:31 7,8 °C 92 % 1016,2 hPa 0,0 mm 0,0 km/h (0 Bft) O-SO 116 ° 0 min 0,000 mm 0,0 UV-I 0 W/m² 6,6 °C 7,8 °C 0,0 km/h (0 Bft)
25.10.2018 19:32 8,0 °C 92 % 1016,2 hPa 0,0 mm 0,0 km/h (0 Bft) O-SO 116 ° 0 min 0,000 mm 0,0 UV-I 0 W/m² 6,8 °C 8,0 °C 0,0 km/h (0 Bft)
25.10.2018 19:33 8,1 °C 92 % 1016,2 hPa 0,0 mm 0,0 km/h (0 Bft) O-SO 116 ° 0 min 0,000 mm 0,0 UV-I 0 W/m² 6,9 °C 8,1 °C 0,0 km/h (0 Bft)
25.10.2018 19:34 7,9 °C 91 % 1016,2 hPa 0,0 mm 0,0 km/h (0 Bft) O-SO 116 ° 0 min 0,000 mm 0,0 UV-I 0 W/m² 6,5 °C 7,9 °C 0,0 km/h (0 Bft)
25.10.2018 19:35 7,8 °C 91 % 1016,2 hPa 0,0 mm 0,0 km/h (0 Bft) O-SO 116 ° 0 min 0,000 mm 0,0 UV-I 0 W/m² 6,4 °C 7,8 °C 0,0 km/h (0 Bft)
25.10.2018 19:36 7,7 °C 91 % 1016,2 hPa 0,0 mm 0,0 km/h (0 Bft) O-SO 116 ° 0 min 0,000 mm 0,0 UV-I 0 W/m² 6,3 °C 7,7 °C 0,0 km/h (0 Bft)
25.10.2018 19:37 7,7 °C 91 % 1016,2 hPa 0,0 mm 0,0 km/h (0 Bft) O-SO 116 ° 0 min 0,000 mm 0,0 UV-I 0 W/m² 6,3 °C 7,7 °C 0,0 km/h (0 Bft)
25.10.2018 19:38 7,6 °C 92 % 1016,3 hPa 0,0 mm 0,0 km/h (0 Bft) O-SO 116 ° 0 min 0,000 mm 0,0 UV-I 0 W/m² 6,4 °C 7,6 °C 0,0 km/h (0 Bft)
25.10.2018 19:39 7,6 °C 92 % 1016,2 hPa 0,0 mm 0,0 km/h (0 Bft) O-SO 116 ° 0 min 0,000 mm 0,0 UV-I 0 W/m² 6,4 °C 7,6 °C 0,0 km/h (0 Bft)
25.10.2018 19:40 7,5 °C 91 % 1016,3 hPa 0,0 mm 0,0 km/h (0 Bft) O-SO 116 ° 0 min 0,000 mm 0,0 UV-I 0 W/m² 6,1 °C 7,5 °C 0,0 km/h (0 Bft)
25.10.2018 19:41 7,4 °C 92 % 1016,2 hPa 0,0 mm 0,0 km/h (0 Bft) O-SO 116 ° 0 min 0,000 mm 0,0 UV-I 0 W/m² 6,2 °C 7,4 °C 0,0 km/h (0 Bft)
25.10.2018 19:42 7,5 °C 92 % 1016,2 hPa 0,0 mm 0,0 km/h (0 Bft) O-SO 116 ° 0 min 0,000 mm 0,0 UV-I 0 W/m² 6,3 °C 7,5 °C 0,0 km/h (0 Bft)
25.10.2018 19:43 7,5 °C 92 % 1016,2 hPa 0,0 mm 0,0 km/h (0 Bft) O-SO 116 ° 0 min 0,000 mm 0,0 UV-I 0 W/m² 6,3 °C 7,5 °C 0,0 km/h (0 Bft)
25.10.2018 19:44 7,5 °C 92 % 1016,3 hPa 0,0 mm 0,0 km/h (0 Bft) O-SO 116 ° 0 min 0,000 mm 0,0 UV-I 0 W/m² 6,3 °C 7,5 °C 0,0 km/h (0 Bft)
25.10.2018 19:45 7,6 °C 92 % 1016,2 hPa 0,0 mm 0,0 km/h (0 Bft) O-SO 116 ° 0 min 0,000 mm 0,0 UV-I 0 W/m² 6,4 °C 7,6 °C 0,0 km/h (0 Bft)
25.10.2018 19:46 7,6 °C 92 % 1016,2 hPa 0,0 mm 0,0 km/h (0 Bft) O-SO 116 ° 0 min 0,000 mm 0,0 UV-I 0 W/m² 6,4 °C 7,6 °C 0,0 km/h (0 Bft)
25.10.2018 19:47 7,6 °C 92 % 1016,2 hPa 0,0 mm 0,0 km/h (0 Bft) O-SO 116 ° 0 min 0,000 mm 0,0 UV-I 0 W/m² 6,4 °C 7,6 °C 0,0 km/h (0 Bft)
25.10.2018 19:48 7,6 °C 92 % 1016,2 hPa 0,0 mm 0,0 km/h (0 Bft) O-SO 116 ° 0 min 0,000 mm 0,0 UV-I 0 W/m² 6,4 °C 7,6 °C 0,0 km/h (0 Bft)
25.10.2018 19:49 7,4 °C 92 % 1016,2 hPa 0,0 mm 0,0 km/h (0 Bft) O-SO 116 ° 0 min 0,000 mm 0,0 UV-I 0 W/m² 6,2 °C 7,4 °C 0,0 km/h (0 Bft)
25.10.2018 19:50 7,4 °C 92 % 1016,1 hPa 0,0 mm 0,0 km/h (0 Bft) O-SO 116 ° 0 min 0,000 mm 0,0 UV-I 0 W/m² 6,2 °C 7,4 °C 0,0 km/h (0 Bft)
25.10.2018 19:51 7,4 °C 92 % 1016,2 hPa 0,0 mm 0,0 km/h (0 Bft) O-SO 116 ° 0 min 0,000 mm 0,0 UV-I 0 W/m² 6,2 °C 7,4 °C 0,0 km/h (0 Bft)
25.10.2018 19:52 7,4 °C 92 % 1016,2 hPa 0,0 mm 0,0 km/h (0 Bft) O-SO 116 ° 0 min 0,000 mm 0,0 UV-I 0 W/m² 6,2 °C 7,4 °C 0,0 km/h (0 Bft)
25.10.2018 19:53 7,4 °C 93 % 1016,2 hPa 0,0 mm 1,5 km/h (1 Bft) O-SO 116 ° 0 min 0,000 mm 0,0 UV-I 0 W/m² 6,3 °C 7,4 °C 3,2 km/h (1 Bft)
25.10.2018 19:54 7,6 °C 93 % 1016,2 hPa 0,0 mm 2,1 km/h (1 Bft) O-SO 116 ° 0 min 0,000 mm 0,0 UV-I 0 W/m² 6,5 °C 7,6 °C 3,2 km/h (1 Bft)
25.10.2018 19:55 7,7 °C 93 % 1016,2 hPa 0,0 mm 0,1 km/h (0 Bft) O-SO 116 ° 0 min 0,000 mm 0,0 UV-I 0 W/m² 6,6 °C 7,7 °C 1,6 km/h (1 Bft)
25.10.2018 19:56 7,8 °C 93 % 1016,1 hPa 0,0 mm 0,0 km/h (0 Bft) O-SO 116 ° 0 min 0,000 mm 0,0 UV-I 0 W/m² 6,7 °C 7,8 °C 0,0 km/h (0 Bft)
25.10.2018 19:57 7,9 °C 93 % 1016,1 hPa 0,0 mm 0,0 km/h (0 Bft) O-SO 116 ° 0 min 0,000 mm 0,0 UV-I 0 W/m² 6,8 °C 7,9 °C 0,0 km/h (0 Bft)
25.10.2018 19:58 8,0 °C 93 % 1016,2 hPa 0,0 mm 0,0 km/h (0 Bft) O-SO 116 ° 0 min 0,000 mm 0,0 UV-I 0 W/m² 6,9 °C 8,0 °C 0,0 km/h (0 Bft)
25.10.2018 19:59 7,8 °C 93 % 1016,2 hPa 0,0 mm 0,0 km/h (0 Bft) O-SO 116 ° 0 min 0,000 mm 0,0 UV-I 0 W/m² 6,7 °C 7,8 °C 0,0 km/h (0 Bft)
25.10.2018 20:00 7,5 °C 92 % 1016,2 hPa 0,0 mm 0,0 km/h (0 Bft) O-SO 116 ° 0 min 0,000 mm 0,0 UV-I 0 W/m² 6,3 °C 7,5 °C 0,0 km/h (0 Bft)
25.10.2018 20:01 7,3 °C 92 % 1016,2 hPa 0,0 mm 0,0 km/h (0 Bft) O-SO 116 ° 0 min 0,000 mm 0,0 UV-I 0 W/m² 6,1 °C 7,3 °C 0,0 km/h (0 Bft)
25.10.2018 20:02 7,2 °C 92 % 1016,2 hPa 0,0 mm 0,0 km/h (0 Bft) O-SO 116 ° 0 min 0,000 mm 0,0 UV-I 0 W/m² 6,0 °C 7,2 °C 0,0 km/h (0 Bft)
25.10.2018 20:03 7,1 °C 92 % 1016,2 hPa 0,0 mm 0,0 km/h (0 Bft) O-SO 116 ° 0 min 0,000 mm 0,0 UV-I 0 W/m² 5,9 °C 7,1 °C 0,0 km/h (0 Bft)
25.10.2018 20:04 7,1 °C 92 % 1016,2 hPa 0,0 mm 0,0 km/h (0 Bft) O-SO 116 ° 0 min 0,000 mm 0,0 UV-I 0 W/m² 5,9 °C 7,1 °C 0,0 km/h (0 Bft)
25.10.2018 20:05 7,1 °C 93 % 1016,2 hPa 0,0 mm 0,0 km/h (0 Bft) O-SO 116 ° 0 min 0,000 mm 0,0 UV-I 0 W/m² 6,0 °C 7,1 °C 0,0 km/h (0 Bft)
25.10.2018 20:06 7,1 °C 93 % 1016,2 hPa 0,0 mm 0,0 km/h (0 Bft) O-SO 116 ° 0 min 0,000 mm 0,0 UV-I 0 W/m² 6,0 °C 7,1 °C 0,0 km/h (0 Bft)
25.10.2018 20:07 7,2 °C 93 % 1016,2 hPa 0,0 mm 0,0 km/h (0 Bft) O-SO 116 ° 0 min 0,000 mm 0,0 UV-I 0 W/m² 6,1 °C 7,2 °C 0,0 km/h (0 Bft)
25.10.2018 20:08 7,1 °C 93 % 1016,2 hPa 0,0 mm 0,0 km/h (0 Bft) O-SO 116 ° 0 min 0,000 mm 0,0 UV-I 0 W/m² 6,0 °C 7,1 °C 0,0 km/h (0 Bft)
25.10.2018 20:09 7,0 °C 92 % 1016,2 hPa 0,0 mm 0,0 km/h (0 Bft) O-SO 116 ° 0 min 0,000 mm 0,0 UV-I 0 W/m² 5,8 °C 7,0 °C 0,0 km/h (0 Bft)
25.10.2018 20:10 6,9 °C 92 % 1016,2 hPa 0,0 mm 0,0 km/h (0 Bft) O-SO 116 ° 0 min 0,000 mm 0,0 UV-I 0 W/m² 5,7 °C 6,9 °C 0,0 km/h (0 Bft)
25.10.2018 20:11 6,7 °C 92 % 1016,2 hPa 0,0 mm 0,0 km/h (0 Bft) O-SO 116 ° 0 min 0,000 mm 0,0 UV-I 0 W/m² 5,5 °C 6,7 °C 0,0 km/h (0 Bft)
25.10.2018 20:12 6,6 °C 92 % 1016,2 hPa 0,0 mm 0,0 km/h (0 Bft) O-SO 116 ° 0 min 0,000 mm 0,0 UV-I 0 W/m² 5,4 °C 6,6 °C 0,0 km/h (0 Bft)
25.10.2018 20:13 6,6 °C 92 % 1016,2 hPa 0,0 mm 0,0 km/h (0 Bft) O-SO 116 ° 0 min 0,000 mm 0,0 UV-I 0 W/m² 5,4 °C 6,6 °C 0,0 km/h (0 Bft)
25.10.2018 20:14 6,6 °C 93 % 1016,2 hPa 0,0 mm 0,0 km/h (0 Bft) O-SO 116 ° 0 min 0,000 mm 0,0 UV-I 0 W/m² 5,6 °C 6,6 °C 0,0 km/h (0 Bft)
25.10.2018 20:15 6,6 °C 93 % 1016,1 hPa 0,0 mm 0,0 km/h (0 Bft) O-SO 116 ° 0 min 0,000 mm 0,0 UV-I 0 W/m² 5,6 °C 6,6 °C 0,0 km/h (0 Bft)
25.10.2018 20:16 6,6 °C 93 % 1016,2 hPa 0,0 mm 0,0 km/h (0 Bft) O-SO 116 ° 0 min 0,000 mm 0,0 UV-I 0 W/m² 5,6 °C 6,6 °C 0,0 km/h (0 Bft)
25.10.2018 20:17 6,6 °C 93 % 1016,2 hPa 0,0 mm 0,0 km/h (0 Bft) O-SO 116 ° 0 min 0,000 mm 0,0 UV-I 0 W/m² 5,6 °C 6,6 °C 0,0 km/h (0 Bft)
25.10.2018 20:18 6,6 °C 93 % 1016,2 hPa 0,0 mm 0,0 km/h (0 Bft) O-SO 116 ° 0 min 0,000 mm 0,0 UV-I 0 W/m² 5,6 °C 6,6 °C 0,0 km/h (0 Bft)
25.10.2018 20:19 6,4 °C 93 % 1016,1 hPa 0,0 mm 0,0 km/h (0 Bft) O-SO 116 ° 0 min 0,000 mm 0,0 UV-I 0 W/m² 5,4 °C 6,4 °C 0,0 km/h (0 Bft)
25.10.2018 20:20 6,3 °C 93 % 1016,2 hPa 0,0 mm 0,0 km/h (0 Bft) O-SO 116 ° 0 min 0,000 mm 0,0 UV-I 0 W/m² 5,3 °C 6,3 °C 0,0 km/h (0 Bft)
25.10.2018 20:21 6,3 °C 93 % 1016,1 hPa 0,0 mm 0,0 km/h (0 Bft) O-SO 116 ° 0 min 0,000 mm 0,0 UV-I 0 W/m² 5,3 °C 6,3 °C 0,0 km/h (0 Bft)
25.10.2018 20:22 6,3 °C 93 % 1016,1 hPa 0,0 mm 0,0 km/h (0 Bft) O-SO 116 ° 0 min 0,000 mm 0,0 UV-I 0 W/m² 5,3 °C 6,3 °C 0,0 km/h (0 Bft)
25.10.2018 20:23 6,3 °C 93 % 1016,1 hPa 0,0 mm 0,0 km/h (0 Bft) O-SO 116 ° 0 min 0,000 mm 0,0 UV-I 0 W/m² 5,3 °C 6,3 °C 0,0 km/h (0 Bft)
25.10.2018 20:24 6,2 °C 93 % 1016,1 hPa 0,0 mm 0,0 km/h (0 Bft) O-SO 116 ° 0 min 0,000 mm 0,0 UV-I 0 W/m² 5,2 °C 6,2 °C 0,0 km/h (0 Bft)
25.10.2018 20:25 6,3 °C 93 % 1016,1 hPa 0,0 mm 0,0 km/h (0 Bft) O-SO 116 ° 0 min 0,000 mm 0,0 UV-I 0 W/m² 5,3 °C 6,3 °C 0,0 km/h (0 Bft)
25.10.2018 20:26 6,2 °C 93 % 1016,1 hPa 0,0 mm 0,0 km/h (0 Bft) O-SO 116 ° 0 min 0,000 mm 0,0 UV-I 0 W/m² 5,2 °C 6,2 °C 0,0 km/h (0 Bft)
25.10.2018 20:27 6,2 °C 93 % 1016,1 hPa 0,0 mm 0,0 km/h (0 Bft) O-SO 116 ° 0 min 0,000 mm 0,0 UV-I 0 W/m² 5,2 °C 6,2 °C 0,0 km/h (0 Bft)
25.10.2018 20:28 6,3 °C 93 % 1016,1 hPa 0,0 mm 0,0 km/h (0 Bft) O-SO 116 ° 0 min 0,000 mm 0,0 UV-I 0 W/m² 5,3 °C 6,3 °C 0,0 km/h (0 Bft)
25.10.2018 20:29 6,3 °C 93 % 1016,1 hPa 0,0 mm 0,0 km/h (0 Bft) O-SO 116 ° 0 min 0,000 mm 0,0 UV-I 0 W/m² 5,3 °C 6,3 °C 0,0 km/h (0 Bft)
25.10.2018 20:30 6,4 °C 93 % 1016,1 hPa 0,0 mm 0,0 km/h (0 Bft) O-SO 116 ° 0 min 0,000 mm 0,0 UV-I 0 W/m² 5,4 °C 6,4 °C 0,0 km/h (0 Bft)
25.10.2018 20:31 6,3 °C 93 % 1016,1 hPa 0,0 mm 0,0 km/h (0 Bft) O-SO 116 ° 0 min 0,000 mm 0,0 UV-I 0 W/m² 5,3 °C 6,3 °C 0,0 km/h (0 Bft)
25.10.2018 20:32 6,3 °C 93 % 1016,0 hPa 0,0 mm 0,0 km/h (0 Bft) O-SO 116 ° 0 min 0,000 mm 0,0 UV-I 0 W/m² 5,3 °C 6,3 °C 0,0 km/h (0 Bft)
25.10.2018 20:33 6,3 °C 93 % 1016,1 hPa 0,0 mm 0,0 km/h (0 Bft) O-SO 116 ° 0 min 0,000 mm 0,0 UV-I 0 W/m² 5,3 °C 6,3 °C 0,0 km/h (0 Bft)
25.10.2018 20:34 6,3 °C 93 % 1016,0 hPa 0,0 mm 0,0 km/h (0 Bft) O-SO 116 ° 0 min 0,000 mm 0,0 UV-I 0 W/m² 5,3 °C 6,3 °C 0,0 km/h (0 Bft)
25.10.2018 20:35 6,2 °C 93 % 1016,0 hPa 0,0 mm 0,0 km/h (0 Bft) O-SO 116 ° 0 min 0,000 mm 0,0 UV-I 0 W/m² 5,2 °C 6,2 °C 0,0 km/h (0 Bft)
25.10.2018 20:36 6,2 °C 93 % 1016,0 hPa 0,0 mm 0,0 km/h (0 Bft) O-SO 116 ° 0 min 0,000 mm 0,0 UV-I 0 W/m² 5,2 °C 6,2 °C 0,0 km/h (0 Bft)
25.10.2018 20:37 6,2 °C 93 % 1016,0 hPa 0,0 mm 0,0 km/h (0 Bft) O-SO 116 ° 0 min 0,000 mm 0,0 UV-I 0 W/m² 5,2 °C 6,2 °C 0,0 km/h (0 Bft)
25.10.2018 20:38 6,1 °C 93 % 1016,0 hPa 0,0 mm 0,0 km/h (0 Bft) O-SO 116 ° 0 min 0,000 mm 0,0 UV-I 0 W/m² 5,1 °C 6,1 °C 0,0 km/h (0 Bft)
25.10.2018 20:39 5,9 °C 93 % 1015,9 hPa 0,0 mm 0,0 km/h (0 Bft) O-SO 116 ° 0 min 0,000 mm 0,0 UV-I 0 W/m² 4,9 °C 5,9 °C 0,0 km/h (0 Bft)
25.10.2018 20:40 6,0 °C 93 % 1016,0 hPa 0,0 mm 0,0 km/h (0 Bft) O-SO 116 ° 0 min 0,000 mm 0,0 UV-I 0 W/m² 5,0 °C 6,0 °C 0,0 km/h (0 Bft)
25.10.2018 20:41 6,1 °C 93 % 1015,9 hPa 0,0 mm 0,0 km/h (0 Bft) O-SO 116 ° 0 min 0,000 mm 0,0 UV-I 0 W/m² 5,1 °C 6,1 °C 0,0 km/h (0 Bft)
25.10.2018 20:42 6,2 °C 94 % 1016,0 hPa 0,0 mm 0,0 km/h (0 Bft) O-SO 116 ° 0 min 0,000 mm 0,0 UV-I 0 W/m² 5,3 °C 6,2 °C 0,0 km/h (0 Bft)
25.10.2018 20:43 6,1 °C 94 % 1016,0 hPa 0,0 mm 0,0 km/h (0 Bft) O-SO 116 ° 0 min 0,000 mm 0,0 UV-I 0 W/m² 5,2 °C 6,1 °C 0,0 km/h (0 Bft)
25.10.2018 20:44 5,9 °C 93 % 1015,9 hPa 0,0 mm 0,0 km/h (0 Bft) O-SO 116 ° 0 min 0,000 mm 0,0 UV-I 0 W/m² 4,9 °C 5,9 °C 0,0 km/h (0 Bft)
25.10.2018 20:45 5,8 °C 93 % 1015,9 hPa 0,0 mm 0,0 km/h (0 Bft) O-SO 116 ° 0 min 0,000 mm 0,0 UV-I 0 W/m² 4,8 °C 5,8 °C 0,0 km/h (0 Bft)
25.10.2018 20:46 5,8 °C 93 % 1015,9 hPa 0,0 mm 0,0 km/h (0 Bft) O-SO 116 ° 0 min 0,000 mm 0,0 UV-I 0 W/m² 4,8 °C 5,8 °C 0,0 km/h (0 Bft)
25.10.2018 20:47 5,7 °C 93 % 1015,9 hPa 0,0 mm 0,0 km/h (0 Bft) O-SO 116 ° 0 min 0,000 mm 0,0 UV-I 0 W/m² 4,7 °C 5,7 °C 0,0 km/h (0 Bft)
25.10.2018 20:48 5,7 °C 93 % 1015,9 hPa 0,0 mm 0,0 km/h (0 Bft) O-SO 116 ° 0 min 0,000 mm 0,0 UV-I 0 W/m² 4,7 °C 5,7 °C 0,0 km/h (0 Bft)
25.10.2018 20:49 5,7 °C 93 % 1015,9 hPa 0,0 mm 0,0 km/h (0 Bft) O-SO 116 ° 0 min 0,000 mm 0,0 UV-I 0 W/m² 4,7 °C 5,7 °C 0,0 km/h (0 Bft)
25.10.2018 20:50 5,7 °C 93 % 1015,9 hPa 0,0 mm 0,0 km/h (0 Bft) O-SO 116 ° 0 min 0,000 mm 0,0 UV-I 0 W/m² 4,7 °C 5,7 °C 0,0 km/h (0 Bft)
25.10.2018 20:51 5,7 °C 93 % 1015,9 hPa 0,0 mm 0,0 km/h (0 Bft) O-SO 116 ° 0 min 0,000 mm 0,0 UV-I 0 W/m² 4,7 °C 5,7 °C 0,0 km/h (0 Bft)
25.10.2018 20:52 5,7 °C 93 % 1015,9 hPa 0,0 mm 0,0 km/h (0 Bft) O-SO 116 ° 0 min 0,000 mm 0,0 UV-I 0 W/m² 4,7 °C 5,7 °C 0,0 km/h (0 Bft)
25.10.2018 20:53 5,6 °C 93 % 1015,9 hPa 0,0 mm 0,0 km/h (0 Bft) O-SO 116 ° 0 min 0,000 mm 0,0 UV-I 0 W/m² 4,6 °C 5,6 °C 0,0 km/h (0 Bft)
25.10.2018 20:54 5,6 °C 93 % 1015,9 hPa 0,0 mm 0,0 km/h (0 Bft) O-SO 116 ° 0 min 0,000 mm 0,0 UV-I 0 W/m² 4,6 °C 5,6 °C 0,0 km/h (0 Bft)
25.10.2018 20:55 5,6 °C 93 % 1015,8 hPa 0,0 mm 0,0 km/h (0 Bft) O-SO 116 ° 0 min 0,000 mm 0,0 UV-I 0 W/m² 4,6 °C 5,6 °C 0,0 km/h (0 Bft)
25.10.2018 20:56 5,6 °C 93 % 1015,9 hPa 0,0 mm 0,0 km/h (0 Bft) O-SO 116 ° 0 min 0,000 mm 0,0 UV-I 0 W/m² 4,6 °C 5,6 °C 0,0 km/h (0 Bft)
25.10.2018 20:57 5,6 °C 94 % 1015,9 hPa 0,0 mm 0,0 km/h (0 Bft) O-SO 116 ° 0 min 0,000 mm 0,0 UV-I 0 W/m² 4,7 °C 5,6 °C 0,0 km/h (0 Bft)
25.10.2018 20:58 5,7 °C 94 % 1015,9 hPa 0,0 mm 0,0 km/h (0 Bft) O-SO 116 ° 0 min 0,000 mm 0,0 UV-I 0 W/m² 4,8 °C 5,7 °C 0,0 km/h (0 Bft)
25.10.2018 20:59 5,7 °C 94 % 1015,9 hPa 0,0 mm 0,0 km/h (0 Bft) O-SO 116 ° 0 min 0,000 mm 0,0 UV-I 0 W/m² 4,8 °C 5,7 °C 0,0 km/h (0 Bft)
25.10.2018 21:00 5,8 °C 94 % 1015,9 hPa 0,0 mm 0,0 km/h (0 Bft) O-SO 116 ° 0 min 0,000 mm 0,0 UV-I 0 W/m² 4,9 °C 5,8 °C 0,0 km/h (0 Bft)
25.10.2018 21:01 5,9 °C 94 % 1015,9 hPa 0,0 mm 0,0 km/h (0 Bft) O-SO 116 ° 0 min 0,000 mm 0,0 UV-I 0 W/m² 5,0 °C 5,9 °C 0,0 km/h (0 Bft)
25.10.2018 21:02 6,2 °C 94 % 1015,9 hPa 0,0 mm 0,0 km/h (0 Bft) O-SO 116 ° 0 min 0,000 mm 0,0 UV-I 0 W/m² 5,3 °C 6,2 °C 0,0 km/h (0 Bft)
25.10.2018 21:03 6,3 °C 94 % 1015,9 hPa 0,0 mm 0,0 km/h (0 Bft) O-SO 116 ° 0 min 0,000 mm 0,0 UV-I 0 W/m² 5,4 °C 6,3 °C 0,0 km/h (0 Bft)
25.10.2018 21:04 6,2 °C 94 % 1015,9 hPa 0,0 mm 0,0 km/h (0 Bft) O-SO 116 ° 0 min 0,000 mm 0,0 UV-I 0 W/m² 5,3 °C 6,2 °C 0,0 km/h (0 Bft)
25.10.2018 21:05 6,2 °C 94 % 1015,9 hPa 0,0 mm 0,0 km/h (0 Bft) O-SO 116 ° 0 min 0,000 mm 0,0 UV-I 0 W/m² 5,3 °C 6,2 °C 0,0 km/h (0 Bft)
25.10.2018 21:06 6,2 °C 94 % 1015,9 hPa 0,0 mm 0,0 km/h (0 Bft) O-SO 116 ° 0 min 0,000 mm 0,0 UV-I 0 W/m² 5,3 °C 6,2 °C 0,0 km/h (0 Bft)
25.10.2018 21:07 6,3 °C 94 % 1015,9 hPa 0,0 mm 0,0 km/h (0 Bft) O-SO 116 ° 0 min 0,000 mm 0,0 UV-I 0 W/m² 5,4 °C 6,3 °C 0,0 km/h (0 Bft)
25.10.2018 21:08 6,4 °C 94 % 1015,9 hPa 0,0 mm 0,0 km/h (0 Bft) O-SO 116 ° 0 min 0,000 mm 0,0 UV-I 0 W/m² 5,5 °C 6,4 °C 0,0 km/h (0 Bft)
25.10.2018 21:09 6,4 °C 94 % 1015,9 hPa 0,0 mm 0,0 km/h (0 Bft) O-SO 116 ° 0 min 0,000 mm 0,0 UV-I 0 W/m² 5,5 °C 6,4 °C 0,0 km/h (0 Bft)
25.10.2018 21:10 6,3 °C 94 % 1015,9 hPa 0,0 mm 0,0 km/h (0 Bft) O-SO 116 ° 0 min 0,000 mm 0,0 UV-I 0 W/m² 5,4 °C 6,3 °C 0,0 km/h (0 Bft)
25.10.2018 21:11 6,3 °C 94 % 1015,9 hPa 0,0 mm 0,0 km/h (0 Bft) O-SO 116 ° 0 min 0,000 mm 0,0 UV-I 0 W/m² 5,4 °C 6,3 °C 0,0 km/h (0 Bft)
25.10.2018 21:12 6,3 °C 94 % 1015,9 hPa 0,0 mm 0,0 km/h (0 Bft) O-SO 116 ° 0 min 0,000 mm 0,0 UV-I 0 W/m² 5,4 °C 6,3 °C 0,0 km/h (0 Bft)
25.10.2018 21:13 6,4 °C 94 % 1015,9 hPa 0,0 mm 0,0 km/h (0 Bft) O-SO 116 ° 0 min 0,000 mm 0,0 UV-I 0 W/m² 5,5 °C 6,4 °C 0,0 km/h (0 Bft)
25.10.2018 21:14 6,5 °C 94 % 1015,9 hPa 0,0 mm 0,7 km/h (0 Bft) N 350 ° 0 min 0,000 mm 0,0 UV-I 0 W/m² 5,6 °C 6,5 °C 3,2 km/h (1 Bft)
25.10.2018 21:15 6,2 °C 94 % 1015,9 hPa 0,0 mm 2,5 km/h (1 Bft) N 350 ° 0 min 0,000 mm 0,0 UV-I 0 W/m² 5,3 °C 6,2 °C 4,8 km/h (1 Bft)
25.10.2018 21:16 5,8 °C 93 % 1015,9 hPa 0,0 mm 0,0 km/h (0 Bft) N 350 ° 0 min 0,000 mm 0,0 UV-I 0 W/m² 4,8 °C 5,8 °C 0,0 km/h (0 Bft)
25.10.2018 21:17 5,4 °C 92 % 1015,8 hPa 0,0 mm 0,0 km/h (0 Bft) N 350 ° 0 min 0,000 mm 0,0 UV-I 0 W/m² 4,2 °C 5,4 °C 0,0 km/h (0 Bft)
25.10.2018 21:18 5,3 °C 93 % 1015,9 hPa 0,0 mm 0,0 km/h (0 Bft) N 350 ° 0 min 0,000 mm 0,0 UV-I 0 W/m² 4,3 °C 5,3 °C 0,0 km/h (0 Bft)
25.10.2018 21:19 5,3 °C 94 % 1015,8 hPa 0,0 mm 0,0 km/h (0 Bft) N 350 ° 0 min 0,000 mm 0,0 UV-I 0 W/m² 4,4 °C 5,3 °C 0,0 km/h (0 Bft)
25.10.2018 21:20 5,2 °C 94 % 1015,9 hPa 0,0 mm 0,0 km/h (0 Bft) N 350 ° 0 min 0,000 mm 0,0 UV-I 0 W/m² 4,3 °C 5,2 °C 0,0 km/h (0 Bft)
25.10.2018 21:21 5,2 °C 93 % 1015,9 hPa 0,0 mm 0,0 km/h (0 Bft) N 350 ° 0 min 0,000 mm 0,0 UV-I 0 W/m² 4,2 °C 5,2 °C 0,0 km/h (0 Bft)
25.10.2018 21:22 5,2 °C 93 % 1015,9 hPa 0,0 mm 0,0 km/h (0 Bft) N 350 ° 0 min 0,000 mm 0,0 UV-I 0 W/m² 4,2 °C 5,2 °C 0,0 km/h (0 Bft)
25.10.2018 21:23 5,2 °C 94 % 1015,9 hPa 0,0 mm 0,0 km/h (0 Bft) N 350 ° 0 min 0,000 mm 0,0 UV-I 0 W/m² 4,3 °C 5,2 °C 0,0 km/h (0 Bft)
25.10.2018 21:24 5,2 °C 94 % 1015,9 hPa 0,0 mm 0,0 km/h (0 Bft) N 350 ° 0 min 0,000 mm 0,0 UV-I 0 W/m² 4,3 °C 5,2 °C 0,0 km/h (0 Bft)
25.10.2018 21:25 5,2 °C 94 % 1015,9 hPa 0,0 mm 0,0 km/h (0 Bft) N 350 ° 0 min 0,000 mm 0,0 UV-I 0 W/m² 4,3 °C 5,2 °C 0,0 km/h (0 Bft)
25.10.2018 21:26 5,2 °C 94 % 1015,9 hPa 0,0 mm 0,0 km/h (0 Bft) N 350 ° 0 min 0,000 mm 0,0 UV-I 0 W/m² 4,3 °C 5,2 °C 0,0 km/h (0 Bft)
25.10.2018 21:27 5,2 °C 94 % 1015,9 hPa 0,0 mm 0,0 km/h (0 Bft) N 350 ° 0 min 0,000 mm 0,0 UV-I 0 W/m² 4,3 °C 5,2 °C 0,0 km/h (0 Bft)
25.10.2018 21:28 5,3 °C 94 % 1015,9 hPa 0,0 mm 0,0 km/h (0 Bft) N 350 ° 0 min 0,000 mm 0,0 UV-I 0 W/m² 4,4 °C 5,3 °C 0,0 km/h (0 Bft)
25.10.2018 21:29 5,4 °C 94 % 1015,9 hPa 0,0 mm 0,0 km/h (0 Bft) N 350 ° 0 min 0,000 mm 0,0 UV-I 0 W/m² 4,5 °C 5,4 °C 0,0 km/h (0 Bft)
25.10.2018 21:30 5,6 °C 94 % 1015,9 hPa 0,0 mm 0,0 km/h (0 Bft) N 350 ° 0 min 0,000 mm 0,0 UV-I 0 W/m² 4,7 °C 5,6 °C 0,0 km/h (0 Bft)
25.10.2018 21:31 5,8 °C 95 % 1015,9 hPa 0,0 mm 0,0 km/h (0 Bft) N 350 ° 0 min 0,000 mm 0,0 UV-I 0 W/m² 5,1 °C 5,8 °C 0,0 km/h (0 Bft)
25.10.2018 21:32 6,0 °C 95 % 1015,9 hPa 0,0 mm 0,0 km/h (0 Bft) N 350 ° 0 min 0,000 mm 0,0 UV-I 0 W/m² 5,3 °C 6,0 °C 0,0 km/h (0 Bft)
25.10.2018 21:33 6,0 °C 95 % 1015,9 hPa 0,0 mm 0,0 km/h (0 Bft) N 350 ° 0 min 0,000 mm 0,0 UV-I 0 W/m² 5,3 °C 6,0 °C 0,0 km/h (0 Bft)
25.10.2018 21:34 6,2 °C 94 % 1015,9 hPa 0,0 mm 0,0 km/h (0 Bft) N 350 ° 0 min 0,000 mm 0,0 UV-I 0 W/m² 5,3 °C 6,2 °C 0,0 km/h (0 Bft)
25.10.2018 21:35 6,3 °C 95 % 1015,8 hPa 0,0 mm 0,0 km/h (0 Bft) N 350 ° 0 min 0,000 mm 0,0 UV-I 0 W/m² 5,6 °C 6,3 °C 0,0 km/h (0 Bft)
25.10.2018 21:36 6,5 °C 95 % 1015,9 hPa 0,0 mm 0,0 km/h (0 Bft) N 350 ° 0 min 0,000 mm 0,0 UV-I 0 W/m² 5,8 °C 6,5 °C 0,0 km/h (0 Bft)
25.10.2018 21:37 6,4 °C 95 % 1015,8 hPa 0,0 mm 0,0 km/h (0 Bft) N 350 ° 0 min 0,000 mm 0,0 UV-I 0 W/m² 5,7 °C 6,4 °C 0,0 km/h (0 Bft)
25.10.2018 21:38 6,1 °C 94 % 1015,9 hPa 0,0 mm 0,0 km/h (0 Bft) N 350 ° 0 min 0,000 mm 0,0 UV-I 0 W/m² 5,2 °C 6,1 °C 0,0 km/h (0 Bft)
25.10.2018 21:39 5,8 °C 94 % 1015,9 hPa 0,0 mm 0,0 km/h (0 Bft) N 350 ° 0 min 0,000 mm 0,0 UV-I 0 W/m² 4,9 °C 5,8 °C 0,0 km/h (0 Bft)
25.10.2018 21:40 5,6 °C 93 % 1015,9 hPa 0,0 mm 0,0 km/h (0 Bft) N 350 ° 0 min 0,000 mm 0,0 UV-I 0 W/m² 4,6 °C 5,6 °C 0,0 km/h (0 Bft)
25.10.2018 21:41 5,6 °C 94 % 1015,8 hPa 0,0 mm 0,0 km/h (0 Bft) N 350 ° 0 min 0,000 mm 0,0 UV-I 0 W/m² 4,7 °C 5,6 °C 0,0 km/h (0 Bft)
25.10.2018 21:42 5,4 °C 93 % 1015,9 hPa 0,0 mm 0,0 km/h (0 Bft) N 350 ° 0 min 0,000 mm 0,0 UV-I 0 W/m² 4,4 °C 5,4 °C 0,0 km/h (0 Bft)
25.10.2018 21:43 5,4 °C 94 % 1015,9 hPa 0,0 mm 0,0 km/h (0 Bft) N 350 ° 0 min 0,000 mm 0,0 UV-I 0 W/m² 4,5 °C 5,4 °C 0,0 km/h (0 Bft)
25.10.2018 21:44 5,5 °C 94 % 1015,9 hPa 0,0 mm 0,0 km/h (0 Bft) N 350 ° 0 min 0,000 mm 0,0 UV-I 0 W/m² 4,6 °C 5,5 °C 0,0 km/h (0 Bft)
25.10.2018 21:45 5,6 °C 94 % 1015,9 hPa 0,0 mm 0,0 km/h (0 Bft) N 350 ° 0 min 0,000 mm 0,0 UV-I 0 W/m² 4,7 °C 5,6 °C 0,0 km/h (0 Bft)
25.10.2018 21:46 5,6 °C 94 % 1015,9 hPa 0,0 mm 0,0 km/h (0 Bft) N 350 ° 0 min 0,000 mm 0,0 UV-I 0 W/m² 4,7 °C 5,6 °C 0,0 km/h (0 Bft)
25.10.2018 21:47 5,8 °C 94 % 1015,9 hPa 0,0 mm 0,0 km/h (0 Bft) N 350 ° 0 min 0,000 mm 0,0 UV-I 0 W/m² 4,9 °C 5,8 °C 0,0 km/h (0 Bft)
25.10.2018 21:48 5,9 °C 95 % 1015,9 hPa 0,0 mm 0,0 km/h (0 Bft) N 350 ° 0 min 0,000 mm 0,0 UV-I 0 W/m² 5,2 °C 5,9 °C 0,0 km/h (0 Bft)
25.10.2018 21:49 6,1 °C 95 % 1015,8 hPa 0,0 mm 0,0 km/h (0 Bft) N 350 ° 0 min 0,000 mm 0,0 UV-I 0 W/m² 5,4 °C 6,1 °C 0,0 km/h (0 Bft)
25.10.2018 21:50 6,2 °C 95 % 1015,8 hPa 0,0 mm 0,0 km/h (0 Bft) N 350 ° 0 min 0,000 mm 0,0 UV-I 0 W/m² 5,5 °C 6,2 °C 0,0 km/h (0 Bft)
25.10.2018 21:51 6,3 °C 95 % 1015,8 hPa 0,0 mm 0,0 km/h (0 Bft) N 350 ° 0 min 0,000 mm 0,0 UV-I 0 W/m² 5,6 °C 6,3 °C 0,0 km/h (0 Bft)
25.10.2018 21:52 6,5 °C 95 % 1015,8 hPa 0,0 mm 0,0 km/h (0 Bft) N 350 ° 0 min 0,000 mm 0,0 UV-I 0 W/m² 5,8 °C 6,5 °C 0,0 km/h (0 Bft)
25.10.2018 21:53 6,6 °C 95 % 1015,8 hPa 0,0 mm 0,0 km/h (0 Bft) N 350 ° 0 min 0,000 mm 0,0 UV-I 0 W/m² 5,9 °C 6,6 °C 0,0 km/h (0 Bft)
25.10.2018 21:54 6,8 °C 95 % 1015,8 hPa 0,0 mm 0,0 km/h (0 Bft) N 350 ° 0 min 0,000 mm 0,0 UV-I 0 W/m² 6,1 °C 6,8 °C 0,0 km/h (0 Bft)
25.10.2018 21:55 6,8 °C 95 % 1015,8 hPa 0,0 mm 0,0 km/h (0 Bft) N 350 ° 0 min 0,000 mm 0,0 UV-I 0 W/m² 6,1 °C 6,8 °C 0,0 km/h (0 Bft)
25.10.2018 21:56 6,8 °C 95 % 1015,8 hPa 0,0 mm 0,0 km/h (0 Bft) N 350 ° 0 min 0,000 mm 0,0 UV-I 0 W/m² 6,1 °C 6,8 °C 0,0 km/h (0 Bft)
25.10.2018 21:57 6,8 °C 95 % 1015,9 hPa 0,0 mm 0,0 km/h (0 Bft) N 350 ° 0 min 0,000 mm 0,0 UV-I 0 W/m² 6,1 °C 6,8 °C 0,0 km/h (0 Bft)
25.10.2018 21:58 6,8 °C 95 % 1015,8 hPa 0,0 mm 0,0 km/h (0 Bft) N 350 ° 0 min 0,000 mm 0,0 UV-I 0 W/m² 6,1 °C 6,8 °C 0,0 km/h (0 Bft)
25.10.2018 21:59 6,8 °C 94 % 1015,8 hPa 0,0 mm 0,0 km/h (0 Bft) N 350 ° 0 min 0,000 mm 0,0 UV-I 0 W/m² 5,9 °C 6,8 °C 0,0 km/h (0 Bft)
25.10.2018 22:00 6,8 °C 94 % 1015,8 hPa 0,0 mm 0,0 km/h (0 Bft) N 350 ° 0 min 0,000 mm 0,0 UV-I 0 W/m² 5,9 °C 6,8 °C 0,0 km/h (0 Bft)
25.10.2018 22:01 6,8 °C 94 % 1015,8 hPa 0,0 mm 0,0 km/h (0 Bft) N 350 ° 0 min 0,000 mm 0,0 UV-I 0 W/m² 5,9 °C 6,8 °C 0,0 km/h (0 Bft)
25.10.2018 22:02 6,8 °C 94 % 1015,8 hPa 0,0 mm 0,0 km/h (0 Bft) N 350 ° 0 min 0,000 mm 0,0 UV-I 0 W/m² 5,9 °C 6,8 °C 0,0 km/h (0 Bft)
25.10.2018 22:03 6,8 °C 94 % 1015,8 hPa 0,0 mm 0,0 km/h (0 Bft) N 350 ° 0 min 0,000 mm 0,0 UV-I 0 W/m² 5,9 °C 6,8 °C 0,0 km/h (0 Bft)
25.10.2018 22:04 6,8 °C 94 % 1015,8 hPa 0,0 mm 0,0 km/h (0 Bft) N 350 ° 0 min 0,000 mm 0,0 UV-I 0 W/m² 5,9 °C 6,8 °C 0,0 km/h (0 Bft)
25.10.2018 22:05 6,7 °C 94 % 1015,8 hPa 0,0 mm 0,0 km/h (0 Bft) N 350 ° 0 min 0,000 mm 0,0 UV-I 0 W/m² 5,8 °C 6,7 °C 0,0 km/h (0 Bft)
25.10.2018 22:06 6,7 °C 94 % 1015,8 hPa 0,0 mm 0,0 km/h (0 Bft) N 350 ° 0 min 0,000 mm 0,0 UV-I 0 W/m² 5,8 °C 6,7 °C 0,0 km/h (0 Bft)
25.10.2018 22:07 6,8 °C 94 % 1015,8 hPa 0,0 mm 0,0 km/h (0 Bft) N 350 ° 0 min 0,000 mm 0,0 UV-I 0 W/m² 5,9 °C 6,8 °C 0,0 km/h (0 Bft)
25.10.2018 22:08 6,8 °C 94 % 1015,8 hPa 0,0 mm 0,0 km/h (0 Bft) N 350 ° 0 min 0,000 mm 0,0 UV-I 0 W/m² 5,9 °C 6,8 °C 0,0 km/h (0 Bft)
25.10.2018 22:09 6,8 °C 94 % 1015,8 hPa 0,0 mm 0,0 km/h (0 Bft) N 350 ° 0 min 0,000 mm 0,0 UV-I 0 W/m² 5,9 °C 6,8 °C 0,0 km/h (0 Bft)
25.10.2018 22:10 6,8 °C 94 % 1015,8 hPa 0,0 mm 0,0 km/h (0 Bft) N 350 ° 0 min 0,000 mm 0,0 UV-I 0 W/m² 5,9 °C 6,8 °C 0,0 km/h (0 Bft)
25.10.2018 22:11 6,8 °C 94 % 1015,8 hPa 0,0 mm 0,0 km/h (0 Bft) N 350 ° 0 min 0,000 mm 0,0 UV-I 0 W/m² 5,9 °C 6,8 °C 0,0 km/h (0 Bft)
25.10.2018 22:12 6,8 °C 94 % 1015,7 hPa 0,0 mm 0,0 km/h (0 Bft) N 350 ° 0 min 0,000 mm 0,0 UV-I 0 W/m² 5,9 °C 6,8 °C 0,0 km/h (0 Bft)
25.10.2018 22:13 6,8 °C 94 % 1015,8 hPa 0,0 mm 0,0 km/h (0 Bft) N 350 ° 0 min 0,000 mm 0,0 UV-I 0 W/m² 5,9 °C 6,8 °C 0,0 km/h (0 Bft)
25.10.2018 22:14 6,8 °C 94 % 1015,7 hPa 0,0 mm 0,0 km/h (0 Bft) N 350 ° 0 min 0,000 mm 0,0 UV-I 0 W/m² 5,9 °C 6,8 °C 0,0 km/h (0 Bft)
25.10.2018 22:15 6,8 °C 94 % 1015,7 hPa 0,0 mm 0,0 km/h (0 Bft) N 350 ° 0 min 0,000 mm 0,0 UV-I 0 W/m² 5,9 °C 6,8 °C 0,0 km/h (0 Bft)
25.10.2018 22:16 6,8 °C 94 % 1015,7 hPa 0,0 mm 0,0 km/h (0 Bft) N 350 ° 0 min 0,000 mm 0,0 UV-I 0 W/m² 5,9 °C 6,8 °C 0,0 km/h (0 Bft)
25.10.2018 22:17 6,8 °C 94 % 1015,7 hPa 0,0 mm 0,1 km/h (0 Bft) N 350 ° 0 min 0,000 mm 0,0 UV-I 0 W/m² 5,9 °C 6,8 °C 1,6 km/h (1 Bft)
25.10.2018 22:18 6,9 °C 94 % 1015,7 hPa 0,0 mm 0,1 km/h (0 Bft) N 350 ° 0 min 0,000 mm 0,0 UV-I 0 W/m² 6,0 °C 6,9 °C 1,6 km/h (1 Bft)
25.10.2018 22:19 6,9 °C 95 % 1015,8 hPa 0,0 mm 0,0 km/h (0 Bft) N 350 ° 0 min 0,000 mm 0,0 UV-I 0 W/m² 6,2 °C 6,9 °C 0,0 km/h (0 Bft)
25.10.2018 22:20 6,9 °C 95 % 1015,7 hPa 0,0 mm 1,8 km/h (1 Bft) N 350 ° 0 min 0,000 mm 0,0 UV-I 0 W/m² 6,2 °C 6,9 °C 3,2 km/h (1 Bft)
25.10.2018 22:21 6,9 °C 95 % 1015,8 hPa 0,0 mm 0,8 km/h (0 Bft) N 350 ° 0 min 0,000 mm 0,0 UV-I 0 W/m² 6,2 °C 6,9 °C 3,2 km/h (1 Bft)
25.10.2018 22:22 6,9 °C 94 % 1015,7 hPa 0,0 mm 0,0 km/h (0 Bft) N 350 ° 0 min 0,000 mm 0,0 UV-I 0 W/m² 6,0 °C 6,9 °C 0,0 km/h (0 Bft)
25.10.2018 22:23 6,9 °C 94 % 1015,7 hPa 0,0 mm 0,0 km/h (0 Bft) N 350 ° 0 min 0,000 mm 0,0 UV-I 0 W/m² 6,0 °C 6,9 °C 0,0 km/h (0 Bft)
25.10.2018 22:24 6,9 °C 94 % 1015,7 hPa 0,0 mm 0,0 km/h (0 Bft) N 350 ° 0 min 0,000 mm 0,0 UV-I 0 W/m² 6,0 °C 6,9 °C 0,0 km/h (0 Bft)
25.10.2018 22:25 7,0 °C 95 % 1015,8 hPa 0,0 mm 0,0 km/h (0 Bft) N 350 ° 0 min 0,000 mm 0,0 UV-I 0 W/m² 6,3 °C 7,0 °C 0,0 km/h (0 Bft)
25.10.2018 22:26 7,0 °C 94 % 1015,7 hPa 0,0 mm 0,1 km/h (0 Bft) N 350 ° 0 min 0,000 mm 0,0 UV-I 0 W/m² 6,1 °C 7,0 °C 1,6 km/h (1 Bft)
25.10.2018 22:27 7,1 °C 94 % 1015,7 hPa 0,0 mm 0,0 km/h (0 Bft) N 350 ° 0 min 0,000 mm 0,0 UV-I 0 W/m² 6,2 °C 7,1 °C 0,0 km/h (0 Bft)
25.10.2018 22:28 7,2 °C 95 % 1015,8 hPa 0,0 mm 0,0 km/h (0 Bft) N 350 ° 0 min 0,000 mm 0,0 UV-I 0 W/m² 6,5 °C 7,2 °C 0,0 km/h (0 Bft)
25.10.2018 22:29 7,3 °C 95 % 1015,7 hPa 0,0 mm 0,0 km/h (0 Bft) N 350 ° 0 min 0,000 mm 0,0 UV-I 0 W/m² 6,6 °C 7,3 °C 0,0 km/h (0 Bft)
25.10.2018 22:30 7,2 °C 95 % 1015,7 hPa 0,0 mm 0,1 km/h (0 Bft) N 350 ° 0 min 0,000 mm 0,0 UV-I 0 W/m² 6,5 °C 7,2 °C 1,6 km/h (1 Bft)
25.10.2018 22:31 7,2 °C 95 % 1015,7 hPa 0,0 mm 0,0 km/h (0 Bft) N 350 ° 0 min 0,000 mm 0,0 UV-I 0 W/m² 6,5 °C 7,2 °C 0,0 km/h (0 Bft)
25.10.2018 22:32 7,3 °C 95 % 1015,8 hPa 0,0 mm 0,0 km/h (0 Bft) N 350 ° 0 min 0,000 mm 0,0 UV-I 0 W/m² 6,6 °C 7,3 °C 0,0 km/h (0 Bft)
25.10.2018 22:33 7,3 °C 95 % 1015,7 hPa 0,0 mm 0,0 km/h (0 Bft) N 350 ° 0 min 0,000 mm 0,0 UV-I 0 W/m² 6,6 °C 7,3 °C 0,0 km/h (0 Bft)
25.10.2018 22:34 7,3 °C 95 % 1015,7 hPa 0,0 mm 0,0 km/h (0 Bft) N 350 ° 0 min 0,000 mm 0,0 UV-I 0 W/m² 6,6 °C 7,3 °C 0,0 km/h (0 Bft)
25.10.2018 22:35 7,3 °C 95 % 1015,7 hPa 0,0 mm 0,0 km/h (0 Bft) N 350 ° 0 min 0,000 mm 0,0 UV-I 0 W/m² 6,6 °C 7,3 °C 0,0 km/h (0 Bft)
25.10.2018 22:36 7,3 °C 95 % 1015,7 hPa 0,0 mm 0,0 km/h (0 Bft) N 350 ° 0 min 0,000 mm 0,0 UV-I 0 W/m² 6,6 °C 7,3 °C 0,0 km/h (0 Bft)
25.10.2018 22:37 7,3 °C 94 % 1015,7 hPa 0,0 mm 0,0 km/h (0 Bft) N 350 ° 0 min 0,000 mm 0,0 UV-I 0 W/m² 6,4 °C 7,3 °C 0,0 km/h (0 Bft)
25.10.2018 22:38 7,4 °C 95 % 1015,7 hPa 0,0 mm 0,0 km/h (0 Bft) N 350 ° 0 min 0,000 mm 0,0 UV-I 0 W/m² 6,7 °C 7,4 °C 0,0 km/h (0 Bft)
25.10.2018 22:39 7,4 °C 94 % 1015,7 hPa 0,0 mm 0,0 km/h (0 Bft) N 350 ° 0 min 0,000 mm 0,0 UV-I 0 W/m² 6,5 °C 7,4 °C 0,0 km/h (0 Bft)
25.10.2018 22:40 7,4 °C 94 % 1015,7 hPa 0,0 mm 0,0 km/h (0 Bft) N 350 ° 0 min 0,000 mm 0,0 UV-I 0 W/m² 6,5 °C 7,4 °C 0,0 km/h (0 Bft)
25.10.2018 22:41 7,4 °C 94 % 1015,7 hPa 0,0 mm 0,0 km/h (0 Bft) N 350 ° 0 min 0,000 mm 0,0 UV-I 0 W/m² 6,5 °C 7,4 °C 0,0 km/h (0 Bft)
25.10.2018 22:42 7,5 °C 94 % 1015,8 hPa 0,0 mm 0,0 km/h (0 Bft) N 350 ° 0 min 0,000 mm 0,0 UV-I 0 W/m² 6,6 °C 7,5 °C 0,0 km/h (0 Bft)
25.10.2018 22:43 7,5 °C 94 % 1015,8 hPa 0,0 mm 0,0 km/h (0 Bft) N 350 ° 0 min 0,000 mm 0,0 UV-I 0 W/m² 6,6 °C 7,5 °C 0,0 km/h (0 Bft)
25.10.2018 22:44 7,5 °C 94 % 1015,8 hPa 0,0 mm 0,0 km/h (0 Bft) N 350 ° 0 min 0,000 mm 0,0 UV-I 0 W/m² 6,6 °C 7,5 °C 0,0 km/h (0 Bft)
25.10.2018 22:45 7,6 °C 94 % 1015,7 hPa 0,0 mm 0,0 km/h (0 Bft) N 350 ° 0 min 0,000 mm 0,0 UV-I 0 W/m² 6,7 °C 7,6 °C 0,0 km/h (0 Bft)
25.10.2018 22:46 7,6 °C 95 % 1015,7 hPa 0,0 mm 0,0 km/h (0 Bft) N 350 ° 0 min 0,000 mm 0,0 UV-I 0 W/m² 6,9 °C 7,6 °C 0,0 km/h (0 Bft)
25.10.2018 22:47 7,6 °C 95 % 1015,8 hPa 0,0 mm 0,0 km/h (0 Bft) N 350 ° 0 min 0,000 mm 0,0 UV-I 0 W/m² 6,9 °C 7,6 °C 0,0 km/h (0 Bft)
25.10.2018 22:48 7,6 °C 95 % 1015,7 hPa 0,0 mm 0,0 km/h (0 Bft) N 350 ° 0 min 0,000 mm 0,0 UV-I 0 W/m² 6,9 °C 7,6 °C 0,0 km/h (0 Bft)
25.10.2018 22:49 7,6 °C 95 % 1015,8 hPa 0,0 mm 0,0 km/h (0 Bft) N 350 ° 0 min 0,000 mm 0,0 UV-I 0 W/m² 6,9 °C 7,6 °C 0,0 km/h (0 Bft)
25.10.2018 22:50 7,7 °C 95 % 1015,8 hPa 0,0 mm 0,0 km/h (0 Bft) N 350 ° 0 min 0,000 mm 0,0 UV-I 0 W/m² 7,0 °C 7,7 °C 0,0 km/h (0 Bft)
25.10.2018 22:51 7,7 °C 95 % 1015,7 hPa 0,0 mm 0,0 km/h (0 Bft) N 350 ° 0 min 0,000 mm 0,0 UV-I 0 W/m² 7,0 °C 7,7 °C 0,0 km/h (0 Bft)
25.10.2018 22:52 7,8 °C 95 % 1015,7 hPa 0,0 mm 0,0 km/h (0 Bft) N 350 ° 0 min 0,000 mm 0,0 UV-I 0 W/m² 7,0 °C 7,8 °C 0,0 km/h (0 Bft)
25.10.2018 22:53 7,8 °C 95 % 1015,7 hPa 0,0 mm 0,0 km/h (0 Bft) N 350 ° 0 min 0,000 mm 0,0 UV-I 0 W/m² 7,0 °C 7,8 °C 0,0 km/h (0 Bft)
25.10.2018 22:54 7,9 °C 95 % 1015,7 hPa 0,0 mm 0,0 km/h (0 Bft) N 350 ° 0 min 0,000 mm 0,0 UV-I 0 W/m² 7,1 °C 7,9 °C 0,0 km/h (0 Bft)
25.10.2018 22:55 7,8 °C 95 % 1015,7 hPa 0,0 mm 0,0 km/h (0 Bft) N 350 ° 0 min 0,000 mm 0,0 UV-I 0 W/m² 7,0 °C 7,8 °C 0,0 km/h (0 Bft)
25.10.2018 22:56 7,8 °C 94 % 1015,7 hPa 0,0 mm 0,0 km/h (0 Bft) N 350 ° 0 min 0,000 mm 0,0 UV-I 0 W/m² 6,9 °C 7,8 °C 0,0 km/h (0 Bft)
25.10.2018 22:57 7,8 °C 94 % 1015,7 hPa 0,0 mm 0,0 km/h (0 Bft) N 350 ° 0 min 0,000 mm 0,0 UV-I 0 W/m² 6,9 °C 7,8 °C 0,0 km/h (0 Bft)
25.10.2018 22:58 7,8 °C 94 % 1015,7 hPa 0,0 mm 0,0 km/h (0 Bft) N 350 ° 0 min 0,000 mm 0,0 UV-I 0 W/m² 6,9 °C 7,8 °C 0,0 km/h (0 Bft)
25.10.2018 22:59 7,8 °C 94 % 1015,7 hPa 0,0 mm 0,0 km/h (0 Bft) N 350 ° 0 min 0,000 mm 0,0 UV-I 0 W/m² 6,9 °C 7,8 °C 0,0 km/h (0 Bft)
25.10.2018 23:00 7,8 °C 95 % 1015,7 hPa 0,0 mm 0,0 km/h (0 Bft) N 350 ° 0 min 0,000 mm 0,0 UV-I 0 W/m² 7,0 °C 7,8 °C 0,0 km/h (0 Bft)
25.10.2018 23:01 7,8 °C 95 % 1015,7 hPa 0,0 mm 0,0 km/h (0 Bft) N 350 ° 0 min 0,000 mm 0,0 UV-I 0 W/m² 7,0 °C 7,8 °C 0,0 km/h (0 Bft)
25.10.2018 23:02 7,9 °C 95 % 1015,7 hPa 0,0 mm 0,0 km/h (0 Bft) N 350 ° 0 min 0,000 mm 0,0 UV-I 0 W/m² 7,1 °C 7,9 °C 0,0 km/h (0 Bft)
25.10.2018 23:03 8,0 °C 95 % 1015,7 hPa 0,0 mm 0,0 km/h (0 Bft) N 350 ° 0 min 0,000 mm 0,0 UV-I 0 W/m² 7,2 °C 8,0 °C 0,0 km/h (0 Bft)
25.10.2018 23:04 8,1 °C 95 % 1015,7 hPa 0,0 mm 0,0 km/h (0 Bft) N 350 ° 0 min 0,000 mm 0,0 UV-I 0 W/m² 7,3 °C 8,1 °C 0,0 km/h (0 Bft)
25.10.2018 23:05 8,0 °C 95 % 1015,7 hPa 0,0 mm 0,0 km/h (0 Bft) N 350 ° 0 min 0,000 mm 0,0 UV-I 0 W/m² 7,2 °C 8,0 °C 0,0 km/h (0 Bft)
25.10.2018 23:06 8,0 °C 95 % 1015,7 hPa 0,0 mm 0,0 km/h (0 Bft) N 350 ° 0 min 0,000 mm 0,0 UV-I 0 W/m² 7,2 °C 8,0 °C 0,0 km/h (0 Bft)
25.10.2018 23:07 8,0 °C 95 % 1015,7 hPa 0,0 mm 0,0 km/h (0 Bft) N 350 ° 0 min 0,000 mm 0,0 UV-I 0 W/m² 7,2 °C 8,0 °C 0,0 km/h (0 Bft)
25.10.2018 23:08 8,1 °C 94 % 1015,7 hPa 0,0 mm 0,0 km/h (0 Bft) N 350 ° 0 min 0,000 mm 0,0 UV-I 0 W/m² 7,2 °C 8,1 °C 0,0 km/h (0 Bft)
25.10.2018 23:09 8,2 °C 95 % 1015,7 hPa 0,0 mm 0,0 km/h (0 Bft) N 350 ° 0 min 0,000 mm 0,0 UV-I 0 W/m² 7,4 °C 8,2 °C 0,0 km/h (0 Bft)
25.10.2018 23:10 8,2 °C 95 % 1015,7 hPa 0,0 mm 0,0 km/h (0 Bft) N 350 ° 0 min 0,000 mm 0,0 UV-I 0 W/m² 7,4 °C 8,2 °C 0,0 km/h (0 Bft)
25.10.2018 23:11 8,2 °C 95 % 1015,6 hPa 0,0 mm 0,0 km/h (0 Bft) N 350 ° 0 min 0,000 mm 0,0 UV-I 0 W/m² 7,4 °C 8,2 °C 0,0 km/h (0 Bft)
25.10.2018 23:12 8,2 °C 95 % 1015,6 hPa 0,0 mm 0,0 km/h (0 Bft) N 350 ° 0 min 0,000 mm 0,0 UV-I 0 W/m² 7,4 °C 8,2 °C 0,0 km/h (0 Bft)
25.10.2018 23:13 8,2 °C 95 % 1015,7 hPa 0,0 mm 0,0 km/h (0 Bft) N 350 ° 0 min 0,000 mm 0,0 UV-I 0 W/m² 7,4 °C 8,2 °C 0,0 km/h (0 Bft)
25.10.2018 23:14 8,2 °C 95 % 1015,7 hPa 0,0 mm 0,0 km/h (0 Bft) N 350 ° 0 min 0,000 mm 0,0 UV-I 0 W/m² 7,4 °C 8,2 °C 0,0 km/h (0 Bft)
25.10.2018 23:15 8,2 °C 94 % 1015,6 hPa 0,0 mm 0,0 km/h (0 Bft) N 350 ° 0 min 0,000 mm 0,0 UV-I 0 W/m² 7,3 °C 8,2 °C 0,0 km/h (0 Bft)
25.10.2018 23:16 8,2 °C 94 % 1015,6 hPa 0,0 mm 0,0 km/h (0 Bft) N 350 ° 0 min 0,000 mm 0,0 UV-I 0 W/m² 7,3 °C 8,2 °C 0,0 km/h (0 Bft)
25.10.2018 23:17 8,3 °C 95 % 1015,6 hPa 0,0 mm 0,2 km/h (0 Bft) N 350 ° 0 min 0,000 mm 0,0 UV-I 0 W/m² 7,5 °C 8,3 °C 1,6 km/h (1 Bft)
25.10.2018 23:18 8,4 °C 95 % 1015,5 hPa 0,0 mm 0,3 km/h (0 Bft) N 350 ° 0 min 0,000 mm 0,0 UV-I 0 W/m² 7,6 °C 8,4 °C 1,6 km/h (1 Bft)
25.10.2018 23:19 8,6 °C 95 % 1015,6 hPa 0,0 mm 0,5 km/h (0 Bft) N 350 ° 0 min 0,000 mm 0,0 UV-I 0 W/m² 7,8 °C 8,6 °C 1,6 km/h (1 Bft)
25.10.2018 23:20 8,6 °C 95 % 1015,5 hPa 0,0 mm 0,0 km/h (0 Bft) N 350 ° 0 min 0,000 mm 0,0 UV-I 0 W/m² 7,8 °C 8,6 °C 0,0 km/h (0 Bft)
25.10.2018 23:21 8,4 °C 95 % 1015,5 hPa 0,0 mm 0,0 km/h (0 Bft) N 350 ° 0 min 0,000 mm 0,0 UV-I 0 W/m² 7,6 °C 8,4 °C 0,0 km/h (0 Bft)
25.10.2018 23:22 8,3 °C 94 % 1015,6 hPa 0,0 mm 0,2 km/h (0 Bft) N 350 ° 0 min 0,000 mm 0,0 UV-I 0 W/m² 7,4 °C 8,3 °C 1,6 km/h (1 Bft)
25.10.2018 23:23 8,3 °C 94 % 1015,6 hPa 0,0 mm 1,6 km/h (1 Bft) N 350 ° 0 min 0,000 mm 0,0 UV-I 0 W/m² 7,4 °C 8,3 °C 3,2 km/h (1 Bft)
25.10.2018 23:24 8,2 °C 94 % 1015,6 hPa 0,0 mm 0,3 km/h (0 Bft) N 350 ° 0 min 0,000 mm 0,0 UV-I 0 W/m² 7,3 °C 8,2 °C 1,6 km/h (1 Bft)
25.10.2018 23:25 8,1 °C 94 % 1015,6 hPa 0,0 mm 0,0 km/h (0 Bft) N 350 ° 0 min 0,000 mm 0,0 UV-I 0 W/m² 7,2 °C 8,1 °C 0,0 km/h (0 Bft)
25.10.2018 23:26 8,0 °C 94 % 1015,7 hPa 0,0 mm 0,0 km/h (0 Bft) N 350 ° 0 min 0,000 mm 0,0 UV-I 0 W/m² 7,1 °C 8,0 °C 0,0 km/h (0 Bft)
25.10.2018 23:27 7,9 °C 94 % 1015,6 hPa 0,0 mm 0,0 km/h (0 Bft) N 350 ° 0 min 0,000 mm 0,0 UV-I 0 W/m² 7,0 °C 7,9 °C 0,0 km/h (0 Bft)
25.10.2018 23:28 7,9 °C 94 % 1015,6 hPa 0,0 mm 0,0 km/h (0 Bft) N 350 ° 0 min 0,000 mm 0,0 UV-I 0 W/m² 7,0 °C 7,9 °C 0,0 km/h (0 Bft)
25.10.2018 23:29 7,9 °C 94 % 1015,6 hPa 0,0 mm 0,0 km/h (0 Bft) N 350 ° 0 min 0,000 mm 0,0 UV-I 0 W/m² 7,0 °C 7,9 °C 0,0 km/h (0 Bft)
25.10.2018 23:30 7,9 °C 94 % 1015,6 hPa 0,0 mm 0,0 km/h (0 Bft) N 350 ° 0 min 0,000 mm 0,0 UV-I 0 W/m² 7,0 °C 7,9 °C 0,0 km/h (0 Bft)
25.10.2018 23:31 7,9 °C 94 % 1015,6 hPa 0,0 mm 0,0 km/h (0 Bft) N 350 ° 0 min 0,000 mm 0,0 UV-I 0 W/m² 7,0 °C 7,9 °C 0,0 km/h (0 Bft)
25.10.2018 23:32 7,9 °C 94 % 1015,6 hPa 0,0 mm 0,0 km/h (0 Bft) N 350 ° 0 min 0,000 mm 0,0 UV-I 0 W/m² 7,0 °C 7,9 °C 0,0 km/h (0 Bft)
25.10.2018 23:33 7,9 °C 94 % 1015,6 hPa 0,0 mm 0,0 km/h (0 Bft) N 350 ° 0 min 0,000 mm 0,0 UV-I 0 W/m² 7,0 °C 7,9 °C 0,0 km/h (0 Bft)
25.10.2018 23:34 7,9 °C 94 % 1015,6 hPa 0,0 mm 0,0 km/h (0 Bft) N 350 ° 0 min 0,000 mm 0,0 UV-I 0 W/m² 7,0 °C 7,9 °C 0,0 km/h (0 Bft)
25.10.2018 23:35 7,9 °C 94 % 1015,5 hPa 0,0 mm 0,0 km/h (0 Bft) N 350 ° 0 min 0,000 mm 0,0 UV-I 0 W/m² 7,0 °C 7,9 °C 0,0 km/h (0 Bft)
25.10.2018 23:36 7,9 °C 94 % 1015,5 hPa 0,0 mm 0,0 km/h (0 Bft) N 350 ° 0 min 0,000 mm 0,0 UV-I 0 W/m² 7,0 °C 7,9 °C 0,0 km/h (0 Bft)
25.10.2018 23:37 7,9 °C 94 % 1015,6 hPa 0,0 mm 0,0 km/h (0 Bft) N 350 ° 0 min 0,000 mm 0,0 UV-I 0 W/m² 7,0 °C 7,9 °C 0,0 km/h (0 Bft)
25.10.2018 23:38 7,9 °C 94 % 1015,6 hPa 0,0 mm 0,0 km/h (0 Bft) N 350 ° 0 min 0,000 mm 0,0 UV-I 0 W/m² 7,0 °C 7,9 °C 0,0 km/h (0 Bft)
25.10.2018 23:39 7,9 °C 94 % 1015,6 hPa 0,0 mm 0,0 km/h (0 Bft) N 350 ° 0 min 0,000 mm 0,0 UV-I 0 W/m² 7,0 °C 7,9 °C 0,0 km/h (0 Bft)
25.10.2018 23:40 7,9 °C 94 % 1015,6 hPa 0,0 mm 0,0 km/h (0 Bft) N 350 ° 0 min 0,000 mm 0,0 UV-I 0 W/m² 7,0 °C 7,9 °C 0,0 km/h (0 Bft)
25.10.2018 23:41 7,9 °C 94 % 1015,6 hPa 0,0 mm 0,0 km/h (0 Bft) N 350 ° 0 min 0,000 mm 0,0 UV-I 0 W/m² 7,0 °C 7,9 °C 0,0 km/h (0 Bft)
25.10.2018 23:42 7,9 °C 94 % 1015,6 hPa 0,0 mm 0,0 km/h (0 Bft) N 350 ° 0 min 0,000 mm 0,0 UV-I 0 W/m² 7,0 °C 7,9 °C 0,0 km/h (0 Bft)
25.10.2018 23:43 8,0 °C 94 % 1015,6 hPa 0,0 mm 0,0 km/h (0 Bft) N 350 ° 0 min 0,000 mm 0,0 UV-I 0 W/m² 7,1 °C 8,0 °C 0,0 km/h (0 Bft)
25.10.2018 23:44 8,0 °C 94 % 1015,6 hPa 0,0 mm 0,0 km/h (0 Bft) N 350 ° 0 min 0,000 mm 0,0 UV-I 0 W/m² 7,1 °C 8,0 °C 0,0 km/h (0 Bft)
25.10.2018 23:45 8,0 °C 95 % 1015,6 hPa 0,0 mm 0,0 km/h (0 Bft) N 350 ° 0 min 0,000 mm 0,0 UV-I 0 W/m² 7,2 °C 8,0 °C 0,0 km/h (0 Bft)
25.10.2018 23:46 8,0 °C 94 % 1015,6 hPa 0,0 mm 0,0 km/h (0 Bft) N 350 ° 0 min 0,000 mm 0,0 UV-I 0 W/m² 7,1 °C 8,0 °C 0,0 km/h (0 Bft)
25.10.2018 23:47 8,1 °C 94 % 1015,7 hPa 0,0 mm 0,0 km/h (0 Bft) N 350 ° 0 min 0,000 mm 0,0 UV-I 0 W/m² 7,2 °C 8,1 °C 0,0 km/h (0 Bft)
25.10.2018 23:48 8,1 °C 94 % 1015,7 hPa 0,0 mm 0,0 km/h (0 Bft) N 350 ° 0 min 0,000 mm 0,0 UV-I 0 W/m² 7,2 °C 8,1 °C 0,0 km/h (0 Bft)
25.10.2018 23:49 8,1 °C 94 % 1015,7 hPa 0,0 mm 0,0 km/h (0 Bft) N 350 ° 0 min 0,000 mm 0,0 UV-I 0 W/m² 7,2 °C 8,1 °C 0,0 km/h (0 Bft)
25.10.2018 23:50 8,1 °C 94 % 1015,7 hPa 0,0 mm 0,0 km/h (0 Bft) N 350 ° 0 min 0,000 mm 0,0 UV-I 0 W/m² 7,2 °C 8,1 °C 0,0 km/h (0 Bft)
25.10.2018 23:51 8,1 °C 94 % 1015,7 hPa 0,0 mm 0,0 km/h (0 Bft) N 350 ° 0 min 0,000 mm 0,0 UV-I 0 W/m² 7,2 °C 8,1 °C 0,0 km/h (0 Bft)
25.10.2018 23:52 8,1 °C 94 % 1015,7 hPa 0,0 mm 0,0 km/h (0 Bft) N 350 ° 0 min 0,000 mm 0,0 UV-I 0 W/m² 7,2 °C 8,1 °C 0,0 km/h (0 Bft)
25.10.2018 23:53 8,1 °C 94 % 1015,7 hPa 0,0 mm 0,0 km/h (0 Bft) N 350 ° 0 min 0,000 mm 0,0 UV-I 0 W/m² 7,2 °C 8,1 °C 0,0 km/h (0 Bft)
25.10.2018 23:54 8,1 °C 94 % 1015,7 hPa 0,0 mm 0,0 km/h (0 Bft) N 350 ° 0 min 0,000 mm 0,0 UV-I 0 W/m² 7,2 °C 8,1 °C 0,0 km/h (0 Bft)
25.10.2018 23:55 8,1 °C 94 % 1015,7 hPa 0,0 mm 0,0 km/h (0 Bft) N 350 ° 0 min 0,000 mm 0,0 UV-I 0 W/m² 7,2 °C 8,1 °C 0,0 km/h (0 Bft)
25.10.2018 23:56 8,1 °C 94 % 1015,7 hPa 0,0 mm 0,0 km/h (0 Bft) N 350 ° 0 min 0,000 mm 0,0 UV-I 0 W/m² 7,2 °C 8,1 °C 0,0 km/h (0 Bft)
25.10.2018 23:57 8,1 °C 94 % 1015,7 hPa 0,0 mm 0,0 km/h (0 Bft) N 350 ° 0 min 0,000 mm 0,0 UV-I 0 W/m² 7,2 °C 8,1 °C 0,0 km/h (0 Bft)
25.10.2018 23:58 8,1 °C 94 % 1015,7 hPa 0,0 mm 0,0 km/h (0 Bft) N 350 ° 0 min 0,000 mm 0,0 UV-I 0 W/m² 7,2 °C 8,1 °C 0,0 km/h (0 Bft)
25.10.2018 23:59 8,1 °C 94 % 1015,7 hPa 0,0 mm 0,0 km/h (0 Bft) N 350 ° 0 min 0,000 mm 0,0 UV-I 0 W/m² 7,2 °C 8,1 °C 0,0 km/h (0 Bft)
_ Min-Zeit 21:27 15:15 18:23 - 23:59 - - - - - - 21:22 21:27 23:59
Minimum _ 5,2 °C 69 % 1015,3 hPa - 0,0 km/h (0 Bft) - - - - - - 4,2 °C 5,2 °C 0,0 km/h (0 Bft)
_ Max-Zeit 15:08 23:45 00:10 02:54 15:20 - - 23:59 15:01 13:42 13:41 14:15 15:08 00:48
Maximum _ 15,6 °C 95 % 1023,2 hPa 0,2 mm 17,9 km/h
W-SW (3 Bft)
- - 0 min 0,228 mm 2,5 UV-I 489 W/m² 11,6 °C 15,6 °C 27,4 km/h
W (4 Bft)
Durchschnitt _ 9,7 °C 90 % 1018,5 hPa #0,6 mm 3,5 km/h (1 Bft) W - #0 min. #0,737 mm 1,7 UV-I 51 W/m² 8,0 °C 9,5 °C 6,0 km/h (2 Bft)